[[{"header":{"parameterUnit":"m.s-1","parameterCategory":1,"la1":30.6,"la2":29.2853,"lo1":-89.7004,"lo2":-87.6739,"dy":0.0162,"dx":0.0183,"nx":112,"ny":82,"refTime":"2023-08-18T12:00:00:Z","depth":0,"parameterNumber":2,"parameterNumberName":"U-component_of_WINDS"},"data":[0.0,0.0,0.0,0.0,0.0,0.0,0.0,0.0,0.0,0.0,0.0,0.0,0.0,0.0,0.0,0.0,0.0,0.0,0.0,0.0,0.0,0.0,0.0,0.0,0.0,0.0,0.0,0.0,0.0,0.0,0.0,0.0,0.0,0.0,0.0,0.0,0.0,0.0,0.0,0.0,0.0,0.0,0.0,0.0,0.0,0.0,0.0,0.0,0.0,0.0,0.0,0.0,0.0,0.0,0.0,0.0,0.0,0.0,0.0,0.0,0.0,0.0,0.0,0.0,0.0,0.0,0.0,0.0,0.0,0.0,0.0,0.0,0.0,0.0,0.0,0.0,0.0,0.0,0.0,0.0,0.0,0.0,0.0,0.0,0.0,0.0,0.0,0.0,0.0,0.0,-0.8978,-0.9431,-1.0459,-1.1132,-1.1062,-1.0262,-0.943,-0.8649,0.0,0.0,0.0,0.0,0.0,0.0,0.0,0.0,0.0,0.0,0.0,0.0,0.0,0.0,0.0,0.0,0.0,0.0,0.0,0.0,0.0,0.0,0.0,0.0,0.0,0.0,0.0,0.0,0.0,0.0,0.0,0.0,0.0,0.0,0.0,0.0,0.0,0.0,0.0,0.0,0.0,0.0,0.0,0.0,0.0,0.0,0.0,0.0,0.0,0.0,0.0,0.0,0.0,0.0,0.0,0.0,0.0,0.0,0.0,0.0,0.0,0.0,0.0,0.0,0.0,0.0,0.0,0.0,0.0,0.0,0.0,0.0,0.0,0.0,0.0,0.0,0.0,0.0,0.0,0.0,0.0,0.0,0.0,0.0,0.0,0.0,0.0,0.0,0.0,0.0,0.0,0.0,0.0,0.0,0.0,0.0,0.0,0.0,0.0,0.0,0.0,0.0,0.0,0.0,-0.9299,-1.0595,-1.1346,-1.1654,-1.1366,-1.0542,-0.9628,-0.866,0.0,0.0,0.0,0.0,0.0,0.0,0.0,0.0,0.0,0.0,0.0,0.0,0.0,0.0,0.0,0.0,0.0,0.0,0.0,0.0,0.0,0.0,0.0,0.0,0.0,0.0,0.0,0.0,0.0,0.0,0.0,0.0,0.0,0.0,0.0,0.0,0.0,0.0,0.0,0.0,0.0,0.0,0.0,0.0,0.0,0.0,0.0,0.0,0.0,0.0,0.0,0.0,0.0,0.0,0.0,0.0,0.0,0.0,0.0,0.0,0.0,0.0,0.0,0.0,0.0,0.0,0.0,0.0,0.0,0.0,0.0,0.0,0.0,0.0,0.0,0.0,0.0,0.0,0.0,0.0,0.0,0.0,0.0,0.0,0.0,0.0,0.0,0.0,0.0,0.0,0.0,0.0,0.0,0.0,0.0,0.0,0.0,0.0,0.0,0.0,0.0,0.0,0.0,-0.9419,-0.9938,-1.1086,-1.1627,-1.1761,-1.1432,-1.0529,-0.9556,-0.8557,-0.7245,0.0,0.0,0.0,0.0,0.0,0.0,0.0,0.0,0.0,0.0,0.0,0.0,0.0,0.0,0.0,0.0,0.0,0.0,0.0,0.0,0.0,0.0,0.0,0.0,0.0,0.0,0.0,0.0,0.0,0.0,0.0,0.0,0.0,0.0,0.0,0.0,0.0,0.0,0.0,0.0,0.0,0.0,0.0,0.0,0.0,0.0,0.0,0.0,0.0,0.0,0.0,0.0,0.0,0.0,0.0,0.0,0.0,0.0,0.0,0.0,0.0,0.0,0.0,0.0,0.0,0.0,0.0,0.0,0.0,0.0,0.0,0.0,0.0,0.0,0.0,0.0,0.0,0.0,0.0,0.0,0.0,0.0,0.0,0.0,0.0,0.0,0.0,0.0,0.0,0.0,0.0,0.0,0.0,0.0,0.0,0.0,0.0,0.0,0.0,0.0,0.0,0.0,-0.9993,-1.0512,-1.1326,-1.1757,-1.1824,-1.1432,-1.048,-0.9478,-0.8466,-0.7021,0.0,0.0,0.0,0.0,0.0,0.0,0.0,0.0,0.0,0.0,0.0,0.0,0.0,0.0,0.0,0.0,0.0,0.0,0.0,0.0,0.0,0.0,0.0,0.0,0.0,0.0,0.0,0.0,0.0,0.0,0.0,0.0,0.0,0.0,0.0,0.0,0.0,0.0,0.0,0.0,0.0,0.0,0.0,0.0,0.0,0.0,0.0,0.0,0.0,0.0,0.0,0.0,0.0,0.0,0.0,0.0,0.0,0.0,0.0,0.0,0.0,0.0,0.0,0.0,0.0,0.0,0.0,0.0,0.0,0.0,0.0,0.0,0.0,0.0,0.0,0.0,0.0,0.0,0.0,0.0,0.0,0.0,0.0,0.0,0.0,0.0,0.0,0.0,0.0,0.0,0.0,0.0,0.0,0.0,0.0,0.0,0.0,0.0,0.0,0.0,0.0,0.0,-1.0211,-1.0771,-1.1339,-1.1913,-1.2037,-1.1459,-1.048,-0.9478,-0.8466,-0.7021,0.0,0.0,0.0,0.0,0.0,0.0,0.0,0.0,0.0,0.0,0.0,0.0,0.0,0.0,0.0,0.0,0.0,0.0,0.0,0.0,0.0,0.0,0.0,0.0,0.0,0.0,0.0,0.0,0.0,0.0,0.0,0.0,0.0,0.0,0.0,0.0,0.0,0.0,0.0,0.0,0.0,0.0,0.0,0.0,0.0,0.0,0.0,0.0,0.0,0.0,0.0,0.0,0.0,0.0,0.0,0.0,0.0,0.0,0.0,0.0,0.0,0.0,0.0,0.0,0.0,0.0,0.0,0.0,0.0,0.0,0.0,0.0,0.0,0.0,0.0,0.0,0.0,0.0,0.0,0.0,0.0,0.0,0.0,0.0,0.0,0.0,0.0,0.0,0.0,0.0,0.0,0.0,0.0,0.0,0.0,0.0,0.0,0.0,0.0,0.0,0.0,0.0,-1.0224,-1.0814,-1.1352,-1.1784,-1.1864,-1.1446,-1.0312,-0.9294,-0.8454,0.0,0.0,0.0,0.0,0.0,0.0,0.0,0.0,0.0,0.0,0.0,0.0,0.0,0.0,0.0,0.0,0.0,0.0,0.0,0.0,0.0,0.0,0.0,0.0,0.0,0.0,0.0,0.0,0.0,0.0,0.0,0.0,0.0,0.0,0.0,0.0,0.0,0.0,0.0,0.0,0.0,0.0,0.0,0.0,0.0,0.0,0.0,0.0,0.0,0.0,0.0,0.0,0.0,0.0,0.0,0.0,0.0,0.0,0.0,0.0,0.0,0.0,0.0,0.0,0.0,0.0,0.0,0.0,0.0,0.0,0.0,0.0,0.0,0.0,0.0,0.0,0.0,0.0,0.0,0.0,0.0,0.0,0.0,0.0,0.0,0.0,0.0,0.0,0.0,0.0,0.0,0.0,0.0,0.0,0.0,0.0,0.0,0.0,0.0,0.0,0.0,0.0,-0.9634,-1.0289,-1.0905,-1.1352,-1.169,-1.1761,-1.1432,-1.0238,-0.9198,-0.8501,0.0,0.0,0.0,0.0,0.0,0.0,0.0,0.0,0.0,0.0,0.0,0.0,0.0,0.0,0.0,0.0,0.0,0.0,0.0,0.0,0.0,0.0,0.0,0.0,0.0,0.0,0.0,0.0,0.0,0.0,0.0,0.0,0.0,0.0,0.0,0.0,0.0,0.0,0.0,0.0,0.0,0.0,0.0,0.0,0.0,0.0,0.0,0.0,0.0,0.0,0.0,0.0,0.0,0.0,0.0,0.0,0.0,0.0,0.0,0.0,0.0,0.0,0.0,0.0,0.0,0.0,0.0,0.0,0.0,0.0,0.0,0.0,0.0,0.0,0.0,0.0,0.0,0.0,0.0,0.0,0.0,0.0,0.0,0.0,0.0,0.0,0.0,0.0,0.0,0.0,0.0,0.0,0.0,0.0,0.0,0.0,0.0,0.0,0.0,0.0,0.0,0.0,-0.966,-1.0463,-1.1102,-1.1379,-1.1708,-1.1761,-1.1432,-1.0226,-0.9244,0.0,0.0,0.0,0.0,0.0,0.0,0.0,0.0,0.0,0.0,0.0,0.0,0.0,0.0,0.0,0.0,0.0,0.0,0.0,0.0,0.0,0.0,0.0,0.0,0.0,0.0,0.0,0.0,0.0,0.0,0.0,0.0,0.0,0.0,0.0,0.0,0.0,0.0,0.0,0.0,0.0,0.0,0.0,0.0,0.0,0.0,0.0,0.0,0.0,0.0,0.0,0.0,0.0,0.0,0.0,0.0,0.0,0.0,0.0,0.0,0.0,0.0,0.0,0.0,0.0,0.0,0.0,0.0,0.0,0.0,0.0,0.0,0.0,0.0,0.0,0.0,0.0,0.0,0.0,0.0,0.0,0.0,0.0,0.0,0.0,0.0,0.0,0.0,0.0,0.0,0.0,0.0,0.0,0.0,0.0,0.0,0.0,0.0,0.0,0.0,0.0,0.0,0.0,-0.9953,-1.0581,-1.1102,-1.1379,-1.1486,-1.1499,-1.1419,-1.0152,-0.9137,-0.8625,0.0,0.0,0.0,0.0,0.0,0.0,0.0,0.0,0.0,0.0,0.0,0.0,0.0,0.0,0.0,0.0,0.0,0.0,0.0,0.0,0.0,0.0,0.0,0.0,0.0,0.0,0.0,0.0,0.0,0.0,0.0,0.0,0.0,0.0,0.0,0.0,0.0,0.0,0.0,0.0,0.0,0.0,0.0,0.0,0.0,0.0,0.0,0.0,0.0,0.0,0.0,0.0,0.0,0.0,0.0,0.0,0.0,0.0,0.0,0.0,0.0,0.0,0.0,0.0,0.0,0.0,0.0,0.0,0.0,0.0,0.0,0.0,0.0,0.0,0.0,0.0,0.0,0.0,0.0,0.0,0.0,0.0,0.0,0.0,0.0,0.0,0.0,0.0,0.0,0.0,0.0,0.0,0.0,0.0,0.0,0.0,0.0,0.0,0.0,0.0,0.0,0.0,-1.0261,-1.0808,-1.1276,-1.157,-1.1597,-1.1557,-1.1402,-1.0314,-0.9395,-0.8866,0.0,0.0,0.0,0.0,0.0,0.0,0.0,0.0,0.0,0.0,0.0,0.0,0.0,0.0,0.0,0.0,0.0,0.0,0.0,0.0,0.0,0.0,0.0,0.0,0.0,0.0,0.0,0.0,0.0,0.0,0.0,0.0,0.0,0.0,0.0,0.0,0.0,0.0,0.0,0.0,0.0,0.0,0.0,0.0,0.0,0.0,0.0,0.0,0.0,0.0,0.0,0.0,0.0,0.0,0.0,0.0,0.0,0.0,0.0,0.0,0.0,0.0,0.0,0.0,0.0,0.0,0.0,0.0,0.0,0.0,0.0,0.0,0.0,0.0,0.0,0.0,0.0,0.0,0.0,0.0,0.0,0.0,0.0,0.0,0.0,0.0,0.0,0.0,0.0,0.0,0.0,0.0,0.0,0.0,0.0,0.0,0.0,0.0,0.0,0.0,0.0,0.0,-1.06,-1.1102,-1.1553,-1.1873,-1.1899,-1.1761,-1.1432,-1.0607,-0.9838,-0.9227,0.0,0.0,0.0,0.0,0.0,0.0,0.0,0.0,0.0,0.0,0.0,0.0,0.0,0.0,0.0,0.0,0.0,0.0,0.0,0.0,0.0,0.0,0.0,0.0,0.0,0.0,0.0,0.0,0.0,0.0,0.0,0.0,0.0,0.0,0.0,0.0,0.0,0.0,0.0,0.0,0.0,0.0,0.0,0.0,0.0,0.0,0.0,0.0,0.0,0.0,0.0,0.0,0.0,0.0,0.0,0.0,0.0,0.0,0.0,0.0,-1.0412,-0.9695,0.0,0.0,0.0,0.0,0.0,0.0,0.0,0.0,0.0,0.0,0.0,0.0,0.0,0.0,0.0,0.0,0.0,0.0,0.0,0.0,0.0,0.0,0.0,0.0,0.0,0.0,0.0,0.0,0.0,0.0,0.0,0.0,0.0,0.0,0.0,0.0,0.0,0.0,0.0,0.0,-1.0905,-1.1427,-1.1815,-1.1899,-1.1899,-1.1761,-1.1432,-1.0607,-0.9838,-0.9227,-0.8256,0.0,0.0,0.0,0.0,0.0,0.0,0.0,0.0,0.0,0.0,0.0,0.0,0.0,0.0,0.0,0.0,0.0,0.0,0.0,0.0,0.0,0.0,0.0,0.0,0.0,0.0,0.0,0.0,0.0,0.0,0.0,0.0,0.0,0.0,0.0,0.0,0.0,0.0,0.0,0.0,0.0,0.0,0.0,0.0,0.0,0.0,0.0,0.0,0.0,0.0,0.0,0.0,0.0,0.0,0.0,0.0,0.0,0.0,0.0,-1.1947,-1.102,0.0,0.0,0.0,0.0,0.0,0.0,0.0,0.0,0.0,0.0,0.0,0.0,0.0,0.0,0.0,0.0,0.0,0.0,0.0,0.0,0.0,0.0,0.0,0.0,0.0,0.0,0.0,0.0,0.0,0.0,0.0,0.0,0.0,0.0,0.0,0.0,0.0,0.0,0.0,0.0,-1.1413,-1.1815,-1.2096,-1.2096,-1.2248,-1.2136,-1.1677,-1.1017,-1.0372,-0.9712,-0.8688,0.0,0.0,0.0,0.0,0.0,0.0,0.0,0.0,0.0,0.0,0.0,0.0,0.0,0.0,0.0,0.0,0.0,0.0,0.0,0.0,0.0,0.0,0.0,0.0,0.0,0.0,0.0,0.0,0.0,0.0,0.0,0.0,0.0,0.0,0.0,0.0,0.0,0.0,0.0,0.0,0.0,0.0,0.0,0.0,0.0,0.0,0.0,0.0,0.0,0.0,0.0,0.0,0.0,-1.4247,-1.4541,-1.528,-1.5017,-1.503,-1.5213,-1.3728,-1.2778,-1.2251,-1.2015,0.0,0.0,0.0,0.0,0.0,0.0,0.0,0.0,0.0,0.0,0.0,0.0,0.0,0.0,0.0,0.0,0.0,0.0,0.0,0.0,0.0,0.0,-1.2612,-1.2612,-1.2612,-1.2478,-1.1979,0.0,0.0,0.0,0.0,0.0,0.0,0.0,0.0,0.0,0.0,0.0,-1.1935,-1.2251,-1.2465,-1.2465,-1.2663,-1.2569,-1.202,-1.1537,-1.0972,-1.0304,-0.9246,-0.8355,0.0,0.0,0.0,0.0,0.0,0.0,0.0,0.0,0.0,0.0,0.0,0.0,0.0,0.0,0.0,0.0,0.0,0.0,0.0,0.0,0.0,0.0,0.0,0.0,0.0,0.0,0.0,0.0,0.0,0.0,0.0,0.0,-0.8227,-0.8821,0.0,0.0,0.0,0.0,0.0,0.0,0.0,0.0,0.0,0.0,0.0,0.0,0.0,-1.4036,-1.4646,-1.515,-1.5605,-1.6016,-1.6206,-1.6366,-1.6473,-1.6433,-1.6433,-1.646,-1.6233,0.0,-1.3774,-1.3338,0.0,0.0,0.0,0.0,0.0,0.0,0.0,0.0,0.0,0.0,0.0,0.0,0.0,0.0,0.0,0.0,0.0,0.0,0.0,0.0,0.0,0.0,-1.3854,-1.3854,-1.3854,-1.3828,-1.3748,-1.2919,-1.2184,-1.2184,-1.1984,-1.1828,0.0,0.0,0.0,0.0,0.0,0.0,-1.2238,-1.2746,-1.3073,-1.3073,-1.2898,-1.265,-1.2278,-1.1822,-1.1269,-1.059,-0.996,-0.929,-0.8575,-0.779,0.0,0.0,0.0,0.0,0.0,0.0,0.0,0.0,0.0,0.0,0.0,0.0,0.0,0.0,0.0,0.0,0.0,0.0,0.0,0.0,0.0,0.0,0.0,0.0,0.0,0.0,0.0,0.0,0.0,-0.7922,-0.9125,-0.9898,-1.03,-1.0605,0.0,0.0,0.0,0.0,0.0,0.0,0.0,0.0,0.0,-1.4634,-1.5257,-1.5845,-1.6458,-1.6835,-1.7275,-1.7769,-1.7889,-1.8036,-1.8224,-1.8224,-1.8224,-1.8224,-1.8224,-1.7582,-1.6473,-1.5245,-1.4299,-1.359,0.0,0.0,0.0,0.0,-1.351,-1.3883,-1.4016,-1.4282,-1.4475,-1.4192,0.0,0.0,0.0,0.0,0.0,0.0,0.0,-1.4173,-1.4514,-1.4723,-1.487,-1.503,-1.4937,-1.4816,-1.4816,-1.4303,-1.3654,-1.3127,-1.2807,-1.2625,-1.2625,-1.2518,0.0,0.0,0.0,-1.2812,-1.2812,-1.3167,-1.3367,-1.3227,-1.3093,-1.2898,-1.2623,-1.2076,-1.1544,-1.1027,-1.044,-0.9811,-0.9076,-0.8327,-0.769,0.0,0.0,0.0,0.0,0.0,0.0,0.0,0.0,0.0,0.0,0.0,0.0,0.0,0.0,0.0,0.0,0.0,0.0,0.0,0.0,0.0,0.0,0.0,0.0,0.0,0.0,0.0,0.0,-0.8922,-1.0113,-1.1063,-1.1419,-1.1717,0.0,0.0,0.0,0.0,0.0,0.0,-1.471,-1.511,-1.5648,-1.6462,-1.6982,-1.7555,-1.817,-1.8356,-1.873,-1.9223,-1.9223,-1.9372,-1.9586,-1.9586,-1.9586,-1.9586,-1.9586,-1.9305,-1.8691,-1.7061,-1.5888,-1.519,-1.511,-1.495,-1.4776,-1.5003,-1.5294,-1.5598,-1.5789,-1.6032,-1.6195,-1.5845,-1.5484,-1.516,-1.4901,0.0,0.0,0.0,0.0,-1.507,-1.5511,-1.5671,-1.5778,-1.5981,-1.5885,-1.5712,-1.5655,-1.5414,-1.4972,-1.4114,-1.3727,-1.35,-1.3454,-1.3353,0.0,-1.33,-1.3387,-1.3467,-1.3514,-1.378,-1.3847,-1.3554,-1.346,-1.33,-1.2931,-1.2422,-1.1919,-1.1426,-1.092,-1.0343,-0.9639,-0.8924,-0.8276,-0.7662,0.0,0.0,0.0,0.0,0.0,0.0,0.0,0.0,0.0,0.0,0.0,0.0,0.0,0.0,0.0,0.0,0.0,0.0,0.0,0.0,0.0,0.0,0.0,0.0,0.0,0.0,0.0,0.0,0.0,-1.2583,-1.3148,0.0,0.0,0.0,0.0,-1.4367,-1.5168,-1.5915,-1.654,-1.7114,-1.7742,-1.8343,-1.8651,-1.9063,-1.9679,-1.9706,-1.9867,-2.013,-2.013,-2.0144,-2.0157,-2.0157,-2.0157,-2.0157,-2.0157,-1.9983,-1.9639,-1.841,-1.7555,-1.7045,-1.67,-1.658,-1.658,-1.6593,-1.6805,-1.7085,-1.7112,-1.7274,-1.7395,-1.682,-1.6235,-1.5755,-1.5741,-1.5728,0.0,0.0,-1.5965,-1.6217,-1.6244,-1.6433,-1.6647,-1.666,-1.6647,-1.6567,-1.631,-1.5992,-1.5605,-1.5039,-1.4656,-1.4341,-1.4095,0.0,-1.3586,-1.3586,-1.3847,-1.4148,-1.4394,-1.471,-1.4812,-1.4461,-1.4215,-1.3814,-1.324,-1.2931,-1.2453,-1.1719,-1.1471,-1.1069,-1.0466,-0.9847,-0.9243,-0.8628,-0.7857,0.0,0.0,0.0,0.0,0.0,0.0,0.0,0.0,0.0,0.0,0.0,0.0,0.0,0.0,0.0,0.0,0.0,0.0,0.0,0.0,0.0,0.0,0.0,0.0,0.0,0.0,0.0,0.0,-1.4115,-1.4564,0.0,-1.5467,-1.5658,-1.5899,-1.6217,-1.686,-1.7569,-1.8398,-1.8826,-1.9279,-1.991,-2.0391,-2.0753,-2.0953,-2.1141,-2.1256,-2.1363,-2.1363,-2.1363,-2.1363,-2.1363,-2.1256,-2.1114,-2.1114,-2.0846,-2.0365,-1.9907,-1.9158,-1.8277,-1.8143,-1.8023,-1.7876,-1.8063,-1.8196,-1.829,-1.829,-1.8357,-1.8343,-1.7729,-1.7262,-1.6954,-1.6954,-1.6834,-1.6698,-1.6698,-1.6645,-1.6618,-1.6805,-1.6939,-1.706,-1.7247,-1.7153,-1.6993,-1.6911,-1.6632,-1.6273,-1.5909,-1.5294,-1.4798,-1.4691,-1.4584,-1.4496,-1.4496,-1.4611,-1.4705,-1.4812,-1.4919,-1.4946,-1.4839,-1.4397,-1.4001,-1.3788,-1.334,-1.2764,-1.2075,-1.1936,-1.1488,-1.0537,-1.0161,-0.9649,-0.8902,-0.8356,-0.7696,0.0,0.0,0.0,0.0,0.0,0.0,0.0,0.0,0.0,0.0,0.0,0.0,0.0,0.0,0.0,0.0,0.0,0.0,0.0,0.0,0.0,0.0,0.0,0.0,0.0,0.0,-1.4231,-1.5789,-1.6257,-1.6673,-1.7287,-1.7515,-1.7769,-1.8184,-1.8651,-1.9279,-2.0097,-2.0311,-2.0646,-2.1127,-2.1529,-2.1783,-2.1877,-2.2031,-2.2124,-2.2124,-2.2124,-2.2084,-2.1991,-2.1991,-2.1917,-2.1729,-2.1729,-2.1515,-2.1141,-2.1047,-2.0539,-1.9786,-1.945,-1.9223,-1.9105,-1.9263,-1.933,-1.933,-1.9252,-1.9158,-1.8985,-1.8476,-1.8116,-1.7889,-1.7889,-1.7782,-1.7635,-1.7635,-1.7488,-1.7355,-1.7582,-1.7555,-1.7502,-1.7689,-1.7541,-1.7326,-1.7219,-1.702,-1.6767,-1.6498,-1.5896,-1.536,-1.5173,-1.5133,-1.5133,-1.5133,-1.5133,-1.5173,-1.5267,-1.528,-1.524,-1.5146,-1.4785,-1.4424,-1.4129,-1.3734,-1.3173,-1.2382,-1.2337,-1.186,-1.0781,-1.0539,-1.0015,-0.9119,-0.8419,-0.7737,-0.7092,0.0,0.0,0.0,0.0,0.0,0.0,0.0,0.0,0.0,0.0,0.0,0.0,0.0,0.0,0.0,0.0,0.0,0.0,0.0,0.0,0.0,0.0,0.0,-1.266,-1.4264,-1.596,-1.7579,-1.8232,-1.8784,-1.9401,-1.9455,-1.9666,-2.0197,-2.0548,-2.1007,-2.1596,-2.1622,-2.177,-2.2064,-2.2077,-2.2178,-2.2425,-2.2425,-2.2425,-2.2425,-2.2411,-2.2298,-2.2031,-2.2017,-2.2004,-2.2004,-2.2004,-2.2024,-2.1964,-2.1716,-2.1628,-2.1502,-2.0601,-2.0224,-2.0224,-2.0224,-2.0224,-2.017,-1.992,-1.9655,-1.9361,-1.9038,-1.8744,-1.8517,-1.8517,-1.8517,-1.8504,-1.8504,-1.8504,-1.849,-1.849,-1.8249,-1.8009,-1.8009,-1.7822,-1.7541,-1.7286,-1.7219,-1.71,-1.678,-1.6524,-1.6136,-1.5524,-1.5418,-1.5404,-1.5404,-1.5404,0.0,-1.5768,-1.5808,-1.5701,-1.5444,-1.5404,-1.5057,-1.4202,-1.4108,-1.3688,-1.2688,-1.261,-1.2178,-1.1232,-1.099,-1.0384,-0.9316,-0.8053,-0.7309,-0.7116,0.0,0.0,0.0,0.0,0.0,0.0,0.0,0.0,0.0,0.0,0.0,0.0,0.0,0.0,0.0,0.0,0.0,0.0,0.0,0.0,0.0,0.0,-1.3353,-1.3992,-1.5793,-1.7594,-1.9055,-1.9743,-2.0258,-2.0588,-2.086,-2.1047,-2.1208,-2.1489,-2.1917,-2.2505,-2.2532,-2.2773,-2.3295,-2.3308,-2.3348,-2.3394,-2.3429,-2.3429,-2.3394,-2.318,-2.2998,-2.2953,-2.2726,-2.2532,-2.2298,-2.2298,-2.2178,-2.1977,-2.193,-2.1783,-2.1542,-2.1042,-2.0837,-2.0837,-2.0837,-2.0735,-2.0508,-2.0184,-1.992,-1.9639,-1.9374,-1.9214,-1.916,-1.916,-1.8971,-1.8783,-1.8783,-1.8651,-1.849,-1.849,-1.8437,-1.837,-1.837,-1.8116,-1.7876,-1.7796,-1.7622,-1.7408,-1.7113,-1.6993,-1.6777,-1.6163,-1.5858,-1.5688,-1.5688,-1.5688,0.0,-1.5795,-1.5808,-1.5781,-1.5688,-1.5524,-1.5297,-1.5057,-1.4643,-1.405,-1.323,-1.2861,-1.216,-1.1022,-1.0607,-0.9957,-0.9022,-0.8042,-0.7514,0.0,0.0,0.0,0.0,0.0,0.0,0.0,0.0,0.0,0.0,0.0,0.0,0.0,0.0,0.0,0.0,0.0,0.0,0.0,0.0,0.0,0.0,-1.3122,-1.4988,-1.6129,-1.7579,-1.9046,-2.038,-2.1056,-2.1523,-2.1817,-2.2111,-2.2385,-2.2505,-2.2679,-2.292,-2.3255,-2.3281,-2.3442,-2.379,-2.3803,-2.387,-2.3991,-2.3991,-2.3991,-2.3991,-2.3781,-2.3532,-2.3278,-2.314,-2.2886,-2.2605,-2.2605,-2.2512,-2.2372,-2.2218,-2.1991,-2.1743,0.0,0.0,0.0,0.0,-2.1002,-2.0802,-2.0344,-2.009,-1.9907,-1.9535,-1.9401,-1.9401,-1.9401,-1.9267,-1.9105,-1.9105,-1.8985,-1.8893,-1.8893,-1.8771,-1.8677,-1.8677,-1.8423,-1.8209,-1.8209,-1.809,-1.7903,-1.7582,-1.7448,0.0,-1.6764,-1.6324,-1.6019,-1.6019,-1.5888,-1.5808,-1.5808,-1.5808,-1.5808,-1.5808,-1.5648,-1.5524,-1.5404,-1.4993,0.0,0.0,0.0,-1.225,-1.0837,-1.006,0.0,0.0,0.0,-0.7775,-0.7731,-0.736,0.0,0.0,-0.6924,-0.6864,0.0,0.0,0.0,0.0,0.0,0.0,0.0,0.0,0.0,0.0,0.0,0.0,0.0,0.0,0.0,0.0,-1.4536,-1.6722,-1.8518,-1.9468,-2.0393,-2.1599,-2.2231,-2.2672,-2.2974,-2.322,-2.3487,-2.379,-2.3803,-2.3817,-2.3857,-2.3857,0.0,0.0,0.0,-2.3995,-2.4249,-2.4249,-2.4249,-2.4249,-2.4222,-2.3928,-2.3385,-2.3319,-2.318,-2.2947,-2.2907,-2.2893,-2.288,-2.2579,-2.2285,-2.1984,-2.1662,-2.1368,-2.1109,-2.1109,-2.1109,-2.1029,-2.041,0.0,0.0,-1.9589,-1.9401,-1.9401,-1.9401,-1.9401,-1.9401,-1.9401,-1.9401,-1.9401,-1.9401,-1.9172,-1.8943,-1.8943,-1.8758,-1.8544,-1.8544,-1.8517,-1.841,-1.8116,-1.7876,-1.7622,-1.7353,-1.6765,-1.6351,-1.6351,-1.6072,-1.5861,-1.5861,-1.5821,-1.5808,-1.5808,-1.5784,0.0,-1.5425,-1.5127,-1.4628,-1.3863,-1.3236,-1.2201,-1.0625,-0.9531,-0.8891,-0.8799,-0.8352,-0.8038,-0.7895,-0.7691,-0.7597,-0.759,-0.7296,-0.7146,0.0,0.0,0.0,0.0,0.0,0.0,0.0,0.0,0.0,0.0,0.0,0.0,0.0,0.0,0.0,-1.3593,-1.616,-1.8404,-1.963,-2.0816,-2.1792,-2.2406,-2.309,-2.3527,-2.3629,-2.3683,-2.375,-2.3803,-2.3803,-2.391,-2.4102,-2.4115,-2.4222,-2.4426,-2.4439,-2.4452,-2.4519,-2.4519,-2.4519,-2.4519,-2.4315,0.0,-2.4022,-2.3505,-2.3265,-2.322,-2.3,-2.2893,-2.2893,-2.284,-2.2492,-2.1937,-2.1403,-2.1162,-2.1109,-2.1109,-2.1109,-2.1029,-2.041,-2.0197,-2.0104,-1.9589,-1.9401,-1.9401,-1.9401,-1.9401,0.0,-1.9401,-1.9401,-1.9401,-1.9401,-1.9348,-1.9308,-1.9308,-1.9052,-1.881,-1.881,-1.8651,-1.8477,-1.8424,-1.8357,-1.8223,-1.7902,-1.7181,-1.662,-1.662,-1.6366,-1.6217,-1.6217,-1.5979,-1.5808,-1.5808,-1.5666,-1.5544,-1.5492,-1.4988,-1.4452,-1.3903,-1.2468,-1.1237,-1.0311,-0.9653,-0.9114,-0.873,-0.8404,-0.8147,-0.7895,-0.7691,-0.7597,-0.7597,-0.7536,-0.7509,0.0,0.0,0.0,0.0,0.0,0.0,0.0,0.0,0.0,0.0,0.0,-0.8958,0.0,0.0,-1.3345,-1.4721,-1.6872,-1.8711,-1.9806,-2.11,-2.2185,-2.2873,-2.3379,-2.3766,-2.3995,-2.4115,-2.4209,-2.4209,-2.4209,-2.4262,-2.4372,-2.4556,-2.4636,-2.4599,-2.4746,-2.4783,-2.4599,-2.4599,-2.4599,-2.4599,-2.4452,-2.4342,-2.4195,-2.3901,-2.3688,-2.3527,-2.322,-2.31,-2.3073,-2.2766,-2.2378,-2.197,-2.1529,-2.1243,-2.1109,-2.1109,-2.1109,-2.1042,-2.0601,-2.0454,-2.0388,-1.9947,-1.98,-1.98,-1.98,-1.98,-1.98,-1.98,-1.98,-1.9773,-1.9655,-1.9615,-1.9575,-1.9428,-1.9281,-1.9145,-1.9145,-1.9025,-1.892,-1.8731,-1.8564,-1.8346,-1.8056,-1.7406,-1.6911,-1.6943,-1.6673,-1.6433,-1.631,-1.6139,-1.5992,-1.5821,-1.5618,-1.5452,-1.5309,-1.4397,-1.353,-1.2791,-1.1596,-1.0632,-1.0021,-0.9511,-0.9066,-0.8649,-0.8515,-0.829,-0.7959,-0.7838,-0.7797,-0.7797,-0.7797,-0.7716,0.0,0.0,0.0,0.0,0.0,0.0,0.0,0.0,-0.8235,-0.8655,-0.937,-1.0179,-1.1071,-1.2718,-1.4334,-1.5569,-1.7247,-1.8675,-1.9606,-2.0908,-2.2117,-2.2955,-2.3414,-2.3851,-2.4252,-2.4466,-2.4599,-2.4599,-2.4599,-2.4626,-2.4679,-2.4957,-2.4997,-2.4773,-2.4983,-2.497,-2.4693,-2.4626,-2.4599,-2.4599,-2.4599,-2.4479,-2.4289,-2.4222,-2.4075,-2.387,-2.3487,-2.3252,-2.3193,-2.2712,-2.2298,-2.1964,-2.1756,-2.1448,-2.1109,-2.1109,-2.1109,-2.1069,-2.0775,-2.0712,-2.0628,-2.0304,-2.0197,-2.0197,-2.0197,-2.0197,-2.0197,-2.0197,-2.0197,-2.0144,-1.9947,-1.988,-1.9826,-1.9615,-1.9562,-1.9519,-1.9394,-1.9381,-1.9243,-1.8808,-1.85,-1.8182,-1.7787,-1.7316,-1.7026,-1.7108,-1.6805,-1.6515,-1.6264,-1.6221,-1.61,-1.5785,-1.5458,-1.5073,-1.4604,-1.3534,-1.2492,-1.159,-1.0811,-1.0224,-0.9766,-0.9299,-0.8886,-0.8566,-0.8566,-0.8388,-0.7988,-0.7988,-0.7988,-0.7988,-0.7988,-0.7891,-0.6668,-0.6796,-0.7066,-0.7394,-0.7825,-0.8185,0.0,0.0,-0.9293,-0.9605,-1.0576,-1.1578,-1.2277,-1.3891,-1.5324,-1.6033,-1.7636,-1.8999,-1.9482,-2.0632,-2.1691,-2.2423,-2.3382,-2.4103,-2.4509,-2.4586,-2.4599,-2.4599,-2.4599,-2.4719,-2.5024,-2.5064,-2.5184,-2.5411,-2.5197,-2.5064,-2.5037,-2.4733,-2.4599,-2.4599,-2.4599,-2.4586,-2.4546,-2.4329,-2.4182,-2.4128,-2.3532,-2.3166,-2.2947,-2.288,-2.2519,-2.201,-2.1984,-2.1603,-2.1109,-2.1109,-2.1109,-2.1069,-2.0775,-2.0712,-2.0628,-2.0304,-2.0197,-2.0197,-2.0197,-2.0197,-2.0197,-2.0197,-2.0197,-2.0197,-2.0157,-2.0157,-2.0144,-2.0117,-2.0104,-1.9963,-1.943,-1.9318,-1.905,-1.8169,-1.7973,-1.7712,-1.6908,-1.6689,-1.6669,-1.6748,-1.6478,-1.6178,-1.5969,-1.5948,-1.5832,-1.5551,-1.4863,-1.3958,-1.2794,-1.2346,-1.1883,-1.1272,-1.0485,-0.9911,-0.9649,-0.91,-0.8706,-0.8432,-0.8432,-0.829,-0.7988,-0.7988,-0.7988,-0.7988,-0.7988,-0.7975,-0.7082,-0.7305,-0.7641,0.0,-0.8716,-0.9157,-0.9557,-1.0084,-1.0533,-1.0806,-1.1565,-1.2293,-1.2685,-1.3833,-1.4963,0.0,-1.6961,-1.8116,-1.8866,-2.0052,-2.1045,-2.1676,-2.258,-2.344,-2.4056,-2.4289,-2.4382,-2.4382,-2.4703,-2.4957,-2.5077,-2.5449,-2.561,-2.5518,-2.5398,-2.5251,-2.5115,-2.4783,-2.4599,-2.4599,-2.4599,-2.4599,-2.4599,-2.4479,-2.4369,-2.4182,-2.3768,-2.342,-2.3113,-2.2974,-2.2546,-2.1991,-2.1991,-2.163,-2.1109,-2.1109,-2.1109,-2.1096,-2.0975,-2.0922,-2.0909,-2.0788,-2.0717,-2.0717,-2.0717,-2.0717,-2.0717,-2.0717,-2.0717,-2.0708,-2.0535,-2.0494,-2.0441,-2.0237,-2.0059,-1.9806,-1.9331,-1.8943,-1.8482,-1.7889,-1.7236,-1.6619,-1.625,-1.5486,-1.4873,-1.4749,-1.5361,-1.5779,-1.5577,-1.5553,-1.5239,-1.4415,-1.3775,-1.2858,-1.1585,-1.1223,-1.0781,-1.0068,-0.9723,-0.9402,-0.9154,-0.8924,-0.8676,-0.8411,-0.8404,-0.8262,-0.7988,-0.7988,-0.7988,-0.7988,-0.7988,-0.7988,-0.758,-0.792,0.0,-0.9041,-0.9616,-1.0175,-1.0683,-1.1186,-1.1574,-1.1762,-1.2268,-1.2726,-1.2958,-1.3587,-1.4361,-1.5169,-1.6133,-1.7114,-1.8054,-1.9259,-2.0276,-2.0841,-2.1689,-2.2464,-2.3091,-2.378,-2.4209,-2.4209,-2.4743,-2.5117,-2.5197,-2.5717,-2.5931,-2.5758,-2.5598,-2.5411,-2.5197,-2.4786,-2.4599,-2.4599,-2.4599,-2.4599,-2.4599,-2.4599,-2.4399,-2.4075,-2.3897,-2.3554,-2.318,-2.2987,-2.2599,-2.2098,-2.2017,-2.167,-2.1216,-2.1136,-2.1109,-2.1109,-2.1109,-2.1109,-2.1109,-2.1109,-2.1109,-2.1109,-2.1109,-2.1109,-2.1109,-2.1109,-2.1109,-2.1069,-2.0855,-2.0739,-2.0624,-2.0381,-1.9976,-1.9532,-1.9043,-1.8372,-1.77,-1.7013,-1.6078,-1.5339,-1.5034,-1.4075,-1.3264,-1.2915,-1.3829,-1.4568,-1.4647,-1.4689,-1.4288,-1.3133,-1.2551,-1.1759,-1.055,-1.0217,-0.9797,-0.913,-0.9006,-0.8882,-0.8701,-0.8627,-0.8478,-0.8287,-0.8287,-0.8187,-0.7988,-0.7988,-0.7988,-0.7988,-0.7988,-0.7988,-0.8151,0.0,-0.9288,-0.9832,-1.0568,-1.1234,-1.1511,-1.1932,-1.2257,-1.2271,-1.2612,-1.2965,-1.3161,-1.3412,-1.3877,-1.4602,-1.5392,-1.6212,-1.7048,-1.8364,-1.9399,-1.9782,-2.0671,-2.1305,0.0,-2.3139,-2.4209,-2.4209,-2.4743,-2.5197,-2.5478,-2.5824,-2.6118,-2.6346,-2.5812,-2.5504,-2.5504,-2.4893,-2.4599,-2.4599,-2.4599,-2.4599,-2.4599,-2.4599,-2.4329,-2.3817,-2.3803,-2.3469,-2.2907,-2.2893,-2.2719,-2.2345,-2.2098,-2.1836,-2.1542,-2.1216,-2.1109,-2.1109,-2.1109,-2.1109,-2.1109,-2.1109,-2.1109,-2.1109,-2.1109,-2.1109,-2.1109,-2.1109,-2.1109,-2.1109,-2.1096,-2.0843,-2.0589,-2.0589,-2.0068,-1.9357,-1.8427,-1.7645,-1.6654,-1.5108,-1.4498,-1.3902,-1.2794,-1.2583,-1.2392,-1.1927,-1.1894,-1.2171,-1.2888,-1.3135,-1.2891,-1.1859,-1.1377,-1.071,-0.9622,-0.9355,-0.9105,-0.8825,-0.8577,-0.8435,-0.8411,-0.8162,-0.8013,-0.8013,-0.8013,-0.8013,-0.7988,-0.7988,-0.7988,-0.7988,-0.7988,-0.7988,-0.8736,0.0,-1.0188,-1.0792,-1.143,-1.1986,-1.2291,-1.2556,-1.2744,-1.2603,-1.2542,-1.2464,-1.2312,-1.2187,-1.2445,-1.3317,-1.4097,-1.5043,-1.6165,-1.7369,-1.8353,-1.8876,-1.9827,0.0,0.0,0.0,0.0,-2.3148,-2.4027,-2.4724,-2.5084,-2.5583,-2.6043,-2.6386,-2.5825,-2.5518,-2.5518,-2.4893,-2.4599,-2.4599,-2.4599,-2.4599,-2.4599,-2.4599,-2.4386,-2.4048,-2.3884,-2.3541,-2.3153,-2.2987,-2.2686,-2.2371,-2.2311,-2.1977,-2.1537,-2.1186,-2.0931,-2.0792,-2.1014,-2.1109,-2.1109,-2.1109,-2.1109,-2.1109,-2.1109,-2.1109,-2.1046,-2.0824,-2.0761,-2.0729,-2.0488,-2.0361,-2.0202,-1.9998,-1.922,-1.8332,-1.7578,-1.6294,-1.5071,-1.4336,-1.3407,-1.2634,-1.2226,-1.1619,-1.1071,-1.0845,-1.1415,-1.1904,-1.2093,-1.2019,-1.1653,-1.0926,-1.0571,-0.9988,-0.905,-0.8907,-0.87,-0.8293,-0.8187,-0.8137,-0.8137,-0.8038,-0.7988,-0.7988,-0.7988,-0.7988,-0.7988,-0.7988,-0.7988,-0.7988,-0.7988,-0.7988,-0.9471,-1.024,-1.0968,-1.1626,-1.2162,-1.2596,-1.2834,-1.2922,-1.2914,-1.2556,-1.2169,-1.1775,-1.1416,-1.1111,-1.1233,-1.2115,-1.2945,-1.3887,-1.5047,-1.6198,-1.7178,-1.7729,-1.8849,-1.9618,0.0,0.0,0.0,-2.2089,-2.3054,-2.3816,-2.4239,-2.5087,-2.5753,-2.6149,-2.5841,-2.5678,-2.5678,-2.494,-2.4372,-2.397,-2.4119,-2.4119,-2.397,-2.4267,-2.4203,-2.3855,-2.3812,-2.3576,-2.314,-2.2974,-2.2786,-2.2531,-2.229,-2.2025,-2.1628,-2.0999,-2.0539,-2.0328,-2.0508,-2.057,-2.0539,-2.0412,-2.038,-2.038,-2.038,-2.038,-2.0348,-2.0125,-2.0062,-1.9998,-1.9819,-1.9552,-1.9264,-1.8932,-1.7925,-1.6893,-1.6213,-1.487,-1.3702,-1.3251,-1.2375,-1.1663,-1.1506,-1.0844,-1.0277,-1.0147,-1.0703,-1.1175,-1.1199,-1.1061,-1.0711,-1.0116,-0.9842,-0.9428,-0.8751,-0.8613,-0.8452,-0.8201,-0.8121,-0.8121,-0.8169,-0.8169,-0.8169,-0.8169,-0.8169,-0.8169,-0.8169,-0.8169,-0.8169,-0.8169,-0.8169,-0.8169,-1.0317,-1.1009,-1.164,-1.2359,-1.2759,-1.305,-1.3166,-1.3064,-1.2771,-1.2166,-1.1547,-1.0982,0.0,0.0,-1.0298,-1.1126,-1.1971,-1.2854,-1.3738,-1.4944,-1.5947,0.0,0.0,0.0,0.0,0.0,0.0,-2.089,-2.1772,-2.2513,-2.299,-2.43,-2.5224,-2.5713,-2.5871,-2.5959,-2.592,-2.4927,-2.3856,-2.2756,-2.3129,-2.3116,-2.2806,-2.3587,-2.3695,-2.3233,-2.3625,-2.3455,-2.2859,-2.2859,-2.2859,-2.2764,-2.2112,-2.1826,-2.1652,-2.0613,-2.0002,-1.9673,-1.9471,-1.9461,-1.9493,-1.916,-1.9064,-1.9064,-1.9052,-1.904,-1.904,-1.9008,-1.8976,-1.8976,-1.8944,-1.8419,-1.7808,-1.7475,-1.6343,-1.514,-1.4479,-1.3506,-1.2528,-1.1876,-1.1446,-1.1033,-1.0586,-1.0224,-0.9981,-0.9825,-0.9798,-0.9924,-1.0208,-1.025,-1.0039,-0.9453,-0.9274,-0.904,-0.8736,-0.8478,-0.8369,-0.8498,-0.8383,-0.8369,-0.8505,-0.8505,-0.8505,-0.8505,-0.8505,-0.8505,-0.8505,-0.8505,-0.8505,-0.8505,-0.8505,-0.8505,-1.1246,-1.2013,-1.2669,-1.2969,-1.3146,-1.3214,-1.2908,-1.2467,-1.1915,-1.132,-1.0575,-0.9937,0.0,0.0,0.0,-1.0488,-1.1203,0.0,-1.2934,-1.4194,0.0,-1.5733,0.0,-1.7642,-1.7844,-1.7712,0.0,0.0,-1.9655,-2.109,-2.1868,-2.3039,-2.4016,-2.4826,-2.523,-2.5322,-2.5049,-2.3878,-2.2955,-2.2208,-2.2271,-2.2315,-2.2384,-2.3178,-2.3439,-2.3233,-2.3625,-2.328,-2.2448,-2.2448,-2.2138,-2.1622,-2.1443,-2.0916,-2.0175,-1.9356,-1.8676,-1.7993,-1.6848,-1.7507,-1.8823,-1.8561,-1.8503,-1.8469,-1.8316,-1.8291,-1.8162,-1.7679,-1.755,-1.7421,-1.6926,-1.6667,-1.6408,-1.6019,-1.5075,-1.417,-1.3744,-1.2593,-1.1578,-1.138,-1.1082,-1.0769,-1.0553,-1.0344,-1.0168,-0.9981,-0.9866,-0.9784,-0.9778,-0.9683,-0.9537,-0.9286,-0.9078,-0.8886,-0.8716,-0.8642,-0.8567,-0.8512,-0.8478,-0.8471,-0.8505,-0.8505,-0.8505,-0.8505,-0.8505,-0.8505,-0.8505,-0.8505,-0.8505,-0.8505,-0.8505,-0.8505,-1.2101,-1.2732,-1.3207,-1.341,-1.3383,-1.318,-1.2732,-1.2067,-1.1328,-1.0569,-0.9765,0.0,-0.8845,-0.871,0.0,0.0,0.0,0.0,-1.2158,-1.3282,-1.4198,0.0,-1.5768,0.0,-1.6629,-1.6481,-1.6251,0.0,-1.7747,-1.9104,-1.9813,-2.1235,-2.2453,-2.3336,-2.4028,-2.4091,-2.3548,-2.2725,-2.1651,-2.038,-2.0523,-2.0505,-2.0402,-2.147,-2.1946,-2.1918,-2.2413,-2.2214,-2.1587,-2.1415,-2.1091,-2.0688,-2.0156,-1.9611,-1.9002,-1.793,-1.7188,-1.657,-1.5385,-1.5662,-1.6545,-1.653,-1.6552,-1.6532,-1.641,-1.6341,-1.6226,-1.5833,-1.5675,-1.5541,-1.5173,-1.4945,-1.4707,-1.4357,-1.3613,-1.2898,-1.2495,-1.1677,-1.0982,-1.0982,-1.0817,-1.067,-1.0521,-1.0426,-1.0297,-1.0049,-0.9947,-0.9839,-0.969,-0.9571,-0.9424,-0.9234,-0.9111,-0.8974,-0.8798,-0.8723,-0.8703,-0.8682,-0.8621,-0.8615,-0.8682,-0.8682,-0.8682,-0.8682,-0.8682,-0.8682,-0.8682,-0.8682,-0.8682,-0.8682,-0.8682,-0.8682,-1.2887,-1.3268,-1.3539,-1.3714,-1.3478,-1.3037,-1.2447,-1.1662,-1.0757,-0.9802,0.0,-0.8411,-0.8,-0.8079,-0.841,-0.9022,0.0,-1.0663,-1.1387,-1.2396,-1.325,-1.3835,-1.4734,-1.5297,-1.5321,-1.5425,-1.5358,-1.4992,-1.6007,-1.6857,-1.7454,-1.924,-2.0718,-2.1768,-2.2413,-2.247,-2.1896,-2.134,-2.0064,-1.8106,-1.8445,-1.8356,-1.7882,-1.9346,-1.9995,-2.0102,-2.071,-2.0767,-2.0388,-2.0017,-1.9773,-1.9483,-1.8482,-1.8016,-1.77,-1.6407,-1.5629,-1.5195,-1.4457,-1.3967,-1.3741,-1.4086,-1.4207,-1.4207,-1.4182,-1.4086,-1.399,-1.3923,-1.3827,-1.3689,-1.3656,-1.3367,-1.3021,-1.2758,-1.2165,-1.1611,-1.128,-1.0949,-1.0684,-1.0684,-1.0684,-1.0644,-1.0548,-1.0507,-1.0405,-1.0116,-1.0042,-0.9967,-0.9839,-0.9677,-0.951,-0.9274,-0.9226,-0.9152,-0.8953,-0.8845,-0.8818,-0.8906,-0.8784,-0.877,-0.8906,-0.8912,-0.8912,-0.8912,-0.8912,-0.8912,-0.8912,-0.8912,-0.8912,-0.8912,-0.8912,-0.8912,-1.3301,-1.3729,-1.3912,-1.3673,-1.3329,-1.2758,-1.1676,-1.0697,0.0,0.0,-0.8063,-0.76,-0.7525,-0.7611,-0.795,-0.8669,-0.9435,-1.017,-1.0928,-1.2049,-1.293,0.0,-1.4171,-1.4685,-1.4821,-1.4538,0.0,0.0,-1.4477,-1.5087,-1.6221,-1.7678,-1.9328,-2.1243,-2.0788,-2.0605,-2.0867,-1.936,-1.8089,-1.7068,-1.7059,-1.7066,-1.7046,-1.8638,-1.9335,-1.934,-2.0093,-1.981,-1.8797,-1.8727,-1.7981,-1.6856,-1.6654,-1.6018,-1.5097,-1.4537,-1.4039,-1.3611,-1.2832,-1.2553,-1.2623,-1.3434,-1.3719,-1.3686,-1.3512,-1.3446,-1.3379,-1.3038,-1.2843,-1.2675,-1.2388,-1.2214,-1.2041,-1.1975,-1.1644,-1.128,-1.1214,-1.0949,-1.0684,-1.0684,-1.0684,-1.0677,-1.0683,-1.0575,-1.0473,-1.0426,-1.0177,-0.9977,-0.9981,-0.9744,-0.9591,-0.9537,-0.9444,-0.9308,-0.9158,-0.9117,-0.9063,-0.8919,-0.8885,-0.8885,-0.8912,-0.8912,-0.8912,-0.8912,-0.8912,-0.8912,-0.8912,-0.8912,-0.8912,-0.8912,-0.8912,-0.8912,-1.3443,-1.3783,-1.3899,-1.3639,-1.3119,-1.2377,-1.1287,0.0,0.0,0.0,-0.7556,-0.7143,-0.7143,-0.7394,0.0,-0.8384,-0.9171,-0.9944,-1.0616,-1.1564,0.0,-1.2873,-1.3469,-1.3888,0.0,-1.3852,-1.3735,-1.3735,-1.3735,-1.4108,-1.4968,-1.6229,-1.7542,-1.8808,-1.8676,-1.8554,-1.8573,-1.7501,-1.6454,-1.5496,-1.5416,-1.5301,-1.522,-1.6299,-1.6899,-1.712,-1.7583,-1.7451,-1.6867,-1.6661,-1.6156,-1.547,-1.5003,-1.4502,-1.3954,-1.3256,-1.2904,-1.2653,-1.2086,-1.1907,-1.1965,-1.2415,-1.257,-1.2555,-1.2446,-1.2357,-1.2256,-1.2082,-1.1924,-1.1801,-1.1637,-1.1553,-1.1475,-1.1363,-1.1145,-1.0949,-1.0949,-1.0817,-1.0684,-1.0684,-1.0684,-1.0684,-1.0684,-1.0656,-1.0582,-1.0507,-1.0371,-1.0224,-1.0181,-0.9947,-0.9751,-0.9625,-0.9544,-0.9435,-0.9315,-0.9301,-0.924,-0.9062,-0.9049,-0.9015,-0.8912,-0.8912,-0.8912,-0.8912,-0.8912,-0.8912,-0.8912,-0.8912,-0.8912,-0.8912,-0.8912,-0.8912,-1.341,-1.3639,-1.3741,-1.3546,-1.2861,-1.1972,-1.0907,-0.971,0.0,0.0,-0.7181,-0.6823,-0.685,-0.7175,-0.7611,0.0,-0.8872,-0.9625,-1.0222,-1.1077,-1.1786,0.0,-1.2786,0.0,-1.3336,-1.3383,0.0,-1.3403,-1.3403,-1.3611,-1.4066,-1.5051,-1.5867,-1.641,-1.6648,-1.664,-1.6402,-1.5827,-1.5041,-1.4149,-1.4032,-1.387,-1.3583,-1.4243,-1.4687,-1.4947,-1.5217,-1.5271,-1.5126,-1.4794,-1.4543,-1.4342,-1.3662,-1.3329,-1.3137,-1.2395,-1.2115,-1.2015,-1.1727,-1.1584,-1.1584,-1.1584,-1.1584,-1.1584,-1.1584,-1.1538,-1.1443,-1.1443,-1.1363,-1.1247,-1.1247,-1.122,-1.1166,-1.0988,-1.0846,-1.0738,-1.0738,-1.0711,-1.0684,-1.0684,-1.0684,-1.0684,-1.0684,-1.0684,-1.0644,-1.0561,-1.0514,-1.0453,-1.0369,-1.0195,-0.9981,-0.9774,-0.9693,-0.9591,-0.9442,-0.9429,-0.9396,-0.924,-0.9233,-0.9179,-0.9007,-0.9007,-0.9007,-0.9007,-0.9007,-0.9007,-0.9007,-0.9007,-0.9007,-0.9007,-0.9007,-0.9007,-1.3091,-1.3519,-1.3666,-1.3159,-1.2588,-1.1737,-1.0256,0.0,0.0,-0.7195,-0.6749,-0.658,-0.6695,-0.685,-0.7154,0.0,0.0,-0.9001,-0.9605,-1.0434,-1.1212,-1.1786,0.0,0.0,-1.3207,-1.3322,-1.3403,-1.3403,-1.3403,-1.3611,-1.4066,-1.419,-1.4645,-1.5505,-1.5126,-1.5126,-1.5505,-1.4531,-1.3882,-1.3662,-1.3487,-1.329,-1.3197,-1.4022,-1.4312,-1.4134,-1.4571,-1.4474,-1.3942,-1.3905,-1.3468,-1.2806,-1.2717,-1.2395,-1.194,-1.1853,-1.1764,-1.1655,-1.1619,-1.1584,-1.1584,-1.1584,-1.1584,-1.1584,-1.1584,-1.157,-1.1563,-1.1563,-1.1491,-1.1369,-1.1369,-1.1302,-1.1193,-1.1179,-1.1029,-1.0894,-1.0894,-1.0786,-1.0684,-1.0684,-1.0684,-1.0684,-1.0684,-1.0684,-1.0717,-1.0671,-1.0582,-1.0487,-1.0473,-1.0344,-1.0249,-1.0254,-0.9964,-0.971,-0.9598,-0.9591,-0.9523,-0.9396,-0.939,-0.9383,-0.9369,-0.934,-0.934,-0.934,-0.934,-0.934,-0.934,-0.934,-0.934,-0.934,-0.934,-0.934,-1.2506,-1.2901,-1.3051,-1.2766,-1.2139,-1.1234,-0.9971,0.0,-0.7862,-0.7066,-0.662,-0.6437,-0.6654,-0.6803,-0.7073,0.0,0.0,0.0,-0.9109,-0.9866,-1.063,-1.1348,-1.1959,0.0,0.0,0.0,-1.3302,-1.3397,-1.3485,-1.3582,-1.3659,-1.3694,-1.3859,-1.4183,-1.4018,-1.4018,-1.4183,-1.3698,-1.3382,-1.3236,-1.3037,-1.2885,-1.2733,-1.312,-1.3199,-1.3104,-1.3295,-1.3259,-1.3003,-1.3003,-1.282,-1.2547,-1.2457,-1.2258,-1.1959,-1.1827,-1.1705,-1.1584,-1.1584,-1.1584,-1.1584,-1.1584,-1.1584,-1.1584,-1.1584,-1.1584,-1.1584,-1.1584,-1.1572,-1.1531,-1.1531,-1.1416,-1.1336,-1.1336,-1.1185,-1.1077,-1.1077,-1.1029,-1.0989,-1.0989,-1.0989,-1.0962,-1.084,-1.0826,-1.0792,-1.0698,-1.0637,-1.0629,-1.0629,-1.05,-1.0405,-1.0405,-1.0222,-1.0039,-0.9859,-0.9846,-0.9744,-0.9537,-0.9517,-0.9476,-0.9417,-0.941,-0.941,-0.941,-0.941,-0.941,-0.941,-0.941,-0.941,-0.941,-0.941,-0.941,-1.1755,-1.2176,-1.2314,-1.2155,-1.1533,-1.0662,0.0,0.0,-0.7577,-0.6965,-0.6559,-0.6388,-0.6647,-0.6769,-0.6999,0.0,0.0,-0.8309,-0.8777,-0.9447,-1.0163,0.0,0.0,-1.2268,-1.2834,-1.3146,-1.3349,-1.3458,-1.3566,-1.3518,-1.341,-1.3403,-1.3403,-1.3403,-1.3403,-1.3376,-1.3336,-1.3227,-1.3077,-1.2895,-1.2739,-1.2603,-1.2501,-1.2501,-1.2501,-1.2501,-1.2501,-1.2501,-1.2501,-1.2501,-1.2501,-1.2488,-1.2345,-1.2234,-1.2077,-1.1884,-1.1705,-1.1584,-1.1584,-1.1584,-1.1584,-1.1584,-1.1584,-1.1584,-1.1584,-1.1584,-1.1584,-1.1584,-1.1584,-1.1584,-1.1584,-1.1538,-1.1457,-1.1457,-1.1376,-1.1261,-1.1261,-1.1227,-1.12,-1.12,-1.12,-1.1166,-1.0995,-1.0941,-1.088,-1.0772,-1.0718,-1.0684,-1.0684,-1.0622,-1.0561,-1.0561,-1.0473,-1.0331,-1.0103,-1.0082,-0.9981,-0.9724,-0.971,-0.9673,-0.9517,-0.951,-0.951,-0.951,-0.951,-0.951,-0.951,-0.951,-0.951,-0.951,-0.951,-0.951,-1.1002,-1.1396,-1.1558,-1.1288,-1.0764,-1.0043,0.0,-0.814,-0.7428,-0.6831,-0.6484,-0.6388,-0.6647,-0.6702,-0.6898,-0.7502,0.0,0.0,-0.8628,-0.9232,-0.989,0.0,0.0,-1.203,-1.2632,-1.3233,-1.3585,-1.3585,-1.3585,-1.3518,-1.341,-1.3403,-1.3403,-1.3403,-1.3403,-1.3329,-1.3214,-1.3071,-1.2888,-1.2693,-1.2576,-1.2501,-1.2501,-1.2501,-1.2501,-1.2501,-1.2501,-1.2501,0.0,-1.2501,-1.2501,-1.2488,-1.2345,-1.2234,-1.2077,-1.1884,-1.1705,-1.1584,-1.1584,-1.1584,-1.1584,-1.1584,-1.1584,-1.1584,-1.1584,-1.1584,-1.1584,-1.1584,-1.1584,-1.1584,-1.1584,-1.1619,-1.1619,-1.1619,-1.1497,-1.1389,-1.1389,-1.1302,-1.12,-1.12,-1.12,-1.12,-1.1193,-1.1043,-1.0914,-1.0914,-1.0786,-1.0684,-1.0684,-1.0684,-1.0684,-1.0684,-1.0684,-1.0595,-1.0335,-1.0308,-1.0209,-1.0021,-0.9984,-0.9947,-0.9792,-0.9785,-0.9785,-0.9785,-0.9785,-0.9785,-0.9785,-0.9785,-0.9785,-0.9785,-0.9785,-0.9785,-0.9798,-1.0236,-1.0468,-1.0297,-0.9907,-0.9322,-0.8419,-0.7729,-0.7121,-0.6668,-0.6429,-0.6361,-0.6532,-0.6627,-0.6865,-0.7382,-0.757,0.0,0.0,0.0,0.0,-1.0331,-1.1525,-1.2488,0.0,0.0,-1.3585,-1.3585,-1.3585,-1.3518,-1.341,-1.3403,-1.3403,-1.3403,-1.3302,-1.322,-1.3214,-1.2929,-1.2779,-1.2686,-1.2576,-1.2501,-1.2501,-1.2501,-1.2501,-1.2501,-1.2501,-1.2501,-1.2494,-1.24,-1.2359,-1.2345,-1.2227,-1.204,-1.1898,-1.1813,-1.1705,-1.1584,-1.1584,-1.1584,-1.1584,-1.1584,-1.1584,-1.1584,-1.1584,-1.1584,-1.1584,-1.1584,-1.1584,-1.1584,-1.1584,-1.1584,-1.1584,-1.1584,-1.1586,-1.1545,-1.1545,-1.1511,-1.1477,-1.1477,-1.1477,-1.1443,-1.1335,-1.128,-1.1219,-1.1111,-1.0934,-1.084,-1.084,-1.0752,-1.0684,-1.0684,-1.0684,-1.0636,-1.0439,-1.0426,-1.0365,-1.0215,-1.0209,-1.0109,-0.9954,-0.9947,-0.99,-0.9792,-0.9792,-0.9792,-0.9792,-0.9792,-0.9792,-0.9792,-0.9792,-0.9792,0.0,-0.9048,-0.9208,-0.9142,-0.8852,0.0,0.0,-0.7303,-0.6857,-0.6559,-0.6402,-0.6361,-0.6539,-0.6634,-0.6865,-0.7396,-0.7584,-0.7889,0.0,0.0,0.0,-1.0744,0.0,0.0,0.0,-1.3485,-1.3585,-1.3585,-1.3585,-1.3518,-1.341,-1.3349,-1.3315,-1.3315,-1.322,-1.3159,-1.3003,-1.278,-1.2659,-1.2605,-1.2549,-1.2501,-1.2501,-1.2501,-1.2501,-1.2501,-1.2501,-1.2474,0.0,-1.2325,-1.2257,-1.2227,-1.2033,-1.1918,-1.1786,-1.1732,-1.1658,-1.1584,-1.1584,-1.1584,-1.1584,-1.1584,-1.1584,-1.1584,-1.1584,-1.1584,-1.1584,-1.1584,-1.1584,-1.1584,-1.1584,-1.1584,-1.1584,-1.1584,-1.1584,-1.1584,-1.1584,-1.1584,-1.1584,-1.1584,-1.1584,-1.1556,-1.1491,-1.143,-1.1362,-1.1295,-1.1124,-1.0995,-1.0995,-1.0948,-1.0867,-1.0779,-1.0772,-1.0711,-1.0588,-1.0575,-1.0514,-1.0371,-1.039,-1.029,-1.0109,-1.0103,-1.0062,-0.9998,-0.9992,-0.9992,-0.9992,-0.9992,-0.9992,-0.9992,-0.9992,-0.9992,0.0,-0.7894,0.0,0.0,0.0,0.0,-0.7154,-0.687,0.0,-0.6505,-0.6402,-0.6402,-0.6634,-0.6709,-0.6919,-0.7489,-0.7719,-0.8031,0.0,-0.9273,0.0,0.0,-1.2334,-1.2868,-1.3356,-1.3532,-1.3572,-1.3585,-1.3578,-1.3546,-1.339,-1.3247,-1.3207,-1.3186,-1.3139,-1.301,-1.2693,-1.2679,-1.2605,-1.2501,-1.2501,-1.2501,-1.2501,-1.2501,-1.2501,-1.2501,-1.2488,-1.2413,-1.2291,-1.2264,-1.2176,-1.207,-1.1877,-1.178,-1.1759,-1.1631,-1.1584,-1.1584,-1.1584,-1.1584,-1.1584,-1.1584,-1.1584,-1.1584,-1.1584,-1.1584,-1.1584,-1.1584,-1.1584,-1.1584,-1.1584,-1.1584,-1.1584,-1.1584,-1.1584,-1.1584,-1.1584,-1.1584,-1.1584,-1.1584,-1.1584,-1.1584,-1.1584,-1.1504,-1.1409,-1.1409,-1.1308,-1.1213,-1.1213,-1.1206,-1.1145,-1.0948,-1.0921,-1.086,-1.0718,-1.0691,-1.0656,-1.0514,-1.0507,-1.0446,-1.0335,-1.0297,-1.0322,-1.0315,-1.0315,-1.0315,-1.0315,-1.0315,-1.0315,-1.0315,-1.0315,-1.0315,-0.6566,0.0,-0.7307,-0.7307,-0.7195,-0.7012,0.0,-0.6661,-0.6505,-0.6381,-0.6409,-0.6464,-0.6532,-0.6803,-0.71,-0.7403,-0.774,-0.8128,-0.8642,-0.969,0.0,-1.1884,-1.2433,-1.2868,-1.3356,-1.3437,-1.3505,-1.3578,-1.3519,-1.339,-1.3234,-1.3234,-1.3071,-1.284,-1.2834,-1.276,-1.2693,-1.2617,-1.2535,-1.2501,-1.2501,-1.2501,-1.2501,-1.2501,-1.2501,-1.2494,-1.2386,-1.2318,-1.2271,-1.2033,-1.1918,-1.187,-1.1728,-1.1631,-1.1631,-1.1597,-1.1584,-1.1584,-1.1584,-1.1584,-1.1584,-1.1584,-1.1584,-1.1584,-1.1584,-1.1584,-1.1584,-1.1584,-1.1584,-1.1584,-1.1584,-1.1584,-1.1584,-1.1584,-1.1584,-1.1584,-1.1584,-1.1584,-1.1584,-1.1584,-1.1584,-1.1584,-1.1584,-1.1556,-1.1565,-1.1565,-1.1436,-1.1335,-1.1335,-1.1268,-1.1186,-1.1118,-1.0982,-1.0901,-1.0867,-1.0752,-1.0704,-1.0637,-1.0663,-1.0602,-1.0446,-1.0439,-1.0392,-1.0315,-1.0315,-1.0315,-1.0315,-1.0315,-1.0315,-1.0315,-1.0315,-1.0315,-0.6273,-0.6607,-0.6837,-0.6837,-0.6809,-0.6782,-0.6722,-0.6634,-0.6573,-0.6498,-0.6546,-0.6641,-0.6756,-0.7034,-0.7366,-0.775,-0.8099,-0.8595,0.0,0.0,-1.1335,-1.2162,-1.2603,-1.2983,-1.3363,-1.3403,-1.3437,-1.3519,-1.3383,-1.3261,-1.322,-1.3044,-1.2895,-1.2693,-1.2625,-1.2623,-1.2623,-1.2542,-1.2501,-1.2501,-1.2501,-1.2501,-1.2501,-1.2433,-1.2406,-1.2393,-1.2288,-1.222,-1.2176,-1.2006,-1.1938,-1.1932,-1.185,-1.1823,-1.1823,-1.1823,-1.1823,-1.1809,-1.1705,-1.1638,-1.1584,-1.1584,-1.1584,-1.1584,-1.1584,-1.1584,-1.1584,-1.1584,-1.1584,-1.1584,-1.1584,-1.1584,-1.1584,-1.1584,-1.1584,-1.164,-1.1665,-1.1631,-1.1604,-1.1665,-1.1624,-1.1584,-1.1584,-1.1584,-1.1584,-1.1584,-1.1552,-1.1497,-1.1497,-1.1423,-1.1348,-1.1308,-1.1199,-1.1063,-1.0928,-1.084,-1.0765,-1.0691,-1.0684,-1.0683,-1.0602,-1.0595,-1.0561,-1.0487,-1.048,-1.048,-1.048,-1.048,-1.048,-1.048,-1.048,-1.048,-0.6375,-0.6512,-0.6525,-0.6525,-0.6627,-0.6702,-0.6702,0.0,0.0,0.0,0.0,0.0,0.0,-0.7373,-0.7716,-0.8274,-0.8662,-0.9306,-1.0432,-1.1077,-1.1701,-1.2447,-1.2826,-1.3118,-1.337,-1.3403,-1.339,-1.337,-1.3247,-1.3193,-1.3146,-1.2868,-1.2679,-1.2659,-1.2569,-1.2501,-1.2501,-1.2501,-1.2501,-1.2501,-1.2481,-1.2467,-1.2467,-1.2318,-1.2257,-1.225,-1.2159,0.0,-1.2098,-1.2098,-1.2098,-1.2098,-1.2098,-1.2098,-1.2098,-1.2098,-1.2098,-1.2077,-1.1911,-1.1739,-1.1617,-1.1617,-1.164,-1.1584,-1.1584,-1.1597,-1.1617,-1.1617,-1.1617,-1.1653,-1.1681,-1.1687,-1.1681,-1.1653,-1.1631,-1.1714,-1.1773,-1.1719,-1.1721,-1.1807,-1.1712,-1.1617,-1.1617,-1.1597,-1.1626,-1.1647,-1.1597,-1.1626,-1.1611,-1.1597,-1.1572,-1.1443,-1.1402,-1.1287,-1.1002,-1.0961,-1.0894,-1.0799,-1.0744,-1.0684,-1.0684,-1.0684,-1.0684,-1.0684,-1.0684,-1.0684,-1.0684,-1.0684,-1.0684,-1.0684,-1.0684,-1.0684,-0.6403,-0.6586,-0.6668,-0.6668,-0.6681,-0.6702,-0.6702,-0.6702,0.0,0.0,0.0,0.0,0.0,-0.7886,-0.8267,-0.8587,-0.9349,-1.0159,-1.0982,-1.1362,-1.1827,-1.2571,-1.2854,-1.3118,-1.337,-1.3403,-1.3349,-1.3261,-1.3227,-1.3064,-1.2774,-1.2713,-1.2632,-1.2542,-1.2515,-1.2501,-1.2501,-1.2501,-1.2501,-1.2501,-1.2379,-1.2325,-1.2318,-1.2207,-1.2132,-1.2132,-1.2111,-1.2098,-1.2098,-1.2098,-1.2098,-1.2098,-1.2098,-1.2098,-1.2098,-1.2098,-1.2098,-1.2098,-1.207,-1.1925,-1.1759,-1.1759,-1.1678,-1.1584,-1.1584,-1.1665,-1.1759,-1.1759,-1.1759,-1.1793,-1.1996,-1.203,-1.1996,-1.1793,-1.1898,-1.1965,-1.182,-1.1918,-1.2036,-1.2057,-1.1904,-1.1759,-1.1759,-1.1665,-1.1624,-1.1746,-1.1658,-1.1624,-1.1746,-1.1658,-1.1577,-1.1586,-1.147,-1.1375,-1.1328,-1.1206,-1.1152,-1.1132,-1.086,-1.0684,-1.0684,-1.0684,-1.0684,-1.0684,-1.0684,-1.0684,-1.0684,-1.0684,-1.0684,-1.0684,-1.0684,-1.0684,-0.6491,-0.6647,-0.6742,-0.6877,-0.7,-0.7083,-0.7083,-0.7183,-0.7319,0.0,0.0,0.0,0.0,0.0,-0.871,-0.9305,-1.012,-1.0832,-1.1261,-1.1687,-1.2169,-1.2632,-1.2935,-1.3159,-1.3376,-1.3322,-1.3288,-1.322,-1.3024,-1.2874,-1.2699,-1.2611,-1.2576,-1.2501,-1.2501,-1.2501,-1.2501,-1.2427,-1.2386,-1.2386,-1.2325,-1.2244,-1.22,-1.2006,-1.1938,-1.1938,-1.1938,-1.1986,-1.2104,-1.2186,-1.2268,-1.2336,-1.2336,-1.2336,-1.2336,-1.2336,-1.225,-1.222,-1.222,-1.2088,-1.1952,-1.1952,-1.1911,-1.1857,-1.1857,-1.1904,-1.1972,-1.2054,-1.202,-1.1972,-1.2084,-1.2098,-1.2084,-1.1972,-1.205,-1.2104,-1.2074,-1.2104,-1.2125,-1.2207,-1.206,-1.1952,-1.1952,-1.1904,-1.1884,-1.1945,-1.1898,-1.1884,-1.1945,-1.1823,-1.1698,-1.1698,-1.1599,-1.1484,-1.1396,-1.1328,-1.1288,-1.12,-1.0962,-1.0813,-1.0813,-1.0732,-1.0684,-1.0684,-1.0684,-1.0684,-1.0684,-1.0684,-1.0684,-1.0684,-1.0684,-1.0684,-0.6546,-0.6675,-0.6763,-0.7006,-0.7231,-0.7403,-0.7437,-0.7651,-0.7871,0.0,0.0,0.0,0.0,-0.8906,-0.9347,-1.0143,-1.0846,-1.1383,-1.1572,-1.2026,-1.2433,-1.2659,-1.2963,-1.3207,-1.3288,-1.3193,-1.3146,-1.3071,-1.2861,-1.2672,-1.2638,-1.2562,-1.2488,-1.2454,-1.2454,-1.2433,-1.24,-1.2291,-1.2257,-1.2291,-1.2216,-1.2121,-1.2006,-1.185,-1.1746,-1.1746,-1.1857,-1.1952,-1.2111,-1.2264,-1.2406,-1.2501,-1.2501,-1.2501,-1.2501,-1.2501,-1.2433,-1.2338,-1.2338,-1.2244,-1.2152,-1.2152,-1.2132,-1.2098,-1.2098,-1.2125,-1.2179,-1.2257,-1.2268,-1.2207,-1.2207,-1.2207,-1.2193,-1.2159,-1.2179,-1.2227,-1.2271,-1.2223,-1.2234,-1.2318,-1.2254,-1.2152,-1.2152,-1.2125,-1.2111,-1.2145,-1.2125,-1.2111,-1.2145,-1.1979,-1.1884,-1.1884,-1.1789,-1.166,-1.1504,-1.1497,-1.143,-1.1315,-1.1097,-1.0961,-1.0961,-1.0819,-1.0759,-1.0826,-1.0759,-1.0759,-1.0826,-1.0826,-1.0806,-1.0738,-1.0738,-1.0738,-0.6464,-0.6614,-0.6742,-0.6884,-0.7156,-0.743,-0.755,-0.7783,-0.8115,-0.8534,0.0,0.0,0.0,-0.9812,-1.0403,-1.1016,-1.1369,-1.1735,-1.2162,-1.2379,-1.2549,-1.2672,-1.2874,-1.3023,-1.303,-1.3023,-1.2955,-1.2733,-1.2706,-1.2671,-1.2528,-1.2508,-1.244,-1.2311,-1.2305,-1.2237,-1.2132,-1.2118,-1.2186,-1.2284,-1.1962,-1.182,-1.1807,-1.1665,-1.1597,-1.1611,-1.1925,-1.2091,-1.2125,-1.2372,-1.2494,-1.2501,-1.2501,-1.2501,-1.2501,-1.2501,-1.2494,-1.2488,-1.2488,-1.2393,-1.2277,-1.2277,-1.2213,-1.2098,-1.2098,-1.22,-1.2277,-1.2284,-1.2379,-1.2467,-1.2467,-1.2467,-1.2433,-1.2305,-1.2372,-1.2433,-1.2318,-1.2386,-1.2474,-1.2481,-1.2372,-1.2277,-1.2277,-1.2193,-1.2145,-1.225,-1.2193,-1.2152,-1.2257,-1.2179,-1.2084,-1.2084,-1.207,-1.1965,-1.1773,-1.1759,-1.1698,-1.1592,-1.1307,-1.1179,-1.1179,-1.0975,-1.0961,-1.1166,-1.0968,-1.0995,-1.1166,-1.1166,-1.1063,-1.0901,-1.0901,-1.0901,-0.647,-0.6607,-0.6756,-0.6979,-0.733,-0.7685,0.0,-0.8365,-0.8947,-0.9211,-0.949,0.0,0.0,-1.0351,-1.0799,-1.1145,-1.1608,-1.1986,-1.225,-1.2494,-1.2625,-1.2686,-1.2868,-1.3003,-1.3003,-1.2874,-1.2793,-1.2693,-1.2605,-1.2562,-1.2508,-1.242,-1.2345,-1.2291,-1.2234,-1.2159,-1.2098,-1.1965,-1.1945,-1.2006,-1.1847,-1.1746,-1.1658,-1.1611,-1.1584,-1.1597,-1.183,-1.1972,-1.2118,-1.2284,-1.242,-1.2501,-1.2501,-1.2501,-1.2501,-1.2501,-1.2501,-1.2501,-1.2501,-1.2467,-1.242,-1.242,-1.2379,-1.2332,-1.2332,-1.2372,-1.242,-1.242,-1.2461,-1.2501,-1.2501,-1.2501,-1.2488,-1.2433,-1.2461,-1.2488,-1.2433,-1.2467,-1.2501,-1.2501,-1.2461,-1.242,-1.242,-1.2372,-1.2359,-1.2413,-1.2372,-1.2359,-1.2413,-1.2291,-1.2203,-1.2203,-1.2159,-1.2077,-1.1979,-1.1972,-1.1911,-1.1726,-1.147,-1.1307,-1.1307,-1.1165,-1.1104,-1.1193,-1.1145,-1.1111,-1.12,-1.12,-1.1166,-1.1084,-1.1084,-1.1084,-0.647,-0.6607,-0.6783,-0.7107,-0.759,0.0,-0.8358,-0.8974,-0.9551,-0.989,-1.0283,-1.0594,-1.0594,0.0,-1.1097,-1.1335,-1.1798,-1.2166,-1.2332,-1.2569,-1.2672,-1.2625,-1.2793,-1.2907,-1.286,-1.2718,-1.2657,-1.2657,-1.2522,-1.2433,-1.2433,-1.2298,-1.2196,-1.2149,-1.204,-1.1965,-1.1925,-1.1816,-1.1726,-1.1726,-1.1726,-1.1678,-1.1584,-1.1584,-1.1584,-1.1626,-1.1732,-1.1891,-1.2006,-1.221,-1.2372,-1.2501,-1.2501,-1.2501,-1.2501,-1.2501,-1.2501,-1.2501,-1.2501,-1.2501,-1.2501,-1.2501,-1.2501,-1.2501,-1.2501,-1.2501,-1.2501,-1.2501,-1.2501,-1.2515,-1.2562,-1.2535,-1.2501,-1.2501,-1.2501,-1.2501,-1.2501,-1.2501,-1.2501,-1.2501,-1.2501,-1.2501,-1.2501,-1.2501,-1.2501,-1.2501,-1.2501,-1.2501,-1.2501,-1.242,-1.2359,-1.2359,-1.2264,-1.222,-1.2173,-1.2173,-1.2104,-1.1911,-1.1714,-1.1558,-1.1463,-1.1314,-1.1295,-1.1342,-1.1295,-1.1295,-1.1342,-1.1342,-1.1315,-1.1268,-1.1268,-1.1268,-0.647,-0.6607,-0.681,-0.7287,0.0,0.0,-0.9247,-0.951,-0.9829,-1.0549,-1.0968,-1.1206,-1.1206,-1.1206,-1.1349,-1.1726,-1.1965,-1.2207,-1.2461,-1.2591,-1.2632,-1.2522,-1.2637,-1.2671,-1.2515,-1.2501,-1.2501,-1.2501,-1.2366,-1.2291,-1.2291,-1.2179,-1.2023,-1.18,-1.1793,-1.1726,-1.1584,-1.1584,-1.1584,-1.1584,-1.1584,-1.1584,-1.1584,-1.1584,-1.1584,-1.1626,-1.1732,-1.1793,-1.182,-1.2162,-1.2372,-1.2501,-1.2501,-1.2501,-1.2501,-1.2501,-1.2501,-1.2501,-1.2501,-1.2501,-1.2501,-1.2501,-1.2501,-1.2501,-1.2501,-1.2501,-1.2501,-1.2501,-1.2501,-1.2535,-1.2652,-1.2617,-1.2501,-1.2508,-1.2508,-1.2501,-1.2501,-1.2501,-1.2501,-1.2501,-1.2501,-1.2501,-1.2501,-1.2501,-1.2501,-1.2501,-1.2501,-1.2501,-1.2501,-1.2501,-1.2501,-1.2501,-1.2501,-1.2447,-1.2305,-1.2291,-1.223,-1.2111,-1.2098,-1.1968,-1.1633,-1.1477,-1.147,-1.1584,-1.1477,-1.147,-1.1584,-1.1584,-1.1545,-1.1396,-1.1396,-1.1396,-0.647,-0.6661,-0.6972,-0.7543,0.0,0.0,0.0,-1.0103,0.0,0.0,-1.1647,-1.1633,-1.1633,-1.1633,-1.1714,-1.1952,-1.2121,-1.2291,-1.2474,-1.2542,-1.2556,-1.2508,-1.2542,-1.2515,-1.2366,-1.2352,-1.2311,-1.2241,-1.2193,-1.2166,-1.2166,-1.1986,-1.183,-1.1651,-1.1644,-1.1577,-1.1457,-1.1565,-1.1584,-1.1584,-1.1584,-1.1584,-1.1584,-1.1584,-1.1584,-1.1584,-1.1624,-1.1705,-1.1807,-1.2047,-1.2254,-1.2352,-1.2352,-1.2413,-1.2501,-1.2501,-1.2501,-1.2501,-1.2501,-1.2501,-1.2501,-1.2501,-1.2501,-1.2501,-1.2501,-1.2501,-1.2501,-1.2501,-1.2501,-1.2535,-1.2652,-1.2659,-1.2691,-1.2839,-1.2739,-1.2625,-1.2625,-1.2576,-1.2501,-1.2501,-1.2501,-1.2501,-1.2501,-1.2501,-1.2501,-1.2501,-1.2501,-1.2501,-1.2501,-1.2501,-1.2501,-1.2501,-1.2501,-1.2481,-1.244,-1.244,-1.2379,-1.223,-1.2223,-1.2135,-1.1975,-1.1921,-1.1921,-1.1968,-1.1921,-1.1921,-1.1968,-1.1968,-1.1948,-1.19,-1.19,-1.19,-0.662,-0.6878,-0.7258,-0.7916,-0.8533,-0.9273,-1.038,0.0,0.0,0.0,-1.2081,-1.2013,-1.2013,-1.1965,-1.1972,-1.2166,-1.2268,-1.2338,-1.2481,-1.2501,-1.2501,-1.2501,-1.2454,-1.2386,-1.2298,-1.2237,-1.2135,-1.1979,-1.1918,-1.19,-1.1832,-1.1647,-1.1525,-1.1443,-1.1436,-1.1396,-1.1336,-1.1389,-1.1436,-1.1436,-1.1497,-1.1531,-1.1531,-1.1592,-1.1584,-1.1584,-1.1584,-1.1665,-1.18,-1.1932,-1.2098,-1.2234,-1.2234,-1.225,-1.2332,-1.2393,-1.242,-1.2427,-1.2481,-1.2501,-1.2501,-1.2501,-1.2501,-1.2501,-1.2501,-1.2501,-1.2501,-1.2501,-1.2501,-1.2535,-1.2652,-1.2779,-1.2847,-1.2982,-1.2888,-1.282,-1.282,-1.2698,-1.261,-1.2671,-1.2583,-1.2522,-1.2583,-1.2542,-1.2501,-1.2501,-1.2501,-1.2501,-1.2501,-1.2501,-1.2501,-1.2501,-1.2501,-1.2501,-1.2501,-1.2501,-1.2467,-1.2379,-1.2372,-1.2332,-1.2275,-1.2159,-1.2098,-1.2098,-1.2098,-1.2098,-1.2098,-1.2098,-1.2098,-1.2098,-1.2098,-1.2098,-0.6823,-0.7156,-0.76,-0.8362,-0.9028,0.0,-1.128,-1.1692,-1.1901,-1.2244,0.0,-1.2311,-1.2311,-1.2234,-1.2186,-1.2284,-1.2311,-1.2352,-1.2481,-1.2488,-1.2481,-1.2481,-1.2359,-1.2257,-1.223,-1.2139,-1.1952,-1.1746,-1.1617,-1.1518,-1.1375,-1.1274,-1.1193,-1.1179,-1.1193,-1.1193,-1.1179,-1.1193,-1.12,-1.12,-1.1301,-1.1369,-1.1375,-1.1545,-1.1584,-1.1584,-1.1584,-1.1658,-1.1773,-1.1773,-1.1904,-1.2077,-1.2077,-1.2084,-1.2118,-1.2254,-1.2277,-1.2311,-1.244,-1.2488,-1.2501,-1.2501,-1.2501,-1.2501,-1.2501,-1.2501,-1.2501,-1.2501,-1.2501,-1.2535,-1.2652,-1.2834,-1.2989,-1.3016,-1.3023,-1.3016,-1.3003,-1.284,-1.2766,-1.2935,-1.2705,-1.2569,-1.2665,-1.2623,-1.2542,-1.2542,-1.2542,-1.2542,-1.2522,-1.2535,-1.2542,-1.2522,-1.2535,-1.2542,-1.2542,-1.2542,-1.2542,-1.2542,-1.2542,-1.2535,-1.2522,-1.225,-1.2139,-1.2139,-1.2139,-1.2139,-1.2139,-1.2139,-1.2139,-1.2139,-1.2139,-1.2139,-0.6823,-0.7231,0.0,-0.8595,-0.9704,-1.0725,-1.1314,-1.1735,-1.2132,-1.2393,-1.2454,-1.2454,-1.2454,-1.2427,-1.242,-1.2447,-1.2454,-1.2467,-1.2501,-1.2406,-1.2338,-1.2338,-1.2203,-1.2057,-1.1782,-1.1735,-1.1599,-1.1363,-1.1315,-1.1281,-1.1247,-1.1213,-1.1145,-1.0961,-1.1104,-1.1111,-1.0961,-1.1104,-1.12,-1.12,-1.1234,-1.1247,-1.1254,-1.1497,-1.1584,-1.1584,-1.1584,-1.164,-1.1631,-1.1631,-1.1712,-1.184,-1.184,-1.1952,-1.2104,-1.2139,-1.2227,-1.2291,-1.2325,-1.2406,-1.2501,-1.2501,-1.2501,-1.2501,-1.2501,-1.2501,-1.2501,-1.2501,-1.2501,-1.2535,-1.2652,-1.2713,-1.284,-1.3071,-1.3166,-1.3139,-1.3023,-1.284,-1.2665,-1.2617,-1.2644,-1.2652,-1.2686,-1.2807,-1.2901,-1.2901,-1.2901,-1.286,-1.2698,-1.2786,-1.2813,-1.2652,-1.2786,-1.2901,-1.2901,-1.2901,-1.2901,-1.2901,-1.2901,-1.2807,-1.2645,-1.2508,-1.2406,-1.2406,-1.2406,-1.2406,-1.2406,-1.2406,-1.2406,-1.2406,-1.2406,-1.2406,-0.6716,-0.723,0.0,-0.9134,0.0,-1.0867,-1.1382,-1.1681,-1.1932,-1.2268,-1.2406,-1.2481,-1.2413,-1.24,-1.2379,-1.2305,-1.2329,-1.2329,-1.2329,-1.2268,-1.2182,-1.2182,-1.1986,-1.1789,-1.1633,-1.1491,-1.1307,-1.1077,-1.1063,-1.1029,-1.0955,-1.0948,-1.0914,-1.0806,-1.0914,-1.0914,-1.0806,-1.0914,-1.0948,-1.0955,-1.1023,-1.1097,-1.12,-1.1328,-1.1443,-1.1511,-1.1511,-1.1552,-1.1584,-1.1584,-1.1624,-1.1692,-1.1692,-1.1775,-1.1857,-1.1925,-1.2047,-1.2189,-1.2264,-1.2386,-1.2501,-1.2501,-1.2501,-1.2501,-1.2501,-1.2501,-1.2501,-1.2501,-1.2501,-1.2522,-1.2603,-1.2638,-1.2726,-1.2922,-1.3071,-1.3214,-1.3173,-1.3051,-1.2942,-1.2935,-1.2881,-1.2861,-1.2929,-1.2949,-1.3003,-1.3003,-1.3003,-1.2975,-1.2854,-1.2948,-1.2969,-1.2847,-1.2955,-1.3003,-1.3003,-1.3003,-1.3003,-1.3003,-1.3003,-1.2969,-1.284,-1.2766,-1.2651,-1.2508,-1.2576,-1.261,-1.261,-1.261,-1.261,-1.261,-1.2535,-1.2501,-0.6511,-0.727,-0.8184,-0.9549,-1.0215,0.0,-1.1314,-1.1545,-1.1687,-1.1968,-1.2261,-1.2393,-1.2271,-1.225,-1.2247,-1.2118,-1.2098,-1.2098,-1.2098,-1.2077,-1.205,-1.2023,-1.1748,-1.1523,-1.1475,-1.1274,-1.1063,-1.0887,-1.0874,-1.0819,-1.0691,-1.0684,-1.0684,-1.0684,-1.0684,-1.0684,-1.0684,-1.0684,-1.0684,-1.0691,-1.0813,-1.0934,-1.1118,-1.1118,-1.122,-1.1355,-1.1382,-1.1463,-1.1586,-1.157,-1.1584,-1.1584,-1.1584,-1.1584,-1.1597,-1.1712,-1.1904,-1.2118,-1.2247,-1.2359,-1.2501,-1.2501,-1.2501,-1.2501,-1.2501,-1.2501,-1.2501,-1.2501,-1.2501,-1.2501,-1.2501,-1.2596,-1.2659,-1.2686,-1.2935,-1.3214,-1.3295,-1.3247,-1.3241,-1.3308,-1.3186,-1.3084,-1.3227,-1.3152,-1.3077,-1.3077,-1.3077,-1.3071,-1.3043,-1.3064,-1.3064,-1.3043,-1.3064,-1.3077,-1.3077,-1.3077,-1.3077,-1.3077,-1.3077,-1.3064,-1.3037,-1.3037,-1.2907,-1.2589,-1.2705,-1.2766,-1.2766,-1.2766,-1.2766,-1.2766,-1.2637,-1.2583,-0.6205,0.0,-0.8703,0.0,-0.9985,-1.0555,0.0,0.0,-1.1597,0.0,-1.1918,-1.2152,-1.2132,-1.2132,-1.2125,-1.2104,-1.2098,-1.2098,-1.2098,-1.1945,-1.1816,-1.1694,-1.1525,-1.1321,-1.1029,-1.0968,-1.088,-1.0732,-1.0718,-1.0711,-1.0691,-1.0684,-1.0684,-1.0684,-1.0684,-1.0684,-1.0684,-1.0684,-1.0684,-1.0684,-1.0711,-1.0725,-1.0778,-1.0778,-1.0928,-1.1234,-1.1335,-1.1402,-1.143,-1.1565,-1.1584,-1.1584,-1.1584,-1.1584,-1.1584,-1.1604,-1.1823,-1.2104,-1.2125,-1.2271,-1.2501,-1.2501,-1.2501,-1.2501,-1.2501,-1.2501,-1.2501,-1.2501,-1.2501,-1.2501,-1.2501,-1.2515,-1.2562,-1.2659,-1.2861,-1.3037,-1.3057,-1.3139,-1.3186,-1.3077,-1.3125,-1.3234,-1.3342,-1.3356,-1.3342,-1.3342,-1.3342,-1.3295,-1.32,-1.3261,-1.3295,-1.32,-1.3261,-1.3342,-1.3342,-1.3342,-1.3342,-1.3342,-1.3342,-1.3281,-1.3193,-1.3186,-1.3105,-1.2941,-1.2962,-1.2969,-1.2969,-1.2969,-1.2969,-1.2969,-1.2948,-1.2941,-0.6156,-0.7389,-0.8428,0.0,-0.9655,-1.01,-1.05,-1.086,-1.1165,-1.1328,-1.1506,-1.1669,-1.1884,-1.1932,-1.1904,-1.1823,-1.1816,-1.1782,-1.1737,-1.1626,-1.1531,-1.1382,-1.1233,-1.1056,-1.0928,-1.084,-1.0759,-1.0691,-1.0684,-1.0684,-1.0684,-1.0684,-1.0684,-1.0684,-1.0684,-1.0684,-1.0684,-1.0684,-1.0684,-1.0684,-1.0684,-1.0684,-1.0684,-1.0684,-1.0806,-1.105,-1.1076,-1.124,-1.1396,-1.1463,-1.1545,-1.1584,-1.1584,-1.1584,-1.1584,-1.1584,-1.1809,-1.2098,-1.2098,-1.2295,-1.2501,-1.2501,-1.2501,-1.2501,-1.2501,-1.2501,-1.2501,-1.2501,-1.2501,-1.2501,-1.2501,-1.2501,-1.2542,-1.2652,-1.2847,-1.3023,-1.3105,-1.3234,-1.3281,-1.322,-1.3261,-1.3322,-1.339,-1.3403,-1.3403,-1.3403,-1.3403,-1.3376,-1.3308,-1.3356,-1.3376,-1.3308,-1.3363,-1.3403,-1.3403,-1.3403,-1.3403,-1.3403,-1.3403,-1.337,-1.3302,-1.3383,-1.3397,-1.3336,-1.3207,-1.3118,-1.3118,-1.3118,-1.3118,-1.3118,-1.3037,-1.3003,0.0,0.0,-0.7885,-0.8689,-0.9183,-0.9632,0.0,0.0,-1.069,-1.1023,-1.1118,-1.1219,-1.1592,-1.166,-1.1626,-1.1518,-1.1504,-1.1463,-1.1348,-1.1335,-1.1274,-1.1124,-1.0982,-1.0901,-1.086,-1.0752,-1.0684,-1.0684,-1.0684,-1.0684,-1.0684,-1.0684,-1.0684,-1.0684,-1.0684,-1.0684,-1.0684,-1.0684,-1.0684,-1.0684,-1.0684,-1.0684,-1.0684,-1.0684,-1.0745,-1.086,-1.0894,-1.1063,-1.1335,-1.1375,-1.1484,-1.1584,-1.1584,-1.1584,-1.1584,-1.1584,-1.1809,-1.2098,-1.2098,-1.2295,-1.2501,-1.2501,-1.2501,-1.2501,-1.2501,-1.2501,-1.2501,-1.2501,-1.2501,-1.2508,-1.2549,-1.2562,-1.2596,-1.2752,-1.2901,-1.3098,-1.3241,-1.3322,-1.3403,-1.3403,-1.3403,-1.3403,-1.3403,-1.3403,-1.3403,-1.3403,-1.3403,-1.3403,-1.3403,-1.3437,-1.3458,-1.3458,-1.3492,-1.3512,-1.3512,-1.3512,-1.3512,-1.3512,-1.3512,-1.3512,-1.3512,-1.3578,-1.3639,-1.3639,-1.3458,-1.3329,-1.3288,-1.3288,-1.3268,-1.3268,-1.3159,-1.3111,0.0,-0.6372,0.0,-0.782,-0.8608,-0.9288,0.0,0.0,-1.0385,-1.0683,-1.0826,-1.0975,-1.12,-1.1234,-1.1227,-1.122,-1.122,-1.122,-1.1206,-1.1206,-1.1159,-1.0941,-1.0921,-1.086,-1.0711,-1.0691,-1.0684,-1.0684,-1.0684,-1.0684,-1.0684,-1.0684,-1.0684,-1.0684,-1.0684,-1.0684,-1.0684,-1.0684,-1.0684,-1.0684,-1.0684,-1.0684,-1.0684,-1.0684,-1.0691,-1.0704,-1.0853,-1.1036,-1.122,-1.137,-1.1484,-1.1584,-1.1584,-1.1584,-1.1584,-1.1584,-1.1809,-1.2098,-1.2098,-1.2295,-1.2501,-1.2501,-1.2501,-1.2501,-1.2501,-1.2501,-1.2501,-1.2501,-1.2501,-1.2535,-1.2638,-1.2679,-1.2759,-1.2955,-1.3098,-1.3248,-1.3356,-1.3397,-1.3403,-1.3403,-1.3403,-1.3403,-1.3403,-1.3403,-1.3403,-1.3403,-1.3403,-1.3403,-1.3403,-1.3526,-1.3572,-1.3572,-1.3693,-1.3774,-1.3774,-1.3774,-1.3774,-1.3774,-1.3774,-1.3774,-1.3774,-1.3781,-1.3788,-1.3788,-1.3774,-1.37,-1.3565,-1.3565,-1.3532,-1.339,-1.3383,-1.3376,0.0,0.0,0.0,-0.7297,-0.7936,-0.8548,-0.9205,-0.9546,-0.9815,-1.0177,-1.0299,-1.0414,-1.069,-1.1002,-1.12,-1.12,-1.12,-1.1166,-1.1036,-1.1023,-1.0934,-1.0786,-1.0772,-1.0745,-1.0691,-1.0684,-1.0684,-1.0684,-1.0684,-1.0684,-1.0684,-1.0684,-1.0684,-1.0684,-1.0684,-1.0684,-1.0684,-1.0684,-1.0684,-1.0684,-1.0684,-1.0684,-1.0684,-1.0684,-1.0684,-1.0691,-1.0745,-1.0853,-1.1036,-1.1185,-1.1335,-1.1484,-1.1579,-1.1584,-1.1584,-1.1584,-1.1809,-1.2098,-1.2098,-1.2295,-1.2501,-1.2501,-1.2501,-1.2501,-1.2501,-1.2501,-1.2522,-1.2584,-1.2651,-1.2684,-1.284,-1.2874,-1.2915,-1.3105,-1.3214,-1.3336,-1.339,-1.3403,-1.3403,-1.3403,-1.3403,-1.3403,-1.3403,-1.3403,-1.3437,-1.3532,-1.3546,-1.358,-1.3632,-1.3687,-1.372,-1.372,-1.3768,-1.3795,-1.3795,-1.3795,-1.3795,-1.3795,-1.3795,-1.3795,-1.3795,-1.3939,-1.3987,-1.3987,-1.4082,-1.3971,-1.372,-1.372,-1.3646,-1.3546,-1.3546,-1.3492,-0.3662,0.0,0.0,0.0,-0.7229,-0.7891,-0.8588,-0.8993,-0.9347,-0.971,-0.9873,-1.0015,-1.0265,-1.0629,-1.0934,-1.1029,-1.1016,-1.0982,-1.0853,-1.084,-1.0799,-1.0698,-1.0684,-1.0684,-1.0684,-1.0684,-1.0684,-1.0684,-1.0684,-1.0684,-1.0684,-1.0684,-1.0684,-1.0684,-1.0684,-1.0684,-1.0684,-1.0684,-1.0684,-1.0684,-1.0684,-1.0684,-1.0684,-1.0684,-1.0684,-1.0684,-1.0684,-1.0772,-1.0921,-1.105,-1.1212,-1.1402,-1.1504,-1.1572,-1.1584,-1.1584,-1.1809,-1.2098,-1.2098,-1.2295,-1.2501,-1.2501,-1.2501,-1.2501,-1.2501,-1.2535,-1.2603,-1.2665,-1.2766,-1.284,-1.303,-1.3111,-1.3173,-1.3268,-1.3329,-1.3403,-1.3403,-1.3403,-1.3403,-1.3403,-1.3403,-1.3403,-1.3403,-1.3444,-1.3512,-1.3572,-1.3626,-1.3693,-1.3788,-1.3842,-1.3919,-1.3919,-1.3923,-1.395,-1.395,-1.395,-1.395,-1.395,-1.395,-1.395,-1.395,-1.4095,-1.415,-1.415,-1.4251,-1.4197,-1.395,-1.3903,-1.3802,-1.366,-1.366,-1.3605,0.0,0.0,0.0,0.0,0.0,0.0,-0.7788,0.0,-0.8973,-0.93,-0.9591,-0.9812,-0.9967,-1.0154,-1.0358,-1.0656,-1.0677,-1.0677,-1.0677,-1.0684,-1.0684,-1.0684,-1.0684,-1.0684,-1.0684,-1.0684,-1.0684,-1.0684,-1.0684,-1.0684,-1.0684,-1.0684,-1.0684,-1.0684,-1.0684,-1.0684,-1.0684,-1.0684,-1.0684,-1.0684,-1.0684,-1.0684,-1.0684,-1.0684,-1.0684,-1.0684,-1.0684,-1.0772,-1.0873,-1.0914,-1.1083,-1.1382,-1.1389,-1.1484,-1.1584,-1.159,-1.1809,-1.2098,-1.2104,-1.2295,-1.2501,-1.2501,-1.2501,-1.2501,-1.2508,-1.261,-1.2693,-1.2699,-1.2854,-1.3043,-1.3186,-1.3288,-1.3403,-1.3403,-1.3403,-1.3403,-1.3403,-1.3403,-1.3403,-1.3403,-1.3403,-1.3403,-1.3403,-1.3532,-1.3592,-1.3599,-1.372,-1.3808,-1.3808,-1.3987,-1.4125,-1.4125,-1.4211,-1.4299,-1.4299,-1.4299,-1.4299,-1.4299,-1.4299,-1.4299,-1.4299,-1.4299,-1.4299,-1.4299,-1.4299,-1.4299,-1.4299,-1.415,-1.4,-1.3802,-1.3802,-1.3795,-0.1906,0.0,0.0,0.0,0.0,0.0,0.0,0.0,-0.8322,-0.8804,-0.9021,-0.923,-0.9517,-0.9693,-0.989,-1.0157,-1.0412,-1.0555,-1.0555,-1.0649,-1.0684,-1.0684,-1.0684,-1.0684,-1.0684,-1.0684,-1.0684,0.0,-1.0684,-1.0684,-1.0684,-1.0684,-1.0684,-1.0684,-1.0684,-1.0684,-1.0684,-1.0684,-1.0684,-1.0684,-1.0684,-1.0684,-1.0684,-1.0684,-1.0684,-1.0684,-1.0684,-1.0711,-1.0759,-1.0867,-1.1022,-1.1274,-1.1348,-1.1484,-1.1597,-1.1698,-1.1898,-1.2118,-1.2227,-1.2345,-1.2501,-1.2501,-1.2501,-1.2522,-1.263,-1.2659,-1.2733,-1.299,-1.3078,-1.3186,-1.3302,-1.337,-1.3403,-1.3403,-1.3403,-1.3403,-1.3403,-1.3492,-1.3532,-1.3424,-1.3403,-1.3437,-1.3546,-1.3558,-1.366,-1.3919,-1.398,-1.4048,-1.4156,-1.4211,-1.4238,-1.4238,-1.4278,-1.4299,-1.4299,-1.4299,-1.4299,-1.4299,-1.4299,-1.4299,-1.4299,-1.4299,-1.4299,-1.4299,-1.4299,-1.4299,-1.4299,-1.4258,-1.4156,-1.4007,-1.3849,-1.3795,0.0,0.0,0.0,0.0,0.0,0.0,-0.6612,-0.7205,-0.7692,-0.8118,-0.8346,-0.8535,-0.8732,-0.9043,-0.9329,-0.9473,-0.9838,-1.0188,-1.0378,-1.048,-1.0534,-1.0534,-1.0534,-1.0534,-1.0534,-1.0534,-1.0561,-1.0622,-1.0622,-1.0656,-1.0684,-1.0684,-1.0684,-1.0684,-1.0684,-1.0684,-1.0684,-1.0684,-1.0684,-1.0684,-1.0684,-1.0684,-1.0684,-1.0684,-1.0684,-1.0684,-1.0684,-1.0684,-1.0698,-1.0853,-1.1029,-1.1206,-1.1295,-1.143,-1.164,-1.1739,-1.1932,-1.2118,-1.2237,-1.2386,-1.2501,-1.2501,-1.2501,-1.2528,-1.2645,-1.2773,-1.2874,-1.3146,-1.3261,-1.3288,-1.3376,-1.3403,-1.3403,-1.3403,-1.3403,-1.3417,-1.3485,-1.3524,-1.3558,-1.3512,-1.3546,-1.3572,-1.366,-1.377,-1.3871,-1.4091,-1.4173,-1.4197,-1.4285,-1.4299,-1.4299,-1.4299,-1.4299,-1.4299,-1.4299,-1.4299,-1.4299,-1.4299,-1.4299,-1.4299,-1.4299,-1.4299,-1.4299,-1.4299,-1.4299,-1.4299,-1.4299,-1.4299,-1.4251,-1.4163,-1.4075,-1.4034,0.0,0.0,0.0,0.0,0.0,0.0,-0.5542,-0.6338,-0.697,-0.7271,-0.7568,-0.777,-0.777,-0.8232,-0.8611,-0.8652,-0.9058,-0.9573,-1.0161,-1.0229,-1.0236,-1.0249,-1.0256,-1.0256,-1.0256,-1.0301,-1.0363,-1.046,-1.0466,-1.0527,-1.0663,-1.067,-1.0644,-1.0697,-1.0697,-1.0671,-1.0684,-1.0684,-1.0684,-1.0684,-1.0684,-1.0684,-1.0684,-1.0684,-1.0684,-1.0684,-1.0684,-1.0698,-1.0725,-1.086,-1.1029,-1.12,-1.122,-1.1362,-1.1604,-1.1796,-1.1945,-1.2125,-1.2257,-1.2393,-1.2501,-1.2501,-1.2501,-1.2535,-1.2705,-1.2854,-1.3037,-1.3193,-1.3295,-1.3403,-1.3403,-1.341,-1.3424,-1.3424,-1.3437,-1.3485,-1.3585,-1.3626,-1.3682,-1.3682,-1.3727,-1.3802,-1.3822,-1.398,-1.4119,-1.4139,-1.4211,-1.4299,-1.4299,-1.4299,-1.4299,-1.4299,-1.4299,-1.4299,-1.4299,-1.4299,-1.4299,-1.4299,-1.4299,-1.4299,-1.4299,-1.4299,-1.4299,-1.4299,-1.4299,-1.4299,-1.4299,-1.4299,-1.4299,-1.4299,-1.4299,-1.4299,0.0,0.0,0.0,0.0,0.0,0.0,-0.4548,-0.5223,-0.5765,-0.6194,-0.664,-0.6926,-0.6926,-0.7129,-0.7367,-0.7689,-0.7921,-0.8513,-0.9738,-0.991,-0.9927,-1.0049,-1.0062,-1.0062,-1.0062,-1.0209,-1.0322,-1.0349,-1.0356,-1.0337,-1.0365,-1.0365,-1.0419,-1.0534,-1.0534,-1.0595,-1.0684,-1.0684,-1.0684,-1.0684,-1.0684,-1.0684,-1.0684,-1.0684,-1.0684,-1.0684,-1.0684,-1.0759,-1.0874,-1.0901,-1.1029,-1.1206,-1.1336,-1.1457,-1.1653,-1.1918,-1.207,-1.2139,-1.2366,-1.2481,-1.2501,-1.2501,-1.2501,-1.2556,-1.2834,-1.2975,-1.3057,-1.3281,-1.3376,-1.3403,-1.3403,-1.3492,-1.3545,-1.3545,-1.3632,-1.372,-1.3747,-1.3899,-1.3987,-1.3987,-1.3905,-1.3835,-1.4007,-1.4055,-1.4159,-1.4238,-1.4278,-1.4299,-1.4299,-1.4299,-1.4299,-1.4299,-1.4299,-1.4299,-1.4299,-1.4299,-1.4299,-1.4299,-1.4299,-1.4299,-1.4299,-1.4299,-1.4299,-1.4299,-1.4299,-1.4299,-1.4299,-1.4299,-1.4299,-1.4299,-1.4299,-1.4299,0.0,0.0,0.0,-0.127,0.0,0.0,0.0,-0.3959,-0.4402,-0.4905,-0.52,-0.5362,-0.5362,-0.57,-0.6072,-0.6258,-0.676,-0.7408,-0.8327,-0.8958,-0.9453,-0.9677,-0.9713,-0.9713,-0.9713,-0.9856,-1.0005,-1.0154,-1.0236,-1.0315,-1.0315,-1.0315,-1.0342,-1.0385,-1.0453,-1.0527,-1.0609,-1.0683,-1.0684,-1.0684,-1.0684,-1.0684,-1.0684,-1.0684,-1.0684,-1.0691,-1.0765,-1.0846,-1.0928,-1.1076,-1.1212,-1.1322,-1.1362,-1.1484,-1.1653,-1.1989,-1.2098,-1.2139,-1.24,-1.2501,-1.2501,-1.2501,-1.2501,-1.2562,-1.2907,-1.3105,-1.3214,-1.3356,-1.3458,-1.3512,-1.3512,-1.3585,-1.3693,-1.3693,-1.3747,-1.3822,-1.3939,-1.4014,-1.4139,-1.417,-1.4122,-1.4095,-1.417,-1.4183,-1.4211,-1.4285,-1.4299,-1.4299,-1.4299,-1.4299,-1.4299,-1.4299,-1.4299,-1.4299,-1.4299,-1.4299,-1.4299,-1.4299,-1.4299,-1.4299,-1.4299,-1.4299,-1.4299,-1.4299,-1.4299,-1.4299,-1.4299,-1.4299,-1.4299,-1.4299,-1.4299,-1.4299,0.0,0.0,0.0,0.0,0.0,-0.1571,0.0,0.0,0.0,-0.3518,-0.3654,-0.3679,-0.3679,-0.418,-0.4603,-0.4706,0.0,0.0,0.0,-0.7739,0.0,-0.9138,-0.9224,-0.9266,-0.9293,-0.9462,-0.9666,-0.9873,-1.0039,-1.0152,-1.0148,-1.0186,-1.0175,-1.0236,-1.0378,-1.0466,-1.0493,-1.0643,-1.0684,-1.0684,-1.0684,-1.0684,-1.0684,-1.0684,-1.0684,-1.0698,-1.0846,-1.0928,-1.0975,-1.128,-1.1409,-1.1436,-1.1436,-1.1511,-1.1653,-1.1989,-1.2098,-1.2139,-1.24,-1.2501,-1.2501,-1.2501,-1.2542,-1.2644,-1.2962,-1.3227,-1.3403,-1.3403,-1.3512,-1.3585,-1.3585,-1.3714,-1.3842,-1.3842,-1.3862,-1.3916,-1.4089,-1.4159,-1.415,-1.4278,-1.4299,-1.4299,-1.4299,-1.4299,-1.4299,-1.4299,-1.4299,-1.4299,-1.4299,-1.4299,-1.4299,-1.4299,-1.4299,-1.4299,-1.4299,-1.4299,-1.4299,-1.4299,-1.4299,-1.4299,-1.4299,-1.4299,-1.4299,-1.4299,-1.4299,-1.4299,-1.4299,-1.4299,-1.4299,-1.4299,-1.4299,-1.4299,0.0,0.0,0.0,0.0,-0.0491,0.0,-0.1332,0.0,-0.1933,-0.2176,0.0,-0.2572,-0.2572,0.0,0.0,0.0,0.0,0.0,-0.5542,-0.6258,-0.7109,-0.8282,-0.8628,-0.8811,-0.8946,-0.9245,-0.9422,-0.9456,-0.9505,-0.9544,-0.968,-0.9686,-0.9771,-1.0035,-1.0222,-1.0365,-1.0487,-1.0643,-1.0684,-1.0684,-1.0684,-1.0684,-1.0684,-1.0684,-1.0684,-1.0698,-1.0846,-1.0988,-1.1186,-1.1356,-1.147,-1.1592,-1.1592,-1.1606,-1.1653,-1.1989,-1.2098,-1.2139,-1.24,-1.2501,-1.2501,-1.2501,-1.2684,-1.2975,-1.3139,-1.3268,-1.3403,-1.3403,-1.3512,-1.3585,-1.3585,-1.3838,-1.4091,-1.4091,-1.415,-1.4251,-1.4272,-1.4272,-1.4278,-1.4299,-1.4299,-1.4299,-1.4299,-1.4299,-1.4299,-1.4299,-1.4299,-1.4299,-1.4299,-1.4299,-1.4299,-1.4299,-1.4299,-1.4299,-1.4299,-1.4299,-1.4299,-1.4299,-1.4299,-1.4299,-1.4299,-1.4299,-1.4299,-1.4299,-1.4299,-1.4299,-1.4299,-1.4299,-1.4299,-1.4299,-1.4299,-1.4299,0.0,0.0,0.0,0.0,0.0,0.0,-0.0697,0.0,-0.1009,0.0,0.0,0.0,0.0,0.0,0.0,0.0,-0.2564,-0.3213,0.0,0.0,-0.5853,-0.7514,0.0,0.0,-0.8764,-0.892,-0.9028,-0.9117,-0.9226,-0.9308,-0.9369,-0.951,-0.9666,-0.9758,-1.0114,-1.0342,-1.0371,-1.0602,-1.0684,-1.0684,-1.0684,-1.0684,-1.0684,-1.0684,-1.0684,-1.0698,-1.0968,-1.1104,-1.122,-1.1423,-1.1558,-1.1584,-1.1584,-1.1584,-1.1653,-1.1989,-1.2098,-1.2139,-1.24,-1.2501,-1.2515,-1.2603,-1.2779,-1.303,-1.3173,-1.3281,-1.3417,-1.3505,-1.3599,-1.3727,-1.3865,-1.4048,-1.4204,-1.4204,-1.4251,-1.4299,-1.4299,-1.4299,-1.4299,-1.4299,-1.4299,-1.4299,-1.4299,-1.4299,-1.4299,-1.4299,-1.4299,-1.4299,-1.4299,-1.4299,-1.4299,-1.4299,-1.4299,-1.4299,-1.4299,-1.4299,-1.4299,-1.4299,-1.4299,-1.4299,-1.4299,-1.4299,-1.4299,-1.4299,-1.4299,-1.4299,-1.4299,-1.4299,-1.4299,-1.4299,-1.4299,-1.4299,0.0,0.0,0.0,0.0,0.0,0.0,0.0,0.0,0.0,0.0,0.0,0.0,0.0,0.0,0.0,0.0,0.0,-0.2068,0.0,-0.3327,0.0,0.0,0.0,0.0,0.0,-0.8568,-0.8696,-0.8777,-0.8941,-0.9036,-0.9117,-0.934,-0.9523,-0.9605,-1.0046,-1.0315,-1.0315,-1.0575,-1.0684,-1.0684,-1.0684,-1.0684,-1.0684,-1.0684,-1.0711,-1.0765,-1.1084,-1.122,-1.1281,-1.1511,-1.1584,-1.1584,-1.1584,-1.1604,-1.1671,-1.2002,-1.2125,-1.22,-1.2413,-1.2528,-1.2589,-1.2745,-1.2895,-1.3084,-1.3193,-1.3342,-1.3485,-1.3558,-1.372,-1.3933,-1.4041,-1.4183,-1.4299,-1.4299,-1.4299,-1.4299,-1.4299,-1.4299,-1.4299,-1.4299,-1.4299,-1.4299,-1.4299,-1.4299,-1.4299,-1.4299,-1.4299,-1.4299,-1.4299,-1.4299,-1.4299,-1.4299,-1.4299,-1.4299,-1.4299,-1.4299,-1.4299,-1.4299,-1.4299,-1.4319,-1.4353,-1.436,-1.438,-1.4421,-1.4421,-1.4421,-1.4421,-1.4421,-1.4421,-1.4421,-1.434,-1.4299,0.0,0.0,0.0,0.0,0.0,0.0,0.0,0.0,-0.0027,0.0,0.0,0.0,0.0,0.0,0.0,0.0,0.0,0.0,0.0,0.0,0.0,0.0,0.0,0.0,0.0,-0.8274,-0.8519,-0.8526,-0.8526,-0.8635,-0.8899,-0.9117,-0.9335,-0.9598,-1.0046,-1.0315,-1.0315,-1.0575,-1.0684,-1.0684,-1.0684,-1.0684,-1.0684,-1.0684,-1.0765,-1.0914,-1.1097,-1.1281,-1.1396,-1.1552,-1.1584,-1.1584,-1.1584,-1.1665,-1.1807,-1.2006,-1.2193,-1.2305,-1.2447,-1.2596,-1.2745,-1.2941,-1.3091,-1.3234,-1.3349,-1.3498,-1.3578,-1.3585,-1.3838,-1.4105,-1.4112,-1.4183,-1.4299,-1.4299,-1.4299,-1.4299,-1.4299,-1.4299,-1.4299,-1.4299,-1.4299,-1.4299,-1.4299,-1.4299,-1.4299,-1.4299,-1.4299,-1.4299,-1.4299,-1.4299,-1.4299,-1.4299,-1.4299,-1.4299,-1.4299,-1.4299,-1.4299,-1.4299,-1.4299,-1.436,-1.4502,-1.4502,-1.4532,-1.4674,-1.4681,-1.4681,-1.4681,-1.4681,-1.4681,-1.4674,-1.4434,-1.4299,0.0,0.0,0.0,0.0,0.0,0.0,0.0,0.0,0.0,0.0,0.0,0.0,0.0,0.0,0.0,0.0,0.0,0.0,0.0,0.0,0.0,0.0,0.0,0.0,0.0,0.0,-0.7915,-0.7915,-0.818,-0.8457,-0.8628,-0.8872,-0.915,-0.9449,-0.9897,-1.0175,-1.0308,-1.0575,-1.0684,-1.0684,-1.0684,-1.0684,-1.0691,-1.0792,-1.0867,-1.0928,-1.1206,-1.1341,-1.1402,-1.1558,-1.1638,-1.1719,-1.1719,-1.1911,-1.2128,-1.2118,-1.2193,-1.2325,-1.2569,-1.2752,-1.2908,-1.3098,-1.3173,-1.322,-1.3471,-1.3545,-1.3668,-1.3865,-1.3994,-1.4139,-1.4197,-1.4265,-1.4299,-1.4299,-1.4299,-1.4299,-1.4299,-1.4299,-1.4299,-1.4299,-1.4299,-1.4299,-1.4299,-1.4299,-1.4299,-1.4299,-1.4299,-1.4299,-1.4299,-1.4299,-1.4299,-1.4299,-1.4299,-1.4299,-1.4299,-1.4387,-1.4482,-1.4539,-1.4545,-1.4566,-1.4613,-1.476,-1.4841,-1.4889,-1.4896,-1.4896,-1.4896,-1.4741,-1.4694,-1.4694,-1.4593,-1.4536,0.0,0.0,0.0,0.0,0.0,0.0,0.0,0.0,0.0,0.0,0.0,0.0,0.0,0.0,0.0,0.0,0.0,0.0,0.0,-0.1086,0.0,0.0,0.0,0.0,0.0,-0.6792,-0.7241,-0.7441,-0.7831,-0.8153,-0.8423,-0.8696,-0.8994,-0.9322,-0.9758,-1.0096,-1.0308,-1.0575,-1.0684,-1.0684,-1.0684,-1.0718,-1.0772,-1.0867,-1.0975,-1.1083,-1.1307,-1.1423,-1.1484,-1.1633,-1.1712,-1.18,-1.1891,-1.2067,-1.2277,-1.222,-1.2271,-1.2481,-1.2725,-1.2908,-1.3091,-1.3186,-1.3248,-1.3302,-1.3511,-1.3619,-1.3714,-1.4,-1.4109,-1.4177,-1.4272,-1.4299,-1.4299,-1.4299,-1.4299,-1.4299,-1.4299,-1.4299,-1.4299,-1.4299,-1.4299,-1.4299,-1.4299,-1.4299,-1.4299,-1.4299,-1.4299,-1.4299,-1.4299,-1.4299,-1.4299,-1.4299,-1.4299,-1.4319,-1.4373,-1.4509,-1.4586,-1.4687,-1.4694,-1.4721,-1.4821,-1.497,-1.5072,-1.5126,-1.5181,-1.5181,-1.5126,-1.5025,-1.4904,-1.4896,-1.4896,-1.4814]},{"header":{"parameterUnit":"m.s-1","parameterCategory":1,"la1":30.6,"la2":29.2853,"lo1":-89.7004,"lo2":-87.6739,"dy":0.0162,"dx":0.0183,"nx":112,"ny":82,"refTime":"2023-08-18T12:00:00:Z","depth":0,"parameterNumber":3,"parameterNumberName":"V-component_of_WINDS"},"data":[0.0,0.0,0.0,0.0,0.0,0.0,0.0,0.0,0.0,0.0,0.0,0.0,0.0,0.0,0.0,0.0,0.0,0.0,0.0,0.0,0.0,0.0,0.0,0.0,0.0,0.0,0.0,0.0,0.0,0.0,0.0,0.0,0.0,0.0,0.0,0.0,0.0,0.0,0.0,0.0,0.0,0.0,0.0,0.0,0.0,0.0,0.0,0.0,0.0,0.0,0.0,0.0,0.0,0.0,0.0,0.0,0.0,0.0,0.0,0.0,0.0,0.0,0.0,0.0,0.0,0.0,0.0,0.0,0.0,0.0,0.0,0.0,0.0,0.0,0.0,0.0,0.0,0.0,0.0,0.0,0.0,0.0,0.0,0.0,0.0,0.0,0.0,0.0,0.0,0.0,2.4708,2.5999,2.8784,3.0534,3.0393,2.8979,2.7779,2.6967,0.0,0.0,0.0,0.0,0.0,0.0,0.0,0.0,0.0,0.0,0.0,0.0,0.0,0.0,0.0,0.0,0.0,0.0,0.0,0.0,0.0,0.0,0.0,0.0,0.0,0.0,0.0,0.0,0.0,0.0,0.0,0.0,0.0,0.0,0.0,0.0,0.0,0.0,0.0,0.0,0.0,0.0,0.0,0.0,0.0,0.0,0.0,0.0,0.0,0.0,0.0,0.0,0.0,0.0,0.0,0.0,0.0,0.0,0.0,0.0,0.0,0.0,0.0,0.0,0.0,0.0,0.0,0.0,0.0,0.0,0.0,0.0,0.0,0.0,0.0,0.0,0.0,0.0,0.0,0.0,0.0,0.0,0.0,0.0,0.0,0.0,0.0,0.0,0.0,0.0,0.0,0.0,0.0,0.0,0.0,0.0,0.0,0.0,0.0,0.0,0.0,0.0,0.0,0.0,2.5548,2.9108,3.1121,3.1965,3.128,2.9874,2.8413,2.7005,0.0,0.0,0.0,0.0,0.0,0.0,0.0,0.0,0.0,0.0,0.0,0.0,0.0,0.0,0.0,0.0,0.0,0.0,0.0,0.0,0.0,0.0,0.0,0.0,0.0,0.0,0.0,0.0,0.0,0.0,0.0,0.0,0.0,0.0,0.0,0.0,0.0,0.0,0.0,0.0,0.0,0.0,0.0,0.0,0.0,0.0,0.0,0.0,0.0,0.0,0.0,0.0,0.0,0.0,0.0,0.0,0.0,0.0,0.0,0.0,0.0,0.0,0.0,0.0,0.0,0.0,0.0,0.0,0.0,0.0,0.0,0.0,0.0,0.0,0.0,0.0,0.0,0.0,0.0,0.0,0.0,0.0,0.0,0.0,0.0,0.0,0.0,0.0,0.0,0.0,0.0,0.0,0.0,0.0,0.0,0.0,0.0,0.0,0.0,0.0,0.0,0.0,0.0,2.5878,2.7352,3.0509,3.1892,3.2259,3.1464,3.0044,2.8561,2.7037,2.5636,0.0,0.0,0.0,0.0,0.0,0.0,0.0,0.0,0.0,0.0,0.0,0.0,0.0,0.0,0.0,0.0,0.0,0.0,0.0,0.0,0.0,0.0,0.0,0.0,0.0,0.0,0.0,0.0,0.0,0.0,0.0,0.0,0.0,0.0,0.0,0.0,0.0,0.0,0.0,0.0,0.0,0.0,0.0,0.0,0.0,0.0,0.0,0.0,0.0,0.0,0.0,0.0,0.0,0.0,0.0,0.0,0.0,0.0,0.0,0.0,0.0,0.0,0.0,0.0,0.0,0.0,0.0,0.0,0.0,0.0,0.0,0.0,0.0,0.0,0.0,0.0,0.0,0.0,0.0,0.0,0.0,0.0,0.0,0.0,0.0,0.0,0.0,0.0,0.0,0.0,0.0,0.0,0.0,0.0,0.0,0.0,0.0,0.0,0.0,0.0,0.0,0.0,2.7457,2.8931,3.117,3.2302,3.2485,3.1464,3.0062,2.8587,2.7107,2.5699,0.0,0.0,0.0,0.0,0.0,0.0,0.0,0.0,0.0,0.0,0.0,0.0,0.0,0.0,0.0,0.0,0.0,0.0,0.0,0.0,0.0,0.0,0.0,0.0,0.0,0.0,0.0,0.0,0.0,0.0,0.0,0.0,0.0,0.0,0.0,0.0,0.0,0.0,0.0,0.0,0.0,0.0,0.0,0.0,0.0,0.0,0.0,0.0,0.0,0.0,0.0,0.0,0.0,0.0,0.0,0.0,0.0,0.0,0.0,0.0,0.0,0.0,0.0,0.0,0.0,0.0,0.0,0.0,0.0,0.0,0.0,0.0,0.0,0.0,0.0,0.0,0.0,0.0,0.0,0.0,0.0,0.0,0.0,0.0,0.0,0.0,0.0,0.0,0.0,0.0,0.0,0.0,0.0,0.0,0.0,0.0,0.0,0.0,0.0,0.0,0.0,0.0,2.7959,2.9543,3.1207,3.2786,3.3073,3.1537,3.0062,2.8587,2.7107,2.5699,0.0,0.0,0.0,0.0,0.0,0.0,0.0,0.0,0.0,0.0,0.0,0.0,0.0,0.0,0.0,0.0,0.0,0.0,0.0,0.0,0.0,0.0,0.0,0.0,0.0,0.0,0.0,0.0,0.0,0.0,0.0,0.0,0.0,0.0,0.0,0.0,0.0,0.0,0.0,0.0,0.0,0.0,0.0,0.0,0.0,0.0,0.0,0.0,0.0,0.0,0.0,0.0,0.0,0.0,0.0,0.0,0.0,0.0,0.0,0.0,0.0,0.0,0.0,0.0,0.0,0.0,0.0,0.0,0.0,0.0,0.0,0.0,0.0,0.0,0.0,0.0,0.0,0.0,0.0,0.0,0.0,0.0,0.0,0.0,0.0,0.0,0.0,0.0,0.0,0.0,0.0,0.0,0.0,0.0,0.0,0.0,0.0,0.0,0.0,0.0,0.0,0.0,2.7996,2.961,3.1244,3.2375,3.2596,3.1501,2.9582,2.8031,2.707,0.0,0.0,0.0,0.0,0.0,0.0,0.0,0.0,0.0,0.0,0.0,0.0,0.0,0.0,0.0,0.0,0.0,0.0,0.0,0.0,0.0,0.0,0.0,0.0,0.0,0.0,0.0,0.0,0.0,0.0,0.0,0.0,0.0,0.0,0.0,0.0,0.0,0.0,0.0,0.0,0.0,0.0,0.0,0.0,0.0,0.0,0.0,0.0,0.0,0.0,0.0,0.0,0.0,0.0,0.0,0.0,0.0,0.0,0.0,0.0,0.0,0.0,0.0,0.0,0.0,0.0,0.0,0.0,0.0,0.0,0.0,0.0,0.0,0.0,0.0,0.0,0.0,0.0,0.0,0.0,0.0,0.0,0.0,0.0,0.0,0.0,0.0,0.0,0.0,0.0,0.0,0.0,0.0,0.0,0.0,0.0,0.0,0.0,0.0,0.0,0.0,0.0,2.6424,2.8222,2.991,3.1244,3.2118,3.2259,3.1464,2.9318,2.7692,2.7014,0.0,0.0,0.0,0.0,0.0,0.0,0.0,0.0,0.0,0.0,0.0,0.0,0.0,0.0,0.0,0.0,0.0,0.0,0.0,0.0,0.0,0.0,0.0,0.0,0.0,0.0,0.0,0.0,0.0,0.0,0.0,0.0,0.0,0.0,0.0,0.0,0.0,0.0,0.0,0.0,0.0,0.0,0.0,0.0,0.0,0.0,0.0,0.0,0.0,0.0,0.0,0.0,0.0,0.0,0.0,0.0,0.0,0.0,0.0,0.0,0.0,0.0,0.0,0.0,0.0,0.0,0.0,0.0,0.0,0.0,0.0,0.0,0.0,0.0,0.0,0.0,0.0,0.0,0.0,0.0,0.0,0.0,0.0,0.0,0.0,0.0,0.0,0.0,0.0,0.0,0.0,0.0,0.0,0.0,0.0,0.0,0.0,0.0,0.0,0.0,0.0,0.0,2.6497,2.8699,3.0503,3.1317,3.2112,3.2259,3.1464,2.9281,2.7677,0.0,0.0,0.0,0.0,0.0,0.0,0.0,0.0,0.0,0.0,0.0,0.0,0.0,0.0,0.0,0.0,0.0,0.0,0.0,0.0,0.0,0.0,0.0,0.0,0.0,0.0,0.0,0.0,0.0,0.0,0.0,0.0,0.0,0.0,0.0,0.0,0.0,0.0,0.0,0.0,0.0,0.0,0.0,0.0,0.0,0.0,0.0,0.0,0.0,0.0,0.0,0.0,0.0,0.0,0.0,0.0,0.0,0.0,0.0,0.0,0.0,0.0,0.0,0.0,0.0,0.0,0.0,0.0,0.0,0.0,0.0,0.0,0.0,0.0,0.0,0.0,0.0,0.0,0.0,0.0,0.0,0.0,0.0,0.0,0.0,0.0,0.0,0.0,0.0,0.0,0.0,0.0,0.0,0.0,0.0,0.0,0.0,0.0,0.0,0.0,0.0,0.0,0.0,2.7346,2.9072,3.0503,3.1317,3.1611,3.1647,3.1427,2.8769,2.7012,2.6893,0.0,0.0,0.0,0.0,0.0,0.0,0.0,0.0,0.0,0.0,0.0,0.0,0.0,0.0,0.0,0.0,0.0,0.0,0.0,0.0,0.0,0.0,0.0,0.0,0.0,0.0,0.0,0.0,0.0,0.0,0.0,0.0,0.0,0.0,0.0,0.0,0.0,0.0,0.0,0.0,0.0,0.0,0.0,0.0,0.0,0.0,0.0,0.0,0.0,0.0,0.0,0.0,0.0,0.0,0.0,0.0,0.0,0.0,0.0,0.0,0.0,0.0,0.0,0.0,0.0,0.0,0.0,0.0,0.0,0.0,0.0,0.0,0.0,0.0,0.0,0.0,0.0,0.0,0.0,0.0,0.0,0.0,0.0,0.0,0.0,0.0,0.0,0.0,0.0,0.0,0.0,0.0,0.0,0.0,0.0,0.0,0.0,0.0,0.0,0.0,0.0,0.0,2.8191,2.9696,3.098,3.1788,3.1861,3.1751,3.1433,2.9126,2.7626,2.739,0.0,0.0,0.0,0.0,0.0,0.0,0.0,0.0,0.0,0.0,0.0,0.0,0.0,0.0,0.0,0.0,0.0,0.0,0.0,0.0,0.0,0.0,0.0,0.0,0.0,0.0,0.0,0.0,0.0,0.0,0.0,0.0,0.0,0.0,0.0,0.0,0.0,0.0,0.0,0.0,0.0,0.0,0.0,0.0,0.0,0.0,0.0,0.0,0.0,0.0,0.0,0.0,0.0,0.0,0.0,0.0,0.0,0.0,0.0,0.0,0.0,0.0,0.0,0.0,0.0,0.0,0.0,0.0,0.0,0.0,0.0,0.0,0.0,0.0,0.0,0.0,0.0,0.0,0.0,0.0,0.0,0.0,0.0,0.0,0.0,0.0,0.0,0.0,0.0,0.0,0.0,0.0,0.0,0.0,0.0,0.0,0.0,0.0,0.0,0.0,0.0,0.0,2.9023,3.0503,3.1794,3.2509,3.2583,3.2259,3.1464,3.0058,2.8878,2.8135,0.0,0.0,0.0,0.0,0.0,0.0,0.0,0.0,0.0,0.0,0.0,0.0,0.0,0.0,0.0,0.0,0.0,0.0,0.0,0.0,0.0,0.0,0.0,0.0,0.0,0.0,0.0,0.0,0.0,0.0,0.0,0.0,0.0,0.0,0.0,0.0,0.0,0.0,0.0,0.0,0.0,0.0,0.0,0.0,0.0,0.0,0.0,0.0,0.0,0.0,0.0,0.0,0.0,0.0,0.0,0.0,0.0,0.0,0.0,0.0,2.9713,2.8308,0.0,0.0,0.0,0.0,0.0,0.0,0.0,0.0,0.0,0.0,0.0,0.0,0.0,0.0,0.0,0.0,0.0,0.0,0.0,0.0,0.0,0.0,0.0,0.0,0.0,0.0,0.0,0.0,0.0,0.0,0.0,0.0,0.0,0.0,0.0,0.0,0.0,0.0,0.0,0.0,2.991,3.1341,3.2406,3.2583,3.2583,3.2259,3.1464,3.0058,2.8878,2.8135,2.7376,0.0,0.0,0.0,0.0,0.0,0.0,0.0,0.0,0.0,0.0,0.0,0.0,0.0,0.0,0.0,0.0,0.0,0.0,0.0,0.0,0.0,0.0,0.0,0.0,0.0,0.0,0.0,0.0,0.0,0.0,0.0,0.0,0.0,0.0,0.0,0.0,0.0,0.0,0.0,0.0,0.0,0.0,0.0,0.0,0.0,0.0,0.0,0.0,0.0,0.0,0.0,0.0,0.0,0.0,0.0,0.0,0.0,0.0,0.0,3.3105,3.0906,0.0,0.0,0.0,0.0,0.0,0.0,0.0,0.0,0.0,0.0,0.0,0.0,0.0,0.0,0.0,0.0,0.0,0.0,0.0,0.0,0.0,0.0,0.0,0.0,0.0,0.0,0.0,0.0,0.0,0.0,0.0,0.0,0.0,0.0,0.0,0.0,0.0,0.0,0.0,0.0,3.1305,3.2406,3.3176,3.3176,3.3537,3.3286,3.2082,3.0949,3.0016,2.9291,2.8306,0.0,0.0,0.0,0.0,0.0,0.0,0.0,0.0,0.0,0.0,0.0,0.0,0.0,0.0,0.0,0.0,0.0,0.0,0.0,0.0,0.0,0.0,0.0,0.0,0.0,0.0,0.0,0.0,0.0,0.0,0.0,0.0,0.0,0.0,0.0,0.0,0.0,0.0,0.0,0.0,0.0,0.0,0.0,0.0,0.0,0.0,0.0,0.0,0.0,0.0,0.0,0.0,0.0,3.921,4.0018,4.1911,4.1258,4.1295,4.1727,3.7654,3.5048,3.366,3.3579,0.0,0.0,0.0,0.0,0.0,0.0,0.0,0.0,0.0,0.0,0.0,0.0,0.0,0.0,0.0,0.0,0.0,0.0,0.0,0.0,0.0,0.0,3.4651,3.4651,3.4651,3.4284,3.2969,0.0,0.0,0.0,0.0,0.0,0.0,0.0,0.0,0.0,0.0,0.0,3.2736,3.366,3.4247,3.4247,3.4674,3.4417,3.2913,3.2132,3.142,3.0741,2.9605,2.9016,0.0,0.0,0.0,0.0,0.0,0.0,0.0,0.0,0.0,0.0,0.0,0.0,0.0,0.0,0.0,0.0,0.0,0.0,0.0,0.0,0.0,0.0,0.0,0.0,0.0,0.0,0.0,0.0,0.0,0.0,0.0,0.0,2.954,3.0264,0.0,0.0,0.0,0.0,0.0,0.0,0.0,0.0,0.0,0.0,0.0,0.0,0.0,3.8498,4.0104,4.1625,4.2873,4.3929,4.4525,4.4966,4.5259,4.5149,4.5149,4.5223,4.4599,0.0,3.7845,3.7213,0.0,0.0,0.0,0.0,0.0,0.0,0.0,0.0,0.0,0.0,0.0,0.0,0.0,0.0,0.0,0.0,0.0,0.0,0.0,0.0,0.0,0.0,3.8065,3.8065,3.8065,3.7991,3.7771,3.5495,3.3476,3.3476,3.2926,3.2442,0.0,0.0,0.0,0.0,0.0,0.0,3.3623,3.5018,3.598,3.598,3.5378,3.4637,3.3733,3.2984,3.2269,3.1593,3.1469,3.1551,3.1794,3.1834,0.0,0.0,0.0,0.0,0.0,0.0,0.0,0.0,0.0,0.0,0.0,0.0,0.0,0.0,0.0,0.0,0.0,0.0,0.0,0.0,0.0,0.0,0.0,0.0,0.0,0.0,0.0,0.0,0.0,2.9502,3.0745,3.1939,3.1524,3.1299,0.0,0.0,0.0,0.0,0.0,0.0,0.0,0.0,0.0,4.0275,4.1919,4.3534,4.514,4.6333,4.7545,4.882,4.915,4.9554,4.9985,4.9985,4.9985,4.9985,4.9985,4.8306,4.5259,4.2173,3.969,3.7787,0.0,0.0,0.0,0.0,3.8685,3.9755,4.0205,4.0898,4.1451,4.064,0.0,0.0,0.0,0.0,0.0,0.0,0.0,3.9071,3.9945,4.0451,4.0855,4.1295,4.1038,4.0708,4.0708,3.9232,3.7514,3.6127,3.5245,3.4688,3.4688,3.4394,0.0,0.0,0.0,3.5202,3.5202,3.6237,3.6787,3.634,3.5973,3.5378,3.4564,3.3349,3.2544,3.2311,3.2012,3.1966,3.2182,3.2344,3.2501,0.0,0.0,0.0,0.0,0.0,0.0,0.0,0.0,0.0,0.0,0.0,0.0,0.0,0.0,0.0,0.0,0.0,0.0,0.0,0.0,0.0,0.0,0.0,0.0,0.0,0.0,0.0,0.0,3.1373,3.2568,3.411,3.358,3.3436,0.0,0.0,0.0,0.0,0.0,0.0,4.0414,4.1515,4.3065,4.5305,4.6737,4.8233,4.9838,5.0518,5.1546,5.2905,5.2905,5.3225,5.3812,5.3812,5.3812,5.3812,5.3812,5.3041,5.1353,4.6874,4.3726,4.1735,4.1515,4.1075,4.0598,4.1222,4.1947,4.271,4.3305,4.4048,4.4571,4.3534,4.2543,4.158,4.1009,0.0,0.0,0.0,0.0,4.1405,4.2616,4.3057,4.3351,4.3983,4.3644,4.3167,4.2938,4.2278,4.1067,3.8843,3.7779,3.7155,3.6964,3.6751,0.0,3.6604,3.678,3.7,3.7191,3.7925,3.8109,3.7301,3.7044,3.6479,3.5408,3.4014,3.3198,3.3124,3.2636,3.2495,3.267,3.2873,3.3042,3.3189,0.0,0.0,0.0,0.0,0.0,0.0,0.0,0.0,0.0,0.0,0.0,0.0,0.0,0.0,0.0,0.0,0.0,0.0,0.0,0.0,0.0,0.0,0.0,0.0,0.0,0.0,0.0,0.0,0.0,3.7269,3.7322,0.0,0.0,0.0,0.0,3.9541,4.1744,4.38,4.5443,4.7021,4.8663,5.0398,5.1242,5.2464,5.4069,5.4142,5.4583,5.5401,5.5401,5.5438,5.5475,5.5475,5.5475,5.5475,5.5475,5.4997,5.3959,5.0582,4.8233,4.6672,4.5883,4.5553,4.5553,4.559,4.6094,4.6782,4.6856,4.7379,4.7792,4.6214,4.4681,4.3359,4.3322,4.3286,0.0,0.0,4.3864,4.448,4.4553,4.5149,4.5736,4.5773,4.5736,4.5516,4.4737,4.3938,4.2873,4.125,4.0267,3.9467,3.8726,0.0,3.7456,3.7456,3.8109,3.8872,3.9614,4.0414,4.0626,3.9798,3.9056,3.7955,3.6376,3.5408,3.4625,3.3973,3.3975,3.4067,3.4298,3.4481,3.4648,3.4766,3.4988,0.0,0.0,0.0,0.0,0.0,0.0,0.0,0.0,0.0,0.0,0.0,0.0,0.0,0.0,0.0,0.0,0.0,0.0,0.0,0.0,0.0,0.0,0.0,0.0,0.0,0.0,0.0,0.0,4.0419,4.0633,0.0,4.2424,4.302,4.3681,4.448,4.6324,4.8352,5.0462,5.1636,5.2968,5.4609,5.593,5.6921,5.7471,5.7985,5.84,5.8694,5.8694,5.8694,5.8694,5.8694,5.84,5.7912,5.7912,5.7178,5.5856,5.4693,5.2637,5.0215,4.9931,4.9517,4.9114,4.9627,4.9994,5.0251,5.0251,5.0435,5.0398,4.8793,4.7508,4.6581,4.6581,4.625,4.5801,4.5801,4.5654,4.5581,4.6094,4.6461,4.6792,4.7305,4.7049,4.6608,4.6305,4.5617,4.4709,4.3636,4.1947,4.0589,4.0296,4.0002,3.9827,3.9827,4.0076,4.0333,4.0626,4.092,4.0993,4.07,3.9489,3.8469,3.7881,3.6589,3.5551,3.4883,3.4849,3.4711,3.4399,3.4512,3.4942,3.5704,3.5836,3.5823,0.0,0.0,0.0,0.0,0.0,0.0,0.0,0.0,0.0,0.0,0.0,0.0,0.0,0.0,0.0,0.0,0.0,0.0,0.0,0.0,0.0,0.0,0.0,0.0,0.0,0.0,4.1329,4.4509,4.5047,4.581,4.7416,4.8039,4.882,4.9874,5.1242,5.2968,5.5122,5.571,5.6627,5.7948,5.9049,5.9747,6.0003,6.0529,6.0786,6.0786,6.0786,6.0676,6.0419,6.0419,6.0114,5.96,5.96,5.9013,5.7985,5.7728,5.6334,5.4363,5.3529,5.2905,5.2491,5.3015,5.3198,5.3198,5.2894,5.2637,5.216,5.0849,4.9858,4.915,4.915,4.8773,4.837,4.837,4.7966,4.7682,4.8223,4.815,4.8086,4.86,4.8113,4.7443,4.7149,4.6682,4.6067,4.525,4.3599,4.2131,4.1617,4.1507,4.1507,4.1507,4.1507,4.1617,4.1874,4.1911,4.1801,4.1544,4.0553,3.9562,3.8755,3.7734,3.6691,3.5769,3.5702,3.5575,3.5264,3.5296,3.5732,3.6576,3.6743,3.6893,3.7022,0.0,0.0,0.0,0.0,0.0,0.0,0.0,0.0,0.0,0.0,0.0,0.0,0.0,0.0,0.0,0.0,0.0,0.0,0.0,0.0,0.0,0.0,0.0,4.0693,4.3256,4.6352,4.9469,5.0522,5.161,5.3214,5.3361,5.4032,5.5585,5.6455,5.7618,5.9233,5.9306,5.971,6.0517,6.0554,6.0933,6.1716,6.1716,6.1716,6.1716,6.1679,6.1263,6.0529,6.0493,6.0456,6.0456,6.0456,6.0407,6.0346,5.9563,5.9221,5.8976,5.6602,5.5658,5.5658,5.5658,5.5658,5.5511,5.473,5.3911,5.3104,5.2307,5.1499,5.0875,5.0875,5.0875,5.0839,5.0839,5.0839,5.0802,5.0802,5.0225,4.9647,4.9647,4.8967,4.8113,4.7333,4.7149,4.6902,4.6104,4.5324,4.4259,4.2653,4.2359,4.2323,4.2323,4.2323,0.0,4.3396,4.3506,4.3212,4.2433,4.2323,4.1368,3.9019,3.8762,3.8125,3.6655,3.6558,3.6663,3.6882,3.6955,3.713,3.7452,3.7784,3.7935,3.7932,0.0,0.0,0.0,0.0,0.0,0.0,0.0,0.0,0.0,0.0,0.0,0.0,0.0,0.0,0.0,0.0,0.0,0.0,0.0,0.0,0.0,0.0,4.5625,4.4124,4.7028,5.0293,5.28,5.4337,5.5563,5.6565,5.7214,5.7728,5.8168,5.8939,6.0114,6.1728,6.1802,6.2462,6.3894,6.393,6.404,6.4273,6.4261,6.4261,6.4273,6.3686,6.3295,6.3062,6.2438,6.1802,6.1263,6.1263,6.0933,6.0382,6.015,5.9747,5.9086,5.7813,5.7347,5.7347,5.7347,5.6969,5.6345,5.5548,5.473,5.3959,5.3141,5.27,5.2553,5.2553,5.2123,5.1693,5.1693,5.1242,5.0802,5.0802,5.0655,5.0472,5.0472,4.9858,4.9197,4.8976,4.8416,4.7746,4.6938,4.6608,4.5938,4.4333,4.3571,4.3176,4.3176,4.3176,0.0,4.3469,4.3506,4.3433,4.3176,4.2653,4.2029,4.1368,4.023,3.9199,3.8286,3.7752,3.7286,3.6986,3.7067,3.757,3.8408,3.8665,3.8771,0.0,0.0,0.0,0.0,0.0,0.0,0.0,0.0,0.0,0.0,0.0,0.0,0.0,0.0,0.0,0.0,0.0,0.0,0.0,0.0,0.0,0.0,4.7923,5.0804,5.0863,5.2444,5.4254,5.6183,5.785,5.9134,5.9942,6.075,6.1398,6.1728,6.2205,6.2866,6.3783,6.3857,6.4297,6.5251,6.5288,6.5472,6.5802,6.5802,6.5802,6.5802,6.5338,6.4763,6.4066,6.3576,6.2879,6.2108,6.2108,6.1851,6.1361,6.1043,6.0419,5.9636,0.0,0.0,0.0,0.0,5.7703,5.7152,5.5989,5.5291,5.4693,5.3581,5.3214,5.3214,5.3214,5.2847,5.2491,5.2491,5.216,5.182,5.182,5.1573,5.1316,5.1316,5.0702,5.0115,5.0115,4.9701,4.9104,4.8306,4.7856,0.0,4.5902,4.4773,4.4011,4.4011,4.3726,4.3506,4.3506,4.3506,4.3506,4.3506,4.3065,4.2653,4.2323,4.1475,0.0,0.0,0.0,3.9225,3.8747,3.8553,0.0,0.0,0.0,4.0351,4.0718,4.0826,0.0,0.0,3.9396,3.905,0.0,0.0,0.0,0.0,0.0,0.0,0.0,0.0,0.0,0.0,0.0,0.0,0.0,0.0,0.0,0.0,5.2639,5.6116,5.8957,5.8609,5.85,5.9647,6.108,6.2291,6.3013,6.3796,6.453,6.5251,6.5288,6.5325,6.5435,6.5435,0.0,0.0,0.0,6.5925,6.6623,6.6623,6.6623,6.6623,6.6549,6.5742,6.436,6.4176,6.3686,6.2939,6.2829,6.2793,6.2756,6.2034,6.1227,6.0297,5.9416,5.8609,5.7997,5.7997,5.7997,5.7776,5.6172,0.0,0.0,5.3728,5.3214,5.3214,5.3214,5.3214,5.3214,5.3214,5.3214,5.3214,5.3214,5.2674,5.2134,5.2134,5.1536,5.0949,5.0949,5.0875,5.0582,4.9858,4.9114,4.8333,4.7516,4.5984,4.4847,4.4847,4.4158,4.3653,4.3653,4.3543,4.3506,4.3506,4.3515,0.0,4.2523,4.2423,4.2184,4.166,4.1741,4.1607,4.1271,4.0776,4.084,4.1619,4.1751,4.221,4.2992,4.3069,4.3085,4.3047,4.1512,4.0785,0.0,0.0,0.0,0.0,0.0,0.0,0.0,0.0,0.0,0.0,0.0,0.0,0.0,0.0,0.0,5.414,5.7783,6.0791,6.2497,6.3594,6.3968,6.3383,6.4092,6.464,6.4811,6.4958,6.5141,6.5288,6.5288,6.5582,6.6219,6.6256,6.6549,6.7223,6.726,6.7297,6.748,6.748,6.748,6.748,6.6806,0.0,6.5999,6.469,6.4029,6.3796,6.3086,6.2793,6.2793,6.2646,6.1692,6.0272,5.8804,5.8143,5.7997,5.7997,5.7997,5.7776,5.6172,5.5585,5.5328,5.3728,5.3214,5.3214,5.3214,5.3214,0.0,5.3214,5.3214,5.3214,5.3214,5.3067,5.2957,5.2957,5.2344,5.1767,5.1767,5.1242,5.0765,5.0618,5.0435,5.0068,4.927,4.7205,4.5663,4.5663,4.4966,4.448,4.448,4.3901,4.3506,4.3506,4.3558,4.3518,4.3371,4.2845,4.2575,4.2552,4.2262,4.2121,4.2236,4.2231,4.2311,4.2551,4.2617,4.2786,4.2992,4.3069,4.3085,4.3085,4.2739,4.2585,0.0,0.0,0.0,0.0,0.0,0.0,0.0,0.0,0.0,0.0,0.0,4.7045,0.0,0.0,5.6813,6.0018,6.2286,6.4326,6.6202,6.6539,6.6185,6.5041,6.5566,6.5967,6.5925,6.6256,6.6512,6.6512,6.6512,6.6659,6.7076,6.7467,6.7687,6.77,6.8104,6.8091,6.77,6.77,6.77,6.77,6.7297,6.688,6.6476,6.5668,6.5081,6.464,6.3796,6.3466,6.3392,6.2548,6.1484,6.026,5.9049,5.8364,5.7997,5.7997,5.7997,5.7813,5.6602,5.6198,5.6014,5.4803,5.4399,5.4399,5.4399,5.4399,5.4399,5.4399,5.4399,5.4326,5.3911,5.3801,5.3691,5.3287,5.2884,5.2601,5.2601,5.227,5.1893,5.1463,5.144,5.1186,5.0377,4.9323,4.809,4.6709,4.581,4.5149,4.4737,4.4342,4.3938,4.3543,4.3575,4.3634,4.3684,4.3582,4.3573,4.3795,4.3278,4.3042,4.3189,4.2904,4.3,4.3484,4.355,4.3793,4.429,4.4312,4.4359,4.4359,4.4359,4.3897,0.0,0.0,0.0,0.0,0.0,0.0,0.0,0.0,4.6701,4.9086,5.1022,5.3294,5.6623,5.9515,6.2398,6.5479,6.639,6.7341,6.923,6.8522,6.7319,6.5964,6.6465,6.689,6.6746,6.7333,6.77,6.77,6.77,6.7774,6.7921,6.8568,6.8678,6.8178,6.8641,6.8605,6.7958,6.7774,6.77,6.77,6.77,6.737,6.6733,6.6549,6.6145,6.5472,6.453,6.3992,6.3723,6.2401,6.1263,6.0346,5.9673,5.8829,5.7997,5.7997,5.7997,5.7886,5.7079,5.6811,5.6675,5.5879,5.5585,5.5585,5.5585,5.5585,5.5585,5.5585,5.5585,5.5438,5.4803,5.462,5.4473,5.3801,5.3654,5.3628,5.3466,5.3429,5.323,5.2473,5.2334,5.2156,5.1383,5.1379,5.0611,4.8061,4.6967,4.6158,4.5376,4.5101,4.4688,4.3888,4.388,4.3931,4.3966,4.4266,4.4572,4.4815,4.4285,4.4064,4.4167,4.3629,4.3675,4.4456,4.4456,4.4847,4.5594,4.5594,4.5594,4.5594,4.5594,4.4898,3.7815,3.8665,4.0204,4.1931,4.4235,4.6274,0.0,0.0,5.2702,5.4472,5.6718,5.939,6.2795,6.4657,6.6539,6.9102,6.9919,7.029,7.0401,7.0072,6.9056,6.7136,6.7428,6.7713,6.7567,6.7664,6.77,6.77,6.77,6.8031,6.8752,6.8862,6.9192,6.9816,6.9229,6.8862,6.8788,6.8068,6.77,6.77,6.77,6.7664,6.7554,6.6843,6.6439,6.6292,6.4763,6.3649,6.2939,6.2756,6.1765,6.037,6.0297,5.9355,5.7997,5.7997,5.7997,5.7886,5.7079,5.6811,5.6675,5.5879,5.5585,5.5585,5.5585,5.5585,5.5585,5.5585,5.5585,5.5585,5.5475,5.5475,5.5438,5.5365,5.5328,5.5129,5.4491,5.4365,5.417,5.3524,5.3425,5.3224,5.2624,5.253,5.188,4.9963,4.8982,4.8176,4.7381,4.6563,4.5736,4.4924,4.4991,4.4953,4.4526,4.4612,4.4738,4.4896,4.4966,4.5055,4.5152,4.5107,4.5184,4.5356,4.5356,4.5421,4.5594,4.5594,4.5594,4.5594,4.5594,4.5518,4.0162,4.1431,4.3474,0.0,4.9433,5.1933,5.4203,5.7006,5.9544,6.1281,6.3169,6.5139,6.7013,6.8181,6.9461,0.0,7.1331,7.1168,7.1498,7.0363,6.897,6.7462,6.6877,6.6539,6.6319,6.6733,6.699,6.699,6.7871,6.8568,6.8898,6.9802,7.0243,7.011,6.9779,6.9376,6.8885,6.8091,6.77,6.77,6.77,6.77,6.77,6.737,6.6953,6.6439,6.5301,6.4347,6.3503,6.3013,6.1838,6.0419,6.0419,5.9428,5.7997,5.7997,5.7997,5.796,5.7629,5.7483,5.7446,5.7116,5.7017,5.7017,5.7017,5.7017,5.7017,5.7017,5.7017,5.6895,5.6418,5.6308,5.6161,5.5695,5.5677,5.5642,5.5354,5.5406,5.5438,5.5262,5.4979,5.4678,5.4423,5.4117,5.3518,5.2296,5.1141,4.995,4.8661,4.8135,4.7252,4.5547,4.5499,4.5402,4.4897,4.4908,4.5016,4.5181,4.5256,4.5324,4.5375,4.5381,4.5429,4.5518,4.548,4.5546,4.5594,4.5594,4.5594,4.5594,4.5594,4.5594,4.285,4.4774,0.0,5.1438,5.4708,5.7703,6.0589,6.3237,6.5429,6.6705,6.7845,6.8873,6.9704,7.0102,7.0784,7.2333,7.1844,7.1456,7.1909,7.0341,6.8589,6.6989,6.5774,6.4894,6.4424,6.5671,6.6512,6.6512,6.7981,6.9009,6.9229,7.0536,7.1123,7.077,7.033,6.9816,6.9229,6.8214,6.77,6.77,6.77,6.77,6.77,6.77,6.715,6.6145,6.5545,6.4714,6.3686,6.305,6.1985,6.0713,6.0493,5.9538,5.829,5.807,5.7997,5.7997,5.7997,5.7997,5.7997,5.7997,5.7997,5.7997,5.7997,5.7997,5.7997,5.7997,5.7997,5.7886,5.7299,5.7175,5.7051,5.6474,5.6411,5.6525,5.6403,5.6543,5.6675,5.6641,5.6304,5.6024,5.5864,5.5549,5.4985,5.4185,5.3233,5.1981,5.0252,4.9589,4.8526,4.6664,4.6136,4.5779,4.5472,4.5267,4.524,4.538,4.5404,4.5429,4.5424,4.5438,4.5466,4.5541,4.5541,4.5559,4.5594,4.5594,4.5594,4.5594,4.5594,4.5594,4.6081,0.0,5.2505,5.5939,5.9935,6.3506,6.5282,6.7667,6.9513,6.959,6.9529,6.9742,7.058,7.0016,6.9965,7.1572,7.1646,7.1465,7.1351,7.0216,6.8355,6.5598,6.4216,6.3102,0.0,6.478,6.6512,6.6512,6.7981,6.9229,7.0,7.083,7.1637,7.2386,7.0917,7.0073,7.0073,6.8508,6.77,6.77,6.77,6.77,6.77,6.77,6.6843,6.5325,6.5288,6.4371,6.2829,6.2793,6.2316,6.1496,6.0713,5.9893,5.9086,5.829,5.7997,5.7997,5.7997,5.7997,5.7997,5.7997,5.7997,5.7997,5.7997,5.7997,5.7997,5.7997,5.7997,5.7997,5.796,5.8051,5.8142,5.8142,5.8282,5.8275,5.7675,5.7714,5.7723,5.7259,5.7215,5.7081,5.6539,5.6466,5.6189,5.537,5.5218,5.4477,5.2544,5.079,4.94,4.8694,4.7163,4.6277,4.6515,4.5852,4.5385,4.54,4.5448,4.5514,4.5518,4.5564,4.559,4.559,4.559,4.559,4.5594,4.5594,4.5594,4.5594,4.5594,4.5594,4.9389,0.0,5.778,6.1204,6.482,6.7975,6.9706,7.1206,7.2045,7.1475,7.0455,6.9358,6.8512,6.7185,6.6541,6.7527,6.8526,6.9284,6.9673,6.9181,6.8198,6.6514,6.4726,0.0,0.0,0.0,0.0,6.5938,6.8444,7.0062,7.0225,7.1498,7.2288,7.2496,7.0954,7.011,7.011,6.8508,6.77,6.77,6.77,6.77,6.77,6.77,6.7113,6.6072,6.5508,6.4677,6.3613,6.305,6.2328,6.1569,6.13,6.0382,5.9171,5.9007,5.86,5.8111,5.8031,5.7997,5.7997,5.7997,5.7997,5.7997,5.7997,5.7997,5.802,5.8099,5.8122,5.8133,5.826,5.8305,5.836,5.8389,5.8609,5.8811,5.8755,5.9002,5.9206,5.9147,5.8803,5.8495,5.8302,5.743,5.6464,5.5632,5.488,5.3976,5.2773,5.1547,5.0349,4.9032,4.843,4.7756,4.6829,4.6498,4.61,4.558,4.5559,4.5568,4.5568,4.5586,4.5594,4.5594,4.5594,4.5594,4.5594,4.5594,4.5594,4.5594,4.5594,4.5594,5.3544,5.789,6.2204,6.5936,6.8975,7.1437,7.2783,7.3283,7.3007,7.1206,6.9013,6.6782,6.4743,6.3012,6.2316,6.3622,6.5451,6.7133,6.8403,6.8622,6.8262,6.7192,6.5465,6.4545,0.0,0.0,0.0,6.6258,6.9025,7.0665,7.0521,7.1963,7.2723,7.2582,7.1239,7.055,7.055,6.899,6.8115,6.7926,6.7873,6.7873,6.7926,6.782,6.7179,6.6101,6.5534,6.4664,6.3576,6.3013,6.2499,6.201,6.1765,6.103,6.0135,6.0027,5.9649,5.9143,5.8419,5.819,5.8201,5.8246,5.8257,5.8257,5.8257,5.8257,5.8268,5.8345,5.8367,5.8389,5.8491,5.854,5.8635,5.8702,5.8976,5.928,5.947,5.978,6.0098,6.0239,5.9987,5.9652,5.9364,5.7979,5.6653,5.5764,5.5063,5.4172,5.297,5.232,5.1356,4.9723,4.934,4.8785,4.7799,4.7189,4.6742,4.6509,4.6206,4.6206,4.6475,4.6475,4.6475,4.6475,4.6475,4.6475,4.6475,4.6475,4.6475,4.6475,4.6475,4.6475,5.8511,6.2435,6.6013,7.009,7.236,7.3776,7.443,7.3853,7.2199,6.8776,6.5276,6.2083,0.0,0.0,5.7483,6.0032,6.2496,6.4991,6.7523,6.8466,6.856,0.0,0.0,0.0,0.0,0.0,0.0,6.7669,6.9849,7.1132,7.102,7.2233,7.2867,7.2737,7.181,7.1321,7.1335,6.9907,6.8917,6.8383,6.8258,6.8221,6.8284,6.8018,6.7029,6.5493,6.5353,6.4334,6.2805,6.2805,6.2805,6.2757,6.2119,6.1848,6.1785,6.1274,6.1106,6.0885,5.9266,5.8694,5.8683,5.8751,5.8783,5.8783,5.8745,5.8708,5.8708,5.8719,5.8729,5.8729,5.8739,5.8865,5.9053,5.9112,5.9434,5.9752,5.9876,6.0143,6.0394,6.0565,6.0648,6.0447,5.9654,5.8171,5.6786,5.5901,5.5747,5.505,5.3289,5.3042,5.2406,5.0847,4.9887,4.9375,4.9389,4.7928,4.7312,4.8043,4.7389,4.7312,4.8082,4.8082,4.8082,4.8082,4.8082,4.8082,4.8082,4.8082,4.8082,4.8082,4.8082,4.8082,6.3782,6.8129,7.1622,7.3315,7.4553,7.4938,7.3206,7.0706,6.7789,6.4403,5.9973,5.6357,0.0,0.0,0.0,5.6416,5.9541,0.0,6.5771,6.7867,0.0,6.9531,0.0,6.8991,6.9625,7.0061,0.0,0.0,7.2095,7.2503,7.2231,7.2932,7.3233,7.3003,7.1996,7.1508,7.1604,7.085,7.0127,6.9507,6.9446,6.9062,6.8383,6.8159,6.7119,6.5493,6.5353,6.4398,6.2953,6.2953,6.3063,6.3242,6.3055,6.2738,6.2324,6.2337,6.2055,6.1606,6.1402,6.1055,6.0621,6.0007,5.9821,5.9709,5.9102,5.8905,5.8945,5.9092,5.913,5.9168,5.9271,5.9344,5.9417,5.9523,5.9769,6.003,6.0129,6.038,6.0623,6.066,6.0716,6.0494,5.966,5.8665,5.7665,5.6786,5.6132,5.5313,5.4243,5.3546,5.2738,5.1672,5.0836,5.0077,4.9433,4.9009,4.8586,4.812,4.7928,4.7889,4.8082,4.8082,4.8082,4.8082,4.8082,4.8082,4.8082,4.8082,4.8082,4.8082,4.8082,4.8082,6.8629,7.2206,7.4899,7.6053,7.5899,7.4745,7.2206,6.8436,6.4243,6.0133,5.5555,0.0,5.0164,4.9394,0.0,0.0,0.0,0.0,6.5204,6.8131,7.018,0.0,7.1125,0.0,7.1851,7.2285,7.2738,0.0,7.3392,7.3374,7.3145,7.3599,7.3727,7.3452,7.2735,7.2262,7.2071,7.1802,7.1235,7.0349,7.0267,6.9784,6.8878,6.8225,6.717,6.5863,6.5324,6.4401,6.3254,6.3312,6.338,6.3553,6.3683,6.3526,6.3262,6.3575,6.3455,6.3216,6.3474,6.3407,6.298,6.1691,6.124,6.1164,6.0712,6.0326,6.0033,6.0138,5.9937,5.969,5.9744,5.9801,5.982,5.9945,6.0159,6.0356,6.0401,6.0604,6.0734,6.0734,6.0763,6.0512,5.9665,5.9127,5.8396,5.717,5.6593,5.5978,5.5131,5.428,5.3274,5.2038,5.1505,5.0894,5.0053,4.963,4.9356,4.924,4.8894,4.8856,4.924,4.924,4.924,4.924,4.924,4.924,4.924,4.924,4.924,4.924,4.924,4.924,7.2853,7.5245,7.6784,7.8023,7.6438,7.3699,7.0591,6.5929,6.0814,5.5588,0.0,4.7702,4.5513,4.5817,4.7543,5.1005,0.0,6.0473,6.4788,6.8338,7.0842,7.1804,7.2622,7.3144,7.3259,7.3955,7.4448,7.4522,7.4311,7.4123,7.3944,7.4227,7.4233,7.3932,7.3739,7.3354,7.2753,7.2918,7.2347,7.113,7.1002,7.0501,6.9615,6.8451,6.7369,6.6399,6.5434,6.4513,6.3691,6.3727,6.3803,6.3851,6.4189,6.4281,6.4368,6.475,6.4943,6.5005,6.5213,6.536,6.5169,6.3375,6.2788,6.2788,6.2673,6.2094,6.1515,6.153,6.0951,6.0342,6.0349,6.0294,6.0289,6.0346,6.0468,6.0617,6.0679,6.074,6.0787,6.0787,6.0787,6.0556,5.9819,5.9588,5.9011,5.7555,5.7132,5.6709,5.5978,5.5054,5.3933,5.2428,5.2159,5.1736,5.0938,5.0164,5.001,5.0668,4.9976,4.9899,5.0668,5.0707,5.0707,5.0707,5.0707,5.0707,5.0707,5.0707,5.0707,5.0707,5.0707,5.0707,7.5676,7.7861,7.89,7.7792,7.5592,7.2122,6.6006,6.0666,0.0,0.0,4.5581,4.2966,4.2543,4.3162,4.5086,4.9163,5.351,5.7863,6.2172,6.6217,6.955,0.0,7.3331,7.4464,7.5154,7.5448,0.0,0.0,7.5579,7.542,7.5104,7.4895,7.4567,7.4085,7.4173,7.4143,7.3989,7.4357,7.3751,7.231,7.2272,7.1427,6.9824,6.9255,6.813,6.6624,6.6238,6.5304,6.4098,6.4118,6.4291,6.4595,6.4687,6.4848,6.5068,6.5236,6.5345,6.5435,6.5632,6.5726,6.5514,6.4235,6.3855,6.3703,6.3061,6.2755,6.261,6.2682,6.2084,6.144,6.1579,6.1056,6.0533,6.0546,6.061,6.0679,6.0691,6.074,6.0787,6.0787,6.0787,6.0748,6.0589,5.9973,5.9396,5.9127,5.7901,5.6945,5.6786,5.5439,5.4395,5.4087,5.339,5.262,5.1774,5.1543,5.1236,5.0745,5.0553,5.0553,5.0707,5.0707,5.0707,5.0707,5.0707,5.0707,5.0707,5.0707,5.0707,5.0707,5.0707,5.0707,7.6484,7.8169,7.8823,7.7599,7.4399,6.9968,6.4012,0.0,0.0,0.0,4.2854,4.0508,4.0508,4.1931,0.0,4.7548,5.201,5.6395,6.0204,6.4757,0.0,7.1189,7.3344,7.4935,0.0,7.5894,7.5955,7.5955,7.5955,7.5887,7.5682,7.5342,7.5047,7.474,7.4733,7.4763,7.4839,7.5057,7.4413,7.2902,7.2919,7.1985,7.0285,6.9561,6.8734,6.7874,6.7231,6.6579,6.5963,6.6056,6.6181,6.6345,6.5972,6.5924,6.6002,6.5707,6.5618,6.5667,6.5813,6.5846,6.5756,6.5196,6.5046,6.497,6.4593,6.4133,6.3794,6.3827,6.3181,6.2529,6.2599,6.2337,6.1914,6.1498,6.1061,6.074,6.074,6.0763,6.0787,6.0787,6.0787,6.0787,6.0787,6.0435,6.0012,5.9588,5.8819,5.8171,5.7742,5.6593,5.5478,5.4587,5.4126,5.351,5.2659,5.2582,5.2236,5.1395,5.1318,5.1125,5.0707,5.0707,5.0707,5.0707,5.0707,5.0707,5.0707,5.0707,5.0707,5.0707,5.0707,5.0707,7.6053,7.7599,7.8176,7.6823,7.2937,6.7898,6.2056,5.5247,0.0,0.0,4.0858,3.8819,3.8973,4.0819,4.3162,0.0,5.0317,5.4587,5.7973,6.282,6.7058,0.0,7.2514,0.0,7.563,7.5899,0.0,7.6015,7.6015,7.5978,7.5895,7.5666,7.5459,7.5383,7.529,7.5252,7.5345,7.5268,7.4552,7.3216,7.3039,7.2195,7.0699,6.9812,6.9281,6.9025,6.8286,6.7833,6.7706,6.7779,6.7873,6.7836,6.7339,6.7007,6.6806,6.6273,6.5967,6.5826,6.5878,6.5904,6.5904,6.5904,6.5904,6.5904,6.5904,6.5436,6.4897,6.4897,6.4237,6.3583,6.3583,6.3429,6.3121,6.2518,6.171,6.1095,6.1095,6.0941,6.0787,6.0787,6.0787,6.0787,6.0787,6.0787,6.0556,5.9896,5.9627,5.9281,5.8621,5.7819,5.6786,5.5434,5.4972,5.4395,5.3549,5.3472,5.3121,5.2236,5.2197,5.189,5.1246,5.1246,5.1246,5.1246,5.1246,5.1246,5.1246,5.1246,5.1246,5.1246,5.1246,5.1246,7.4245,7.6669,7.7753,7.463,7.1161,6.6353,5.8165,0.0,0.0,4.0935,3.8277,3.7196,3.7969,3.8973,4.0704,0.0,0.0,5.1048,5.4472,5.9363,6.3788,6.7058,0.0,0.0,7.4661,7.5553,7.6015,7.6015,7.6015,7.5978,7.5895,7.5872,7.5785,7.5574,7.5611,7.5611,7.5574,7.4972,7.4221,7.3268,7.2546,7.1708,7.0772,7.0494,6.9957,6.9276,6.9105,6.8647,6.7959,6.7967,6.8095,6.8262,6.8199,6.7703,6.707,6.7006,6.6506,6.5891,6.5897,6.5904,6.5904,6.5904,6.5904,6.5904,6.5904,6.5827,6.5788,6.5788,6.5166,6.4474,6.4474,6.3891,6.3275,6.3198,6.2551,6.1979,6.1979,6.1364,6.0787,6.0787,6.0787,6.0787,6.0787,6.0787,6.0781,6.071,6.0012,5.9473,5.9396,5.8665,5.8127,5.7967,5.6511,5.5247,5.4434,5.4395,5.401,5.3121,5.3082,5.3044,5.2967,5.2972,5.2972,5.2972,5.2972,5.2972,5.2972,5.2972,5.2972,5.2972,5.2972,5.2972,7.0699,7.3168,7.4252,7.2399,6.8622,6.3506,5.6549,0.0,4.4586,4.0204,3.7546,3.6388,3.7738,3.8703,4.0242,0.0,0.0,0.0,5.1823,5.6132,6.0479,6.4359,6.7821,0.0,0.0,0.0,7.5438,7.5976,7.6476,7.6538,7.6009,7.5963,7.5933,7.5833,7.5864,7.5864,7.5833,7.5049,7.4233,7.3426,7.2549,7.1703,7.0857,7.0787,7.0573,7.0273,7.0237,7.0045,6.9735,6.9735,6.9809,6.9819,6.9319,6.8641,6.7821,6.7289,6.6596,6.5904,6.5904,6.5904,6.5904,6.5904,6.5904,6.5904,6.5904,6.5904,6.5904,6.5904,6.5628,6.5397,6.5397,6.4743,6.4083,6.4083,6.3435,6.282,6.282,6.2551,6.232,6.232,6.232,6.2166,6.1672,6.1595,6.1402,6.0864,6.0517,6.0281,6.0281,5.955,5.9011,5.9011,5.7973,5.6934,5.6093,5.6016,5.5439,5.4087,5.3972,5.3741,5.3236,5.3197,5.3197,5.3197,5.3197,5.3197,5.3197,5.3197,5.3197,5.3197,5.3197,5.3197,6.6667,6.9052,7.0059,6.8936,6.5199,6.0275,0.0,0.0,4.297,3.9627,3.7081,3.6,3.77,3.8511,3.9819,0.0,0.0,4.7124,4.9938,5.3746,5.7824,0.0,0.0,6.9353,7.2783,7.4553,7.5707,7.6322,7.6938,7.6907,7.6053,7.6015,7.6015,7.6015,7.6015,7.5861,7.563,7.4776,7.393,7.3129,7.2245,7.1475,7.0898,7.0898,7.0898,7.0898,7.0898,7.0898,7.0898,7.0898,7.0898,7.0821,7.0014,6.9161,6.8276,6.7398,6.6596,6.5904,6.5904,6.5904,6.5904,6.5904,6.5904,6.5904,6.5904,6.5904,6.5904,6.5904,6.5904,6.5904,6.5904,6.5436,6.4974,6.4974,6.4314,6.366,6.366,6.3468,6.3314,6.3314,6.3314,6.3121,6.2557,6.2249,6.1903,6.1287,6.0979,6.0787,6.0787,6.0242,5.9896,5.9896,5.9396,5.8588,5.7478,5.7363,5.6786,5.5324,5.5247,5.4857,5.3972,5.3933,5.3933,5.3933,5.3933,5.3933,5.3933,5.3933,5.3933,5.3933,5.3933,5.3933,6.2198,6.4628,6.5551,6.3814,6.0852,5.6775,0.0,4.6163,4.2124,3.8738,3.6657,3.6,3.77,3.8007,3.9123,4.2547,0.0,0.0,4.8933,5.2356,5.6088,0.0,0.0,6.8443,7.1867,7.5291,7.7292,7.7292,7.7292,7.6907,7.6053,7.6015,7.6015,7.6015,7.6015,7.5592,7.47,7.3892,7.3091,7.2213,7.1321,7.0898,7.0898,7.0898,7.0898,7.0898,7.0898,7.0898,0.0,7.0898,7.0898,7.0821,7.0014,6.9161,6.8276,6.7398,6.6596,6.5904,6.5904,6.5904,6.5904,6.5904,6.5904,6.5904,6.5904,6.5904,6.5904,6.5904,6.5904,6.5904,6.5904,6.5897,6.5897,6.5897,6.5205,6.4589,6.4589,6.3891,6.3314,6.3314,6.3314,6.3314,6.3275,6.2627,6.2095,6.2095,6.1364,6.0787,6.0787,6.0787,6.0787,6.0787,6.0787,6.0089,5.8429,5.8275,5.7896,5.7016,5.6983,5.6593,5.5708,5.567,5.567,5.567,5.567,5.567,5.567,5.567,5.567,5.567,5.567,5.567,5.539,5.805,5.9556,5.8396,5.6005,5.2697,4.7898,4.3974,4.0512,3.7696,3.6231,3.5846,3.6927,3.7584,3.8931,4.1735,4.2931,0.0,0.0,0.0,0.0,5.8588,6.5359,7.0821,0.0,0.0,7.7292,7.7292,7.7292,7.6907,7.6053,7.6015,7.6015,7.6015,7.5438,7.4976,7.47,7.3322,7.2476,7.2175,7.1321,7.0898,7.0898,7.0898,7.0898,7.0898,7.0898,7.0898,7.086,7.0321,7.009,7.0014,6.9122,6.8282,6.7475,6.7212,6.6596,6.5904,6.5904,6.5904,6.5904,6.5904,6.5904,6.5904,6.5904,6.5904,6.5904,6.5904,6.5904,6.5904,6.5904,6.5904,6.5904,6.5904,6.5705,6.5474,6.5474,6.5282,6.5089,6.5089,6.5089,6.4897,6.4282,6.3974,6.3628,6.3012,6.221,6.1672,6.1672,6.1172,6.0787,6.0787,6.0787,6.0319,5.9204,5.9127,5.8781,5.7934,5.7896,5.7517,5.6632,5.6593,5.6324,5.5708,5.5708,5.5708,5.5708,5.5708,5.5708,5.5708,5.5708,5.5708,0.0,5.1476,5.2559,5.2015,5.0202,0.0,0.0,4.155,3.9011,3.7081,3.6077,3.5846,3.6965,3.7623,3.8931,4.1812,4.3008,4.4739,0.0,0.0,0.0,6.0935,0.0,0.0,0.0,7.6476,7.7292,7.7292,7.7292,7.6907,7.6053,7.5707,7.5515,7.5515,7.4976,7.4392,7.3745,7.2713,7.2021,7.1713,7.1168,7.0898,7.0898,7.0898,7.0898,7.0898,7.0898,7.0744,0.0,6.9898,6.9513,6.9122,6.8244,6.759,6.7058,6.675,6.6327,6.5904,6.5904,6.5904,6.5904,6.5904,6.5904,6.5904,6.5904,6.5904,6.5904,6.5904,6.5904,6.5904,6.5904,6.5904,6.5904,6.5904,6.5904,6.5904,6.5904,6.5904,6.5904,6.5904,6.5904,6.575,6.5166,6.482,6.4436,6.3852,6.3089,6.2557,6.2557,6.2089,6.1627,6.1325,6.1287,6.0941,6.005,5.9973,5.9627,5.8819,5.8736,5.8357,5.7517,5.7478,5.7247,5.6703,5.6665,5.6665,5.6665,5.6665,5.6665,5.6665,5.6665,5.6665,0.0,4.5056,0.0,0.0,0.0,0.0,4.0704,3.9088,0.0,3.6773,3.6077,3.6077,3.7623,3.8046,3.9238,4.247,4.3778,4.5547,0.0,5.2587,0.0,0.0,7.0174,7.3213,7.5745,7.6746,7.7215,7.7292,7.7253,7.6823,7.5938,7.513,7.4661,7.4546,7.4514,7.3783,7.2213,7.2136,7.1713,7.0898,7.0898,7.0898,7.0898,7.0898,7.0898,7.0898,7.0821,7.0398,6.9706,6.9552,6.9052,6.8237,6.7359,6.7019,6.6904,6.6173,6.5904,6.5904,6.5904,6.5904,6.5904,6.5904,6.5904,6.5904,6.5904,6.5904,6.5904,6.5904,6.5904,6.5904,6.5904,6.5904,6.5904,6.5904,6.5904,6.5904,6.5904,6.5904,6.5904,6.5904,6.5904,6.5904,6.5904,6.5243,6.4705,6.4705,6.3929,6.3391,6.3391,6.3352,6.3006,6.2287,6.2133,6.1787,6.0979,6.0825,6.0435,5.9627,5.9588,5.9242,5.8429,5.8396,5.8352,5.8313,5.8313,5.8313,5.8313,5.8313,5.8313,5.8313,5.8313,5.8313,3.7119,0.0,4.1708,4.1708,4.0935,3.9896,0.0,3.7777,3.6773,3.5962,3.6115,3.6542,3.6927,3.8584,4.0396,4.185,4.3893,4.6244,4.9009,5.5131,0.0,6.7398,7.0514,7.3213,7.5745,7.6207,7.6592,7.7253,7.6669,7.5938,7.5053,7.4815,7.413,7.2822,7.2783,7.2598,7.2213,7.1552,7.1091,7.0898,7.0898,7.0898,7.0898,7.0898,7.0898,7.086,7.0244,6.986,6.959,6.8244,6.759,6.7321,6.6513,6.6173,6.6173,6.5981,6.5904,6.5904,6.5904,6.5904,6.5904,6.5904,6.5904,6.5904,6.5904,6.5904,6.5904,6.5904,6.5904,6.5904,6.5904,6.5904,6.5904,6.5904,6.5904,6.5904,6.5904,6.5904,6.5904,6.5904,6.5904,6.5904,6.5904,6.575,6.559,6.559,6.4859,6.4282,6.4282,6.3698,6.3237,6.3051,6.248,6.2018,6.1826,6.1172,6.0704,6.0517,6.0473,6.0127,5.9242,5.9204,5.8934,5.8313,5.8313,5.8313,5.8313,5.8313,5.8313,5.8313,5.8313,5.8313,3.5465,3.735,3.8777,3.8777,3.8742,3.8588,3.8123,3.7623,3.7157,3.6734,3.7004,3.7542,3.8315,3.9892,4.1777,4.3812,4.5932,4.8899,0.0,0.0,6.4282,6.8975,7.1475,7.363,7.5784,7.6015,7.6207,7.6669,7.5899,7.5207,7.4738,7.3976,7.3129,7.2213,7.1828,7.1591,7.1591,7.1129,7.0898,7.0898,7.0898,7.0898,7.0898,7.0514,7.036,7.0283,6.9468,6.9084,6.9052,6.809,6.7705,6.7667,6.7205,6.7051,6.7051,6.7051,6.7051,6.6974,6.6596,6.6211,6.5904,6.5904,6.5904,6.5904,6.5904,6.5904,6.5904,6.5904,6.5904,6.5904,6.5904,6.5904,6.5904,6.5904,6.5904,6.6013,6.6365,6.6173,6.6019,6.6365,6.6134,6.5904,6.5904,6.5904,6.5904,6.5904,6.5513,6.5205,6.5205,6.4782,6.4359,6.3929,6.3512,6.2941,6.2172,6.1672,6.1248,6.0825,6.0787,6.0589,6.0127,6.0089,5.9896,5.9473,5.9435,5.9435,5.9435,5.9435,5.9435,5.9435,5.9435,5.9435,3.6042,3.6811,3.6888,3.6888,3.7465,3.8007,3.8007,0.0,0.0,0.0,0.0,0.0,0.0,4.1816,4.362,4.6774,4.9125,5.2779,5.9165,6.282,6.6359,7.0591,7.2507,7.4161,7.5822,7.6015,7.5938,7.5822,7.513,7.4584,7.4315,7.2976,7.2136,7.2021,7.1283,7.0898,7.0898,7.0898,7.0898,7.0898,7.0783,7.0706,7.0706,6.986,6.9513,6.9475,6.8737,0.0,6.8391,6.8391,6.8391,6.8391,6.8391,6.8391,6.8391,6.8391,6.8391,6.8276,6.7552,6.6789,6.6096,6.6096,6.6013,6.5904,6.5904,6.5981,6.6096,6.6096,6.6096,6.609,6.6244,6.6282,6.6244,6.609,6.6173,6.6436,6.6981,6.6673,6.6474,6.7173,6.6635,6.6096,6.6096,6.5981,6.5936,6.6051,6.5981,6.5936,6.6058,6.5981,6.5628,6.4897,6.4666,6.4012,6.2595,6.2364,6.1979,6.1243,6.0935,6.0787,6.0787,6.0787,6.0787,6.0787,6.0787,6.0787,6.0787,6.0787,6.0787,6.0787,6.0787,6.0787,3.6196,3.7234,3.7815,3.7815,3.7892,3.8007,3.8007,3.8007,0.0,0.0,0.0,0.0,0.0,4.4581,4.6735,4.8702,5.2851,5.7429,6.2083,6.4436,6.7289,7.1521,7.2899,7.4161,7.5822,7.6015,7.5707,7.4969,7.4776,7.4091,7.2675,7.2329,7.1867,7.1129,7.0975,7.0898,7.0898,7.0898,7.0898,7.0898,7.0206,6.9898,6.986,6.9007,6.8584,6.8584,6.8468,6.8391,6.8391,6.8391,6.8391,6.8391,6.8391,6.8391,6.8391,6.8391,6.8391,6.8391,6.8237,6.7628,6.6904,6.6904,6.6442,6.5904,6.5904,6.6365,6.6904,6.6904,6.6904,6.7096,6.7814,6.8007,6.7814,6.7096,6.7475,6.7859,6.725,6.759,6.8045,6.816,6.7513,6.6904,6.6904,6.6365,6.6134,6.6827,6.6327,6.6134,6.6827,6.6327,6.5865,6.5705,6.5051,6.4512,6.4243,6.3551,6.3045,6.2929,6.1589,6.0787,6.0787,6.0787,6.0787,6.0787,6.0787,6.0787,6.0787,6.0787,6.0787,6.0787,6.0787,6.0787,3.6815,3.77,3.8238,3.9127,3.97,4.0042,4.0042,4.0739,4.1508,0.0,0.0,0.0,0.0,0.0,4.9394,5.2938,5.7396,6.1237,6.366,6.6282,6.9013,7.1867,7.336,7.463,7.5861,7.5553,7.5123,7.4738,7.386,7.3014,7.2252,7.1752,7.1321,7.0898,7.0898,7.0898,7.0898,7.0475,7.0244,7.0244,6.9898,6.9436,6.8968,6.809,6.7705,6.7705,6.7705,6.7975,6.843,6.8891,6.9353,6.9738,6.9738,6.9738,6.9738,6.9738,6.9475,6.9084,6.9084,6.8552,6.7782,6.7782,6.7552,6.7244,6.7244,6.7513,6.7898,6.8359,6.8167,6.7898,6.8314,6.8391,6.8314,6.7898,6.8122,6.843,6.8475,6.843,6.8545,6.9007,6.8398,6.7782,6.7782,6.7513,6.7398,6.7744,6.7475,6.7398,6.7744,6.7051,6.6558,6.6558,6.5782,6.5128,6.4628,6.4243,6.3814,6.3314,6.2166,6.1518,6.1518,6.1056,6.0787,6.0787,6.0787,6.0787,6.0787,6.0787,6.0787,6.0787,6.0787,6.0787,3.7123,3.7853,3.8354,3.9858,4.1008,4.185,4.2043,4.3393,4.4782,0.0,0.0,0.0,0.0,5.051,5.301,5.7709,6.1512,6.4352,6.5628,6.8205,7.0514,7.2021,7.3514,7.4661,7.5361,7.4822,7.4315,7.413,7.2937,7.2098,7.1905,7.1245,7.0821,7.0629,7.0629,7.0514,7.0321,6.9706,6.9513,6.9706,6.9283,6.8744,6.809,6.7205,6.6827,6.6827,6.7244,6.7782,6.8468,6.9552,7.036,7.0898,7.0898,7.0898,7.0898,7.0898,7.0514,6.9975,6.9975,6.9436,6.8699,6.8699,6.8584,6.8391,6.8391,6.8545,6.8853,6.9513,6.9353,6.9007,6.9007,6.9007,6.893,6.8737,6.8853,6.9122,6.959,6.9321,6.9161,6.986,6.9276,6.8699,6.8699,6.8545,6.8468,6.866,6.8545,6.8468,6.866,6.7936,6.7398,6.7398,6.6859,6.6128,6.5243,6.5205,6.482,6.3968,6.2935,6.2364,6.2364,6.1556,6.121,6.1396,6.121,6.121,6.1396,6.1396,6.1281,6.1095,6.1095,6.1095,3.6542,3.7388,3.8238,3.9165,4.0585,4.2004,4.2816,4.4282,4.6167,4.8552,0.0,0.0,0.0,5.5467,5.8813,6.2275,6.4474,6.6551,6.8975,7.0206,7.1168,7.2098,7.3014,7.3623,7.3661,7.3623,7.3238,7.2444,7.229,7.186,7.1052,7.0937,7.0552,6.9821,6.9783,6.9398,6.8584,6.8507,6.8891,6.9667,6.8058,6.725,6.7173,6.6365,6.5981,6.6058,6.7628,6.8353,6.8545,7.0167,7.086,7.0898,7.0898,7.0898,7.0898,7.0898,7.086,7.0821,7.0821,7.0283,6.9629,6.9629,6.9045,6.8391,6.8391,6.8968,6.9629,6.9667,7.0206,7.0706,7.0706,7.0706,7.0514,6.9783,7.0167,7.0514,6.986,7.0244,7.0744,7.0783,7.0167,6.9629,6.9629,6.893,6.866,6.9475,6.893,6.8699,6.9513,6.8853,6.8314,6.8314,6.8237,6.7859,6.6981,6.6904,6.6558,6.5743,6.4128,6.3198,6.3198,6.2441,6.2364,6.3121,6.2403,6.2358,6.3121,6.3121,6.2743,6.2018,6.2018,6.2018,3.6462,3.735,3.8315,3.9704,4.1704,4.3585,0.0,4.7591,5.0741,5.2241,5.3818,0.0,0.0,5.8704,6.1243,6.3006,6.5622,6.7975,6.9475,7.086,7.1828,7.2175,7.2976,7.3507,7.3507,7.3014,7.2552,7.2213,7.1713,7.1245,7.0937,7.0437,7.0014,6.9706,6.9161,6.8737,6.8391,6.7859,6.7744,6.809,6.7404,6.6827,6.6327,6.6058,6.5904,6.5981,6.709,6.7898,6.8507,6.9667,7.0437,7.0898,7.0898,7.0898,7.0898,7.0898,7.0898,7.0898,7.0898,7.0706,7.0437,7.0437,7.0206,6.9937,6.9937,7.0167,7.0437,7.0437,7.0667,7.0898,7.0898,7.0898,7.0821,7.0514,7.0667,7.0821,7.0514,7.0706,7.0898,7.0898,7.0667,7.0437,7.0437,7.0167,7.009,7.0398,7.0167,7.009,7.0398,6.9706,6.9206,6.9206,6.8737,6.8276,6.7936,6.7898,6.7552,6.6712,6.5051,6.4128,6.4128,6.332,6.2974,6.3275,6.3006,6.3012,6.3314,6.3314,6.3121,6.2858,6.2858,6.2858,3.6462,3.735,3.8469,4.0435,4.3047,0.0,4.7552,5.0894,5.4164,5.6088,5.8319,5.989,5.989,0.0,6.2935,6.4282,6.6699,6.8776,6.9937,7.1283,7.2098,7.1828,7.2552,7.2969,7.2699,7.2129,7.1783,7.1783,7.1014,7.0514,7.0514,6.9744,6.9167,6.8898,6.8282,6.7859,6.7628,6.7013,6.6712,6.6712,6.6712,6.6442,6.5904,6.5904,6.5904,6.5936,6.675,6.7436,6.809,6.9244,7.0167,7.0898,7.0898,7.0898,7.0898,7.0898,7.0898,7.0898,7.0898,7.0898,7.0898,7.0898,7.0898,7.0898,7.0898,7.0898,7.0898,7.0898,7.0898,7.0975,7.1245,7.1091,7.0898,7.0898,7.0898,7.0898,7.0898,7.0898,7.0898,7.0898,7.0898,7.0898,7.0898,7.0898,7.0898,7.0898,7.0898,7.0898,7.0898,7.0437,7.009,7.009,6.9552,6.9084,6.8814,6.8814,6.843,6.7552,6.6436,6.5551,6.5013,6.4166,6.3852,6.4122,6.3852,6.3852,6.4122,6.4122,6.3968,6.3698,6.3698,6.3698,3.6462,3.735,3.8623,4.1196,0.0,0.0,5.2274,5.3933,5.5742,6.0017,6.2204,6.3352,6.3352,6.3352,6.416,6.6712,6.7859,6.9007,7.0667,7.1636,7.1867,7.1014,7.1668,7.186,7.0975,7.0898,7.0898,7.0898,7.0129,6.9706,6.9706,6.8853,6.7968,6.7135,6.7096,6.6712,6.5904,6.5904,6.5904,6.5904,6.5904,6.5904,6.5904,6.5904,6.5904,6.5936,6.675,6.7096,6.725,6.8975,7.0167,7.0898,7.0898,7.0898,7.0898,7.0898,7.0898,7.0898,7.0898,7.0898,7.0898,7.0898,7.0898,7.0898,7.0898,7.0898,7.0898,7.0898,7.0898,7.1091,7.1982,7.1552,7.0898,7.0937,7.0937,7.0898,7.0898,7.0898,7.0898,7.0898,7.0898,7.0898,7.0898,7.0898,7.0898,7.0898,7.0898,7.0898,7.0898,7.0898,7.0898,7.0898,7.0898,7.0591,6.9783,6.9706,6.936,6.8468,6.8391,6.766,6.5974,6.5089,6.5051,6.5904,6.5089,6.5051,6.5904,6.5904,6.5474,6.4628,6.4628,6.4628,3.6462,3.7777,3.9665,4.2777,0.0,0.0,0.0,5.7478,0.0,0.0,6.6051,6.5974,6.5974,6.5974,6.6436,6.7782,6.8744,6.9706,7.0744,7.1129,7.1206,7.0937,7.1129,7.0975,7.0129,7.0052,6.9821,6.9199,6.893,6.8776,6.8776,6.7975,6.709,6.6288,6.625,6.5865,6.4974,6.559,6.5904,6.5904,6.5904,6.5904,6.5904,6.5904,6.5904,6.5904,6.6134,6.6596,6.7173,6.8321,6.9276,7.0052,7.0052,7.0398,7.0898,7.0898,7.0898,7.0898,7.0898,7.0898,7.0898,7.0898,7.0898,7.0898,7.0898,7.0898,7.0898,7.0898,7.0898,7.1091,7.1982,7.2021,7.1975,7.2584,7.2245,7.1828,7.1828,7.1321,7.0898,7.0898,7.0898,7.0898,7.0898,7.0898,7.0898,7.0898,7.0898,7.0898,7.0898,7.0898,7.0898,7.0898,7.0898,7.0783,7.0552,7.0552,7.0206,6.936,6.9321,6.8821,6.7699,6.7391,6.7391,6.766,6.7391,6.7391,6.766,6.766,6.7545,6.7276,6.7276,6.7276,3.7427,3.9008,4.1162,4.4893,4.8394,5.2587,5.9056,0.0,0.0,0.0,6.8513,6.8129,6.8129,6.7859,6.7898,6.8776,6.9353,6.9975,7.0783,7.0898,7.0898,7.0898,7.0629,7.0244,6.9744,6.9398,6.8821,6.7936,6.759,6.7276,6.6891,6.6051,6.5359,6.4897,6.4859,6.4628,6.4083,6.4589,6.4859,6.4859,6.5205,6.5397,6.5397,6.5743,6.5904,6.5904,6.5904,6.6365,6.7135,6.7667,6.8391,6.9161,6.9161,6.9475,6.9937,7.0283,7.0437,7.0475,7.0783,7.0898,7.0898,7.0898,7.0898,7.0898,7.0898,7.0898,7.0898,7.0898,7.0898,7.1091,7.1982,7.2476,7.286,7.3392,7.3091,7.2706,7.2706,7.2014,7.1514,7.186,7.136,7.1014,7.136,7.1129,7.0898,7.0898,7.0898,7.0898,7.0898,7.0898,7.0898,7.0898,7.0898,7.0898,7.0898,7.0898,7.0706,7.0206,7.0167,6.9937,6.9391,6.8737,6.8391,6.8391,6.8391,6.8391,6.8391,6.8391,6.8391,6.8391,6.8391,6.8391,3.8819,4.0585,4.2966,4.7274,5.1202,0.0,6.3974,6.6519,6.7712,6.9436,0.0,6.9821,6.9821,6.9161,6.8891,6.9667,6.9821,7.0052,7.0783,7.0821,7.0783,7.0783,7.009,6.9513,6.936,6.8622,6.7782,6.6827,6.6096,6.532,6.4512,6.3737,6.3275,6.3198,6.3275,6.3275,6.3198,6.3275,6.3314,6.3314,6.4089,6.4474,6.4512,6.5474,6.5904,6.5904,6.5904,6.6327,6.6981,6.6981,6.7513,6.8276,6.8276,6.8314,6.8507,6.9276,6.9629,6.9821,7.0552,7.0821,7.0898,7.0898,7.0898,7.0898,7.0898,7.0898,7.0898,7.0898,7.0898,7.1091,7.1982,7.2783,7.343,7.3584,7.3623,7.3584,7.3507,7.2822,7.2399,7.3122,7.2052,7.1283,7.2059,7.1591,7.1129,7.1129,7.1129,7.1129,7.1014,7.1091,7.1129,7.1014,7.1091,7.1129,7.1129,7.1129,7.1129,7.1129,7.1129,7.1091,7.1014,6.9475,6.8622,6.8622,6.8622,6.8622,6.8622,6.8622,6.8622,6.8622,6.8622,6.8622,3.8819,4.1008,0.0,4.8899,5.5208,6.1018,6.4166,6.6551,6.8584,7.0283,7.0629,7.0629,7.0629,7.0475,7.0437,7.0591,7.0629,7.0706,7.0898,7.036,6.9975,6.9975,6.9206,6.816,6.6821,6.6551,6.5782,6.4237,6.3968,6.3775,6.3583,6.3391,6.3006,6.2364,6.2974,6.3012,6.2364,6.2974,6.3314,6.3314,6.3506,6.3583,6.3622,6.5205,6.5904,6.5904,6.5904,6.6013,6.6173,6.6173,6.6635,6.7366,6.7366,6.7782,6.843,6.8622,6.9122,6.9706,6.9898,7.036,7.0898,7.0898,7.0898,7.0898,7.0898,7.0898,7.0898,7.0898,7.0898,7.1091,7.1982,7.2329,7.2822,7.413,7.443,7.4276,7.3623,7.2822,7.2059,7.1552,7.1706,7.1982,7.2175,7.2629,7.293,7.293,7.293,7.2699,7.2014,7.2514,7.2668,7.1982,7.2514,7.293,7.293,7.293,7.293,7.293,7.293,7.2629,7.1944,7.0937,7.036,7.036,7.036,7.036,7.036,7.036,7.036,7.036,7.036,7.036,3.9472,4.2079,0.0,5.2135,0.0,6.1627,6.4551,6.6244,6.7667,6.9353,7.036,7.0783,7.0398,7.0321,7.0206,6.9783,6.9699,6.9699,6.9699,6.9353,6.909,6.909,6.7975,6.6859,6.5974,6.5166,6.4128,6.282,6.2743,6.2551,6.2127,6.2089,6.1897,6.1479,6.1897,6.1897,6.1479,6.1897,6.2089,6.2127,6.2512,6.2935,6.3314,6.4243,6.4897,6.5282,6.5282,6.5513,6.5904,6.5904,6.6134,6.6519,6.6519,6.6782,6.7244,6.7628,6.8321,6.9129,6.9552,7.0244,7.0898,7.0898,7.0898,7.0898,7.0898,7.0898,7.0898,7.0898,7.0898,7.1014,7.1475,7.1905,7.2406,7.3283,7.413,7.47,7.4707,7.4014,7.3399,7.336,7.3053,7.2937,7.3322,7.3437,7.3507,7.3507,7.3507,7.3353,7.2899,7.3199,7.3315,7.286,7.3238,7.3507,7.3507,7.3507,7.3507,7.3507,7.3507,7.3315,7.2822,7.2399,7.1745,7.0937,7.1321,7.1514,7.1514,7.1514,7.1514,7.1514,7.1091,7.0898,3.9981,4.33,4.7939,5.468,5.7934,0.0,6.4166,6.5474,6.6282,6.766,6.9314,7.0283,6.959,6.9475,6.9237,6.8507,6.8391,6.8391,6.8391,6.8276,6.8122,6.7968,6.6628,6.5557,6.5288,6.3935,6.2743,6.1941,6.1864,6.1556,6.0825,6.0787,6.0787,6.0787,6.0787,6.0787,6.0787,6.0787,6.0787,6.0825,6.1518,6.221,6.2852,6.2852,6.3429,6.4397,6.4551,6.5013,6.5705,6.5827,6.5904,6.5904,6.5904,6.5904,6.5981,6.6635,6.7513,6.8507,6.9237,7.009,7.0898,7.0898,7.0898,7.0898,7.0898,7.0898,7.0898,7.0898,7.0898,7.0898,7.0898,7.1437,7.2021,7.2175,7.336,7.47,7.5399,7.513,7.4853,7.5476,7.4546,7.3969,7.4776,7.4353,7.393,7.393,7.393,7.3892,7.3738,7.3853,7.3853,7.3738,7.3853,7.393,7.393,7.393,7.393,7.393,7.393,7.3853,7.3699,7.3699,7.2969,7.1398,7.2052,7.2399,7.2399,7.2399,7.2399,7.2399,7.1668,7.136,3.9318,0.0,4.9673,0.0,5.6626,5.9858,0.0,0.0,6.5981,0.0,6.759,6.8699,6.8584,6.8584,6.8545,6.843,6.8391,6.8391,6.8391,6.7744,6.7013,6.632,6.5359,6.4205,6.2749,6.2403,6.1903,6.1056,6.0979,6.0941,6.0825,6.0787,6.0787,6.0787,6.0787,6.0787,6.0787,6.0787,6.0787,6.0787,6.0941,6.1018,6.1127,6.1127,6.1973,6.3506,6.4282,6.4666,6.482,6.559,6.5904,6.5904,6.5904,6.5904,6.5904,6.6019,6.7051,6.843,6.8545,6.959,7.0898,7.0898,7.0898,7.0898,7.0898,7.0898,7.0898,7.0898,7.0898,7.0898,7.0898,7.0975,7.1245,7.2021,7.2937,7.3699,7.3815,7.4276,7.4546,7.393,7.4199,7.4815,7.5668,7.5745,7.5668,7.5668,7.5668,7.5399,7.4623,7.5207,7.5399,7.4623,7.5207,7.5668,7.5668,7.5668,7.5668,7.5668,7.5668,7.5322,7.4584,7.4546,7.4084,7.3161,7.3276,7.3315,7.3315,7.3315,7.3315,7.3315,7.3199,7.3161,4.1657,4.5062,4.873,0.0,5.4582,5.728,5.955,6.1589,6.332,6.4243,6.5045,6.5968,6.7398,6.7667,6.7513,6.7051,6.7013,6.6821,6.6353,6.5936,6.5397,6.4551,6.3705,6.2903,6.2172,6.1672,6.121,6.0825,6.0787,6.0787,6.0787,6.0787,6.0787,6.0787,6.0787,6.0787,6.0787,6.0787,6.0787,6.0787,6.0787,6.0787,6.0787,6.0787,6.1479,6.2666,6.3018,6.3743,6.4628,6.5013,6.5474,6.5904,6.5904,6.5904,6.5904,6.5904,6.6974,6.8391,6.8391,6.9507,7.0898,7.0898,7.0898,7.0898,7.0898,7.0898,7.0898,7.0898,7.0898,7.0898,7.0898,7.0898,7.1129,7.1982,7.286,7.3623,7.4084,7.4815,7.5322,7.4976,7.5207,7.5553,7.5938,7.6015,7.6015,7.6015,7.6015,7.5861,7.5476,7.5745,7.5861,7.5476,7.5784,7.6015,7.6015,7.6015,7.6015,7.6015,7.6015,7.5822,7.5438,7.5899,7.5976,7.563,7.4661,7.4161,7.4161,7.4161,7.4161,7.4161,7.3699,7.3507,0.0,0.0,4.696,4.9913,5.2246,5.4626,0.0,0.0,6.0627,6.2314,6.2852,6.3628,6.5743,6.6128,6.5936,6.532,6.5243,6.5013,6.4359,6.4282,6.3935,6.3089,6.248,6.2018,6.1787,6.1172,6.0787,6.0787,6.0787,6.0787,6.0787,6.0787,6.0787,6.0787,6.0787,6.0787,6.0787,6.0787,6.0787,6.0787,6.0787,6.0787,6.0787,6.0787,6.1133,6.1787,6.1979,6.2941,6.4282,6.4512,6.5128,6.5904,6.5904,6.5904,6.5904,6.5904,6.6974,6.8391,6.8391,6.9507,7.0898,7.0898,7.0898,7.0898,7.0898,7.0898,7.0898,7.0898,7.0898,7.0937,7.1168,7.1245,7.1437,7.2322,7.3168,7.4046,7.4853,7.5553,7.6015,7.6015,7.6015,7.6015,7.6015,7.6015,7.6015,7.6015,7.6015,7.6015,7.6015,7.6207,7.6322,7.6322,7.6515,7.663,7.663,7.663,7.663,7.663,7.663,7.663,7.663,7.7253,7.7599,7.7599,7.6322,7.5592,7.5361,7.5361,7.5245,7.5007,7.4392,7.4123,0.0,4.3283,0.0,4.6733,4.961,5.2505,0.0,0.0,5.8896,6.0589,6.1595,6.2441,6.3314,6.3506,6.3468,6.3429,6.3429,6.3429,6.3352,6.3352,6.3083,6.2249,6.2133,6.1787,6.0941,6.0825,6.0787,6.0787,6.0787,6.0787,6.0787,6.0787,6.0787,6.0787,6.0787,6.0787,6.0787,6.0787,6.0787,6.0787,6.0787,6.0787,6.0787,6.0787,6.0825,6.0902,6.1749,6.2589,6.3429,6.4275,6.5128,6.5904,6.5904,6.5904,6.5904,6.5904,6.6974,6.8391,6.8391,6.9507,7.0898,7.0898,7.0898,7.0898,7.0898,7.0898,7.0898,7.0898,7.0898,7.1091,7.1905,7.2136,7.236,7.3238,7.4046,7.4892,7.5745,7.5976,7.6015,7.6015,7.6015,7.6015,7.6015,7.6015,7.6015,7.6015,7.6015,7.6015,7.6015,7.6707,7.7215,7.7215,7.7907,7.8369,7.8369,7.8369,7.8369,7.8369,7.8369,7.8369,7.8369,7.8407,7.8446,7.8446,7.8369,7.7946,7.7176,7.7176,7.6746,7.5938,7.5899,7.5861,0.0,0.0,0.0,4.5591,4.7426,4.9422,5.2202,5.3967,5.5665,5.7901,5.8594,5.9248,6.0627,6.2198,6.3314,6.3314,6.3314,6.3121,6.2589,6.2512,6.221,6.1364,6.1287,6.1133,6.0825,6.0787,6.0787,6.0787,6.0787,6.0787,6.0787,6.0787,6.0787,6.0787,6.0787,6.0787,6.0787,6.0787,6.0787,6.0787,6.0787,6.0787,6.0787,6.0787,6.0787,6.0825,6.1133,6.1749,6.2589,6.3435,6.4282,6.5128,6.5667,6.5904,6.5904,6.5904,6.6974,6.8391,6.8391,6.9507,7.0898,7.0898,7.0898,7.0898,7.0898,7.0898,7.1014,7.1598,7.1745,7.1937,7.2822,7.3014,7.3245,7.4084,7.4938,7.563,7.5938,7.6015,7.6015,7.6015,7.6015,7.6015,7.6015,7.6015,7.6207,7.6746,7.6823,7.7015,7.7561,7.7869,7.8061,7.8061,7.833,7.8484,7.8484,7.8484,7.8484,7.8484,7.8484,7.8484,7.8484,7.9054,7.9323,7.9323,7.9862,7.9485,7.8061,7.8061,7.7638,7.6823,7.6823,7.6515,4.1597,0.0,0.0,0.0,4.5484,4.7157,4.9653,5.1327,5.301,5.5247,5.617,5.6978,5.8401,6.0281,6.1814,6.2352,6.2474,6.2281,6.1749,6.1672,6.1441,6.0864,6.0787,6.0787,6.0787,6.0787,6.0787,6.0787,6.0787,6.0787,6.0787,6.0787,6.0787,6.0787,6.0787,6.0787,6.0787,6.0787,6.0787,6.0787,6.0787,6.0787,6.0787,6.0787,6.0787,6.0787,6.0787,6.1287,6.2133,6.2666,6.3589,6.4666,6.5243,6.5628,6.5904,6.5904,6.6974,6.8391,6.8391,6.9507,7.0898,7.0898,7.0898,7.0898,7.0898,7.1091,7.1475,7.2059,7.2399,7.2822,7.3661,7.4123,7.4469,7.5007,7.5592,7.6015,7.6015,7.6015,7.6015,7.6015,7.6015,7.6015,7.6015,7.6245,7.663,7.7215,7.7522,7.7907,7.8446,7.8754,7.8938,7.8938,7.9215,7.9369,7.9369,7.9369,7.9369,7.9369,7.9369,7.9369,7.9369,7.9939,8.0246,8.0246,8.0823,8.0516,7.9369,7.91,7.8523,7.7715,7.7715,7.7407,0.0,0.0,0.0,0.0,0.0,0.0,4.6699,0.0,5.1053,5.2741,5.4395,5.5824,5.6709,5.7588,5.8742,6.0435,6.0748,6.0748,6.0748,6.0787,6.0787,6.0787,6.0787,6.0787,6.0787,6.0787,6.0787,6.0787,6.0787,6.0787,6.0787,6.0787,6.0787,6.0787,6.0787,6.0787,6.0787,6.0787,6.0787,6.0787,6.0787,6.0787,6.0787,6.0787,6.0787,6.0787,6.0787,6.1287,6.2062,6.2095,6.3057,6.4551,6.4589,6.5128,6.5904,6.5942,6.6974,6.8391,6.843,6.9507,7.0898,7.0898,7.0898,7.0898,7.0937,7.1514,7.2213,7.2252,7.2899,7.3738,7.4546,7.5361,7.6015,7.6015,7.6015,7.6015,7.6015,7.6015,7.6015,7.6015,7.6015,7.6015,7.6015,7.6746,7.733,7.7369,7.8061,7.8561,7.8561,7.9323,7.9854,7.9854,8.0592,8.1093,8.1093,8.1093,8.1093,8.1093,8.1093,8.1093,8.1093,8.1093,8.1093,8.1093,8.1093,8.1093,8.1093,8.0246,7.94,7.8523,7.8523,7.8484,4.1089,0.0,0.0,0.0,0.0,0.0,0.0,0.0,4.8431,5.0091,5.1323,5.2515,5.3972,5.4972,5.6088,5.7786,5.905,5.9858,5.9858,6.0396,6.0787,6.0787,6.0787,6.0787,6.0787,6.0787,6.0787,0.0,6.0787,6.0787,6.0787,6.0787,6.0787,6.0787,6.0787,6.0787,6.0787,6.0787,6.0787,6.0787,6.0787,6.0787,6.0787,6.0787,6.0787,6.0787,6.0787,6.0941,6.121,6.1826,6.271,6.3737,6.4359,6.5128,6.5981,6.6558,6.7475,6.8507,6.9122,7.0014,7.0898,7.0898,7.0898,7.1014,7.1629,7.2021,7.2444,7.3668,7.4168,7.4546,7.5438,7.5822,7.6015,7.6015,7.6015,7.6015,7.6015,7.6515,7.6746,7.613,7.6015,7.6207,7.6823,7.7138,7.7715,7.8938,7.9285,7.9669,8.0285,8.0592,8.0746,8.0746,8.0977,8.1093,8.1093,8.1093,8.1093,8.1093,8.1093,8.1093,8.1093,8.1093,8.1093,8.1093,8.1093,8.1093,8.1093,8.0862,8.0285,7.9438,7.8792,7.8484,0.0,0.0,0.0,0.0,0.0,0.0,4.5775,4.6476,4.7229,4.8188,4.9378,5.0495,5.1491,5.2627,5.3767,5.4773,5.6335,5.778,5.8858,5.9435,5.9742,5.9742,5.9742,5.9742,5.9742,5.9742,5.9896,6.0242,6.0242,6.0435,6.0787,6.0787,6.0787,6.0787,6.0787,6.0787,6.0787,6.0787,6.0787,6.0787,6.0787,6.0787,6.0787,6.0787,6.0787,6.0787,6.0787,6.0787,6.0864,6.1749,6.2551,6.3352,6.3852,6.482,6.6013,6.6789,6.7667,6.8507,6.9398,7.0244,7.0898,7.0898,7.0898,7.1052,7.1944,7.2437,7.3014,7.4315,7.4969,7.5361,7.5861,7.6015,7.6015,7.6015,7.6015,7.6092,7.6476,7.6945,7.7138,7.663,7.6823,7.7215,7.7715,7.8092,7.8669,7.9662,8.0123,8.0516,8.1016,8.1093,8.1093,8.1093,8.1093,8.1093,8.1093,8.1093,8.1093,8.1093,8.1093,8.1093,8.1093,8.1093,8.1093,8.1093,8.1093,8.1093,8.1093,8.1093,8.0823,8.0323,7.9823,7.9592,0.0,0.0,0.0,0.0,0.0,0.0,4.4933,4.6011,4.6986,4.6901,4.8119,4.9234,4.9234,5.0545,5.163,5.1703,5.306,5.4993,5.7627,5.8011,5.805,5.8127,5.8165,5.8165,5.8165,5.8236,5.8583,5.9319,5.9358,5.9704,6.0473,6.0512,6.0556,6.0666,6.0666,6.071,6.0787,6.0787,6.0787,6.0787,6.0787,6.0787,6.0787,6.0787,6.0787,6.0787,6.0787,6.0864,6.1018,6.1787,6.2551,6.3314,6.3429,6.4436,6.6019,6.6898,6.7744,6.8545,6.9513,7.0283,7.0898,7.0898,7.0898,7.1091,7.2052,7.2899,7.3699,7.4584,7.5399,7.6015,7.6015,7.6053,7.613,7.613,7.6207,7.6476,7.7292,7.7522,7.7592,7.7592,7.8099,7.8523,7.8638,7.9285,7.9815,7.9931,8.0592,8.1093,8.1093,8.1093,8.1093,8.1093,8.1093,8.1093,8.1093,8.1093,8.1093,8.1093,8.1093,8.1093,8.1093,8.1093,8.1093,8.1093,8.1093,8.1093,8.1093,8.1093,8.1093,8.1093,8.1093,8.1093,0.0,0.0,0.0,0.0,0.0,0.0,4.6968,4.6976,4.6952,4.6267,4.6876,4.7584,4.7584,4.8423,4.9296,4.9958,5.0911,5.2636,5.5758,5.6203,5.6478,5.717,5.7247,5.7247,5.7247,5.7896,5.8352,5.8506,5.8544,5.8627,5.8781,5.8781,5.9088,5.9742,5.9742,6.0089,6.0787,6.0787,6.0787,6.0787,6.0787,6.0787,6.0787,6.0787,6.0787,6.0787,6.0787,6.121,6.1864,6.2018,6.2551,6.3352,6.4083,6.4974,6.609,6.759,6.8237,6.8622,7.0129,7.0783,7.0898,7.0898,7.0898,7.1206,7.2783,7.3353,7.3815,7.5322,7.5861,7.6015,7.6015,7.6515,7.7061,7.7061,7.7561,7.8061,7.8215,7.8823,7.9323,7.9323,7.8861,7.8715,7.9438,7.9708,8.0046,8.0746,8.0977,8.1093,8.1093,8.1093,8.1093,8.1093,8.1093,8.1093,8.1093,8.1093,8.1093,8.1093,8.1093,8.1093,8.1093,8.1093,8.1093,8.1093,8.1093,8.1093,8.1093,8.1093,8.1093,8.1093,8.1093,8.1093,0.0,0.0,0.0,4.7522,0.0,0.0,0.0,4.7335,4.706,4.6185,4.631,4.6607,4.6607,4.7275,4.7937,4.8347,4.9068,5.0317,5.2389,5.3711,5.4657,5.5054,5.5088,5.5088,5.5088,5.5895,5.6742,5.7588,5.805,5.8313,5.8313,5.8313,5.8467,5.8896,5.9281,5.9704,6.0165,6.0589,6.0787,6.0787,6.0787,6.0787,6.0787,6.0787,6.0787,6.0825,6.1248,6.171,6.2172,6.3018,6.3589,6.4006,6.4436,6.5128,6.609,6.7776,6.8391,6.8622,7.0321,7.0898,7.0898,7.0898,7.0898,7.1245,7.2969,7.4084,7.4938,7.5745,7.6322,7.663,7.663,7.7292,7.7907,7.7907,7.8215,7.8638,7.9054,7.9477,7.9931,8.0362,8.0092,7.9939,8.0362,8.0439,8.0592,8.1016,8.1093,8.1093,8.1093,8.1093,8.1093,8.1093,8.1093,8.1093,8.1093,8.1093,8.1093,8.1093,8.1093,8.1093,8.1093,8.1093,8.1093,8.1093,8.1093,8.1093,8.1093,8.1093,8.1093,8.1093,8.1093,8.1093,0.0,0.0,0.0,0.0,0.0,4.8803,0.0,0.0,0.0,4.6312,4.6105,4.6103,4.6103,4.661,4.7002,4.6991,0.0,0.0,0.0,5.1018,0.0,5.2492,5.2477,5.2549,5.2702,5.3664,5.4818,5.617,5.6934,5.739,5.755,5.7582,5.7703,5.805,5.8858,5.9358,5.9511,6.0358,6.0787,6.0787,6.0787,6.0787,6.0787,6.0787,6.0787,6.0864,6.171,6.2172,6.2441,6.3974,6.4705,6.4859,6.4859,6.5282,6.609,6.7776,6.8391,6.8622,7.0321,7.0898,7.0898,7.0898,7.1129,7.1706,7.3276,7.4776,7.6015,7.6015,7.663,7.7292,7.7292,7.8023,7.8754,7.8754,7.8869,7.9177,7.99,8.0046,8.0246,8.0977,8.1093,8.1093,8.1093,8.1093,8.1093,8.1093,8.1093,8.1093,8.1093,8.1093,8.1093,8.1093,8.1093,8.1093,8.1093,8.1093,8.1093,8.1093,8.1093,8.1093,8.1093,8.1093,8.1093,8.1093,8.1093,8.1093,8.1093,8.1093,8.1093,8.1093,8.1093,8.1093,0.0,0.0,0.0,0.0,5.0037,0.0,4.8849,0.0,4.7226,4.6355,0.0,4.6178,4.6178,0.0,0.0,0.0,0.0,0.0,4.749,4.8347,4.9216,4.9824,4.9884,5.013,5.0899,5.2433,5.3433,5.3626,5.3736,5.4126,5.4895,5.4934,5.5593,5.7093,5.7973,5.8781,5.9473,6.0358,6.0787,6.0787,6.0787,6.0787,6.0787,6.0787,6.0787,6.0864,6.171,6.2518,6.3237,6.4199,6.5051,6.5743,6.5743,6.582,6.609,6.7776,6.8391,6.8622,7.0321,7.0898,7.0898,7.0898,7.1937,7.3353,7.4276,7.5245,7.6015,7.6015,7.663,7.7292,7.7292,7.8477,7.9662,7.9662,8.0246,8.0823,8.0939,8.0939,8.0977,8.1093,8.1093,8.1093,8.1093,8.1093,8.1093,8.1093,8.1093,8.1093,8.1093,8.1093,8.1093,8.1093,8.1093,8.1093,8.1093,8.1093,8.1093,8.1093,8.1093,8.1093,8.1093,8.1093,8.1093,8.1093,8.1093,8.1093,8.1093,8.1093,8.1093,8.1093,8.1093,8.1093,0.0,0.0,0.0,0.0,0.0,0.0,4.9175,0.0,4.745,0.0,0.0,0.0,0.0,0.0,0.0,0.0,4.6492,4.6686,0.0,0.0,4.7453,4.8642,0.0,0.0,4.9861,5.0587,5.1202,5.1702,5.2159,5.262,5.2967,5.3933,5.4818,5.5516,5.7357,5.8467,5.8819,6.0127,6.0787,6.0787,6.0787,6.0787,6.0787,6.0787,6.0787,6.0864,6.2204,6.2974,6.3429,6.4782,6.5551,6.5904,6.5904,6.5904,6.609,6.7776,6.8391,6.8622,7.0321,7.0898,7.0975,7.1475,7.2476,7.3661,7.4469,7.5322,7.6092,7.6592,7.7369,7.8099,7.8631,7.9669,8.0554,8.0554,8.0823,8.1093,8.1093,8.1093,8.1093,8.1093,8.1093,8.1093,8.1093,8.1093,8.1093,8.1093,8.1093,8.1093,8.1093,8.1093,8.1093,8.1093,8.1093,8.1093,8.1093,8.1093,8.1093,8.1093,8.1093,8.1093,8.1093,8.1093,8.1093,8.1093,8.1093,8.1093,8.1093,8.1093,8.1093,8.1093,8.1093,8.1093,5.2109,0.0,0.0,0.0,0.0,0.0,0.0,0.0,0.0,0.0,0.0,0.0,0.0,0.0,0.0,0.0,0.0,4.6204,0.0,4.613,0.0,0.0,0.0,0.0,0.0,4.8903,4.9317,4.9938,5.0543,5.1082,5.1543,5.2972,5.401,5.4472,5.6973,5.8313,5.8313,5.9973,6.0787,6.0787,6.0787,6.0787,6.0787,6.0787,6.0941,6.1248,6.266,6.3429,6.3775,6.5282,6.5904,6.5904,6.5904,6.6019,6.6404,6.7853,6.8545,6.8968,7.0398,7.1052,7.1398,7.2283,7.3129,7.3969,7.4822,7.5668,7.6476,7.7138,7.8061,7.9015,7.9631,8.0439,8.1093,8.1093,8.1093,8.1093,8.1093,8.1093,8.1093,8.1093,8.1093,8.1093,8.1093,8.1093,8.1093,8.1093,8.1093,8.1093,8.1093,8.1093,8.1093,8.1093,8.1093,8.1093,8.1093,8.1093,8.1093,8.1093,8.1093,8.1208,8.14,8.1439,8.1554,8.1785,8.1785,8.1785,8.1785,8.1785,8.1785,8.1785,8.1323,8.1093,0.0,0.0,0.0,5.293,0.0,0.0,0.0,0.0,4.8867,0.0,0.0,0.0,0.0,0.0,0.0,0.0,0.0,0.0,0.0,0.0,0.0,0.0,0.0,0.0,0.0,4.7686,4.8159,4.8197,4.8197,4.8971,5.063,5.1543,5.2774,5.4434,5.6973,5.8313,5.8313,5.9973,6.0787,6.0787,6.0787,6.0787,6.0787,6.0787,6.1248,6.2095,6.2935,6.3775,6.4628,6.5513,6.5904,6.5904,6.5904,6.6365,6.7173,6.809,6.893,6.9783,7.0591,7.1437,7.2283,7.3161,7.4007,7.4815,7.5707,7.6553,7.7253,7.7292,7.8477,7.9738,7.9777,8.0439,8.1093,8.1093,8.1093,8.1093,8.1093,8.1093,8.1093,8.1093,8.1093,8.1093,8.1093,8.1093,8.1093,8.1093,8.1093,8.1093,8.1093,8.1093,8.1093,8.1093,8.1093,8.1093,8.1093,8.1093,8.1093,8.1093,8.1093,8.1439,8.2247,8.2247,8.2678,8.3486,8.3524,8.3524,8.3524,8.3524,8.3524,8.3486,8.1862,8.1093,0.0,0.0,5.5508,5.4648,0.0,0.0,0.0,0.0,0.0,0.0,0.0,0.0,0.0,0.0,0.0,0.0,0.0,0.0,0.0,0.0,0.0,0.0,0.0,0.0,0.0,0.0,4.6519,4.6519,4.6989,4.7812,4.8933,5.0317,5.1895,5.3587,5.6126,5.7703,5.8275,5.9973,6.0787,6.0787,6.0787,6.0787,6.0825,6.1402,6.1826,6.2172,6.3551,6.432,6.4666,6.5551,6.6211,6.6673,6.6673,6.7552,6.8783,6.8507,6.893,6.9898,7.1283,7.2322,7.3206,7.4046,7.4469,7.4976,7.6399,7.7061,7.7515,7.8631,7.9361,7.9931,8.0516,8.09,8.1093,8.1093,8.1093,8.1093,8.1093,8.1093,8.1093,8.1093,8.1093,8.1093,8.1093,8.1093,8.1093,8.1093,8.1093,8.1093,8.1093,8.1093,8.1093,8.1093,8.1093,8.1093,8.1093,8.1593,8.2131,8.2716,8.2755,8.287,8.3139,8.3708,8.417,8.4439,8.4478,8.4478,8.4478,8.387,8.3601,8.3601,8.3024,8.2439,5.5742,5.6172,0.0,5.5508,5.4219,0.0,5.207,0.0,4.9961,0.0,0.0,0.0,0.0,0.0,0.0,0.0,0.0,0.0,0.0,4.6276,0.0,0.0,0.0,0.0,0.0,4.5788,4.5719,4.5687,4.6177,4.6835,4.762,4.9317,5.101,5.2697,5.5516,5.744,5.8275,5.9973,6.0787,6.0787,6.0787,6.0979,6.1287,6.1826,6.2441,6.3057,6.4128,6.4782,6.5128,6.5974,6.6635,6.7135,6.7436,6.8436,6.9629,6.9084,6.959,7.0783,7.2168,7.3206,7.4007,7.4546,7.4892,7.5438,7.6868,7.7484,7.8023,7.94,8.0015,8.04,8.0939,8.1093,8.1093,8.1093,8.1093,8.1093,8.1093,8.1093,8.1093,8.1093,8.1093,8.1093,8.1093,8.1093,8.1093,8.1093,8.1093,8.1093,8.1093,8.1093,8.1093,8.1093,8.1093,8.1208,8.1516,8.2285,8.2986,8.3563,8.3601,8.3755,8.4055,8.4901,8.5478,8.5786,8.6094,8.6094,8.5786,8.5209,8.4794,8.4478,8.4478,8.4016]}]]